<?xml version='1.0' encoding='UTF-8'?><gpx version="1.1" creator="JPX - https://github.com/jenetics/jpx" xmlns="http://www.topografix.com/GPX/1/1"><trk><trkseg><trkpt lat="45.7524341" lon="10.4945147"><ele>389.0</ele><time>2026-03-22T08:25:19.495Z</time></trkpt><trkpt lat="45.7524579" lon="10.4944021"><ele>389.0</ele><time>2026-03-22T08:25:27.506Z</time></trkpt><trkpt lat="45.7525011" lon="10.4943061"><ele>389.0</ele><time>2026-03-22T08:28:14.542Z</time></trkpt><trkpt lat="45.7524732" lon="10.4943965"><ele>389.0</ele><time>2026-03-22T08:30:05.503Z</time></trkpt><trkpt lat="45.7524858" lon="10.494497"><ele>389.0</ele><time>2026-03-22T08:30:11.507Z</time></trkpt><trkpt lat="45.7524389" lon="10.4944182"><ele>389.0</ele><time>2026-03-22T08:33:00.511Z</time></trkpt><trkpt lat="45.7524737" lon="10.4943408"><ele>389.0</ele><time>2026-03-22T08:33:14.504Z</time></trkpt><trkpt lat="45.7525774" lon="10.4943442"><ele>389.0</ele><time>2026-03-22T08:33:41.549Z</time></trkpt><trkpt lat="45.7526285" lon="10.4944229"><ele>389.0</ele><time>2026-03-22T08:33:45.507Z</time></trkpt><trkpt lat="45.7526826" lon="10.4944924"><ele>389.0</ele><time>2026-03-22T08:33:48.542Z</time></trkpt><trkpt lat="45.7527273" lon="10.4945645"><ele>389.0</ele><time>2026-03-22T08:33:51.522Z</time></trkpt><trkpt lat="45.75279" lon="10.4946395"><ele>389.0</ele><time>2026-03-22T08:33:55.504Z</time></trkpt><trkpt lat="45.752847" lon="10.4946848"><ele>389.0</ele><time>2026-03-22T08:33:58.499Z</time></trkpt><trkpt lat="45.7529002" lon="10.4947724"><ele>389.0</ele><time>2026-03-22T08:34:01.533Z</time></trkpt><trkpt lat="45.7529501" lon="10.4948732"><ele>388.66666666666663</ele><time>2026-03-22T08:34:04.548Z</time></trkpt><trkpt lat="45.7529973" lon="10.4949714"><ele>388.3333333333333</ele><time>2026-03-22T08:34:07.508Z</time></trkpt><trkpt lat="45.7530504" lon="10.4950624"><ele>388.0</ele><time>2026-03-22T08:34:10.554Z</time></trkpt><trkpt lat="45.7530975" lon="10.4951453"><ele>387.66666666666663</ele><time>2026-03-22T08:34:13.523Z</time></trkpt><trkpt lat="45.7531408" lon="10.4952188"><ele>387.3333333333333</ele><time>2026-03-22T08:34:16.505Z</time></trkpt><trkpt lat="45.7531806" lon="10.4953069"><ele>387.0</ele><time>2026-03-22T08:34:19.545Z</time></trkpt><trkpt lat="45.7532015" lon="10.4954296"><ele>387.0</ele><time>2026-03-22T08:34:22.506Z</time></trkpt><trkpt lat="45.7532151" lon="10.4955495"><ele>387.0</ele><time>2026-03-22T08:34:25.511Z</time></trkpt><trkpt lat="45.7532152" lon="10.4956444"><ele>387.0</ele><time>2026-03-22T08:34:28.509Z</time></trkpt><trkpt lat="45.7531982" lon="10.495739"><ele>387.0</ele><time>2026-03-22T08:34:34.499Z</time></trkpt><trkpt lat="45.7532478" lon="10.4958077"><ele>387.0</ele><time>2026-03-22T08:36:02.514Z</time></trkpt><trkpt lat="45.7532942" lon="10.4959158"><ele>387.0</ele><time>2026-03-22T08:36:06.516Z</time></trkpt><trkpt lat="45.7533213" lon="10.4959981"><ele>387.0</ele><time>2026-03-22T08:36:09.504Z</time></trkpt><trkpt lat="45.7533544" lon="10.4960872"><ele>387.0</ele><time>2026-03-22T08:36:12.512Z</time></trkpt><trkpt lat="45.7533752" lon="10.4961773"><ele>387.0</ele><time>2026-03-22T08:36:15.57Z</time></trkpt><trkpt lat="45.7534172" lon="10.4962717"><ele>387.0</ele><time>2026-03-22T08:36:19.516Z</time></trkpt><trkpt lat="45.7534713" lon="10.4963565"><ele>387.0</ele><time>2026-03-22T08:36:22.509Z</time></trkpt><trkpt lat="45.7535107" lon="10.4964409"><ele>387.0</ele><time>2026-03-22T08:36:26.574Z</time></trkpt><trkpt lat="45.753549" lon="10.4965253"><ele>387.0</ele><time>2026-03-22T08:36:29.526Z</time></trkpt><trkpt lat="45.7535967" lon="10.4966168"><ele>387.0</ele><time>2026-03-22T08:36:32.522Z</time></trkpt><trkpt lat="45.7536805" lon="10.4967643"><ele>386.2857142857143</ele><time>2026-03-22T08:36:36.565Z</time></trkpt><trkpt lat="45.7537244" lon="10.4968455"><ele>385.57142857142856</ele><time>2026-03-22T08:36:38.518Z</time></trkpt><trkpt lat="45.7537623" lon="10.4969332"><ele>384.8571428571429</ele><time>2026-03-22T08:36:40.515Z</time></trkpt><trkpt lat="45.7537929" lon="10.497027"><ele>384.1428571428571</ele><time>2026-03-22T08:36:42.514Z</time></trkpt><trkpt lat="45.7538181" lon="10.4971348"><ele>383.4285714285714</ele><time>2026-03-22T08:36:44.506Z</time></trkpt><trkpt lat="45.7538436" lon="10.4972431"><ele>382.7142857142857</ele><time>2026-03-22T08:36:46.524Z</time></trkpt><trkpt lat="45.7538702" lon="10.4973349"><ele>382.0</ele><time>2026-03-22T08:37:00.508Z</time></trkpt><trkpt lat="45.7538158" lon="10.4973809"><ele>382.0</ele><time>2026-03-22T08:37:40.503Z</time></trkpt><trkpt lat="45.7537507" lon="10.4973479"><ele>382.0</ele><time>2026-03-22T08:37:47.509Z</time></trkpt><trkpt lat="45.7536834" lon="10.4973381"><ele>382.0</ele><time>2026-03-22T08:37:53.517Z</time></trkpt><trkpt lat="45.7536197" lon="10.4973233"><ele>382.0</ele><time>2026-03-22T08:37:57.578Z</time></trkpt><trkpt lat="45.7535567" lon="10.4972958"><ele>382.0</ele><time>2026-03-22T08:38:01.569Z</time></trkpt><trkpt lat="45.7534796" lon="10.4972656"><ele>382.0</ele><time>2026-03-22T08:38:06.571Z</time></trkpt><trkpt lat="45.7534039" lon="10.4972623"><ele>382.0</ele><time>2026-03-22T08:38:09.521Z</time></trkpt><trkpt lat="45.7533328" lon="10.4972448"><ele>384.2857142857143</ele><time>2026-03-22T08:38:14.517Z</time></trkpt><trkpt lat="45.7532646" lon="10.4972133"><ele>386.57142857142856</ele><time>2026-03-22T08:38:19.56Z</time></trkpt><trkpt lat="45.7532044" lon="10.497166"><ele>388.85714285714283</ele><time>2026-03-22T08:38:35.518Z</time></trkpt><trkpt lat="45.7531434" lon="10.4971146"><ele>391.1428571428571</ele><time>2026-03-22T08:38:41.581Z</time></trkpt><trkpt lat="45.7530795" lon="10.4970817"><ele>393.42857142857144</ele><time>2026-03-22T08:38:46.504Z</time></trkpt><trkpt lat="45.7530102" lon="10.4970798"><ele>395.71428571428567</ele><time>2026-03-22T08:38:51.511Z</time></trkpt><trkpt lat="45.752941" lon="10.4970838"><ele>398.0</ele><time>2026-03-22T08:38:57.517Z</time></trkpt><trkpt lat="45.7528762" lon="10.4971048"><ele>398.57142857142856</ele><time>2026-03-22T08:39:02.513Z</time></trkpt><trkpt lat="45.7528014" lon="10.4971207"><ele>399.1428571428571</ele><time>2026-03-22T08:39:08.563Z</time></trkpt><trkpt lat="45.7527363" lon="10.4971025"><ele>399.71428571428567</ele><time>2026-03-22T08:39:13.515Z</time></trkpt><trkpt lat="45.752682" lon="10.4971694"><ele>400.2857142857143</ele><time>2026-03-22T08:39:18.522Z</time></trkpt><trkpt lat="45.7526147" lon="10.497199"><ele>400.8571428571429</ele><time>2026-03-22T08:39:26.556Z</time></trkpt><trkpt lat="45.752559" lon="10.4972476"><ele>401.4285714285714</ele><time>2026-03-22T08:39:31.515Z</time></trkpt><trkpt lat="45.7524875" lon="10.4972122"><ele>402.0</ele><time>2026-03-22T08:39:36.579Z</time></trkpt><trkpt lat="45.7524181" lon="10.4972001"><ele>404.1428571428571</ele><time>2026-03-22T08:39:41.507Z</time></trkpt><trkpt lat="45.7523514" lon="10.4972655"><ele>406.28571428571433</ele><time>2026-03-22T08:39:54.571Z</time></trkpt><trkpt lat="45.7522751" lon="10.4972676"><ele>408.42857142857144</ele><time>2026-03-22T08:39:59.514Z</time></trkpt><trkpt lat="45.7522079" lon="10.4972704"><ele>410.57142857142856</ele><time>2026-03-22T08:40:05.521Z</time></trkpt><trkpt lat="45.7521341" lon="10.497277"><ele>412.71428571428567</ele><time>2026-03-22T08:40:10.512Z</time></trkpt><trkpt lat="45.7520726" lon="10.4972542"><ele>414.8571428571429</ele><time>2026-03-22T08:40:14.529Z</time></trkpt><trkpt lat="45.7520186" lon="10.4973033"><ele>417.0</ele><time>2026-03-22T08:40:21.554Z</time></trkpt><trkpt lat="45.7519883" lon="10.4973969"><ele>417.0</ele><time>2026-03-22T08:40:30.566Z</time></trkpt><trkpt lat="45.7519506" lon="10.4974695"><ele>417.0</ele><time>2026-03-22T08:40:37.501Z</time></trkpt><trkpt lat="45.7519104" lon="10.4975429"><ele>417.0</ele><time>2026-03-22T08:40:47.519Z</time></trkpt><trkpt lat="45.7518534" lon="10.497604"><ele>417.0</ele><time>2026-03-22T08:40:55.503Z</time></trkpt><trkpt lat="45.7518152" lon="10.4976833"><ele>417.0</ele><time>2026-03-22T08:41:03.514Z</time></trkpt><trkpt lat="45.7517549" lon="10.4977386"><ele>417.0</ele><time>2026-03-22T08:41:08.514Z</time></trkpt><trkpt lat="45.7517047" lon="10.4978051"><ele>417.0</ele><time>2026-03-22T08:41:14.509Z</time></trkpt><trkpt lat="45.7516449" lon="10.4978587"><ele>420.0</ele><time>2026-03-22T08:41:20.519Z</time></trkpt><trkpt lat="45.7515909" lon="10.4979089"><ele>423.0</ele><time>2026-03-22T08:41:26.52Z</time></trkpt><trkpt lat="45.7515362" lon="10.497965"><ele>426.0</ele><time>2026-03-22T08:41:32.527Z</time></trkpt><trkpt lat="45.7515024" lon="10.4980592"><ele>429.0</ele><time>2026-03-22T08:41:39.511Z</time></trkpt><trkpt lat="45.7514726" lon="10.4981537"><ele>432.0</ele><time>2026-03-22T08:41:46.528Z</time></trkpt><trkpt lat="45.751426" lon="10.4982269"><ele>435.0</ele><time>2026-03-22T08:41:53.525Z</time></trkpt><trkpt lat="45.7513639" lon="10.4982874"><ele>438.0</ele><time>2026-03-22T08:41:59.574Z</time></trkpt><trkpt lat="45.7513308" lon="10.4983741"><ele>438.2857142857143</ele><time>2026-03-22T08:42:06.512Z</time></trkpt><trkpt lat="45.751314" lon="10.4984649"><ele>438.57142857142856</ele><time>2026-03-22T08:42:12.502Z</time></trkpt><trkpt lat="45.7513081" lon="10.4985644"><ele>438.85714285714283</ele><time>2026-03-22T08:42:18.512Z</time></trkpt><trkpt lat="45.7512613" lon="10.4986304"><ele>439.1428571428571</ele><time>2026-03-22T08:42:24.509Z</time></trkpt><trkpt lat="45.7512428" lon="10.4987175"><ele>439.42857142857144</ele><time>2026-03-22T08:42:30.512Z</time></trkpt><trkpt lat="45.7512162" lon="10.4987999"><ele>439.71428571428567</ele><time>2026-03-22T08:42:35.519Z</time></trkpt><trkpt lat="45.7512174" lon="10.4988992"><ele>440.0</ele><time>2026-03-22T08:42:41.511Z</time></trkpt><trkpt lat="45.751232" lon="10.4989945"><ele>444.1428571428571</ele><time>2026-03-22T08:42:48.508Z</time></trkpt><trkpt lat="45.7512285" lon="10.4990862"><ele>448.2857142857143</ele><time>2026-03-22T08:42:55.514Z</time></trkpt><trkpt lat="45.7512375" lon="10.4991807"><ele>452.42857142857144</ele><time>2026-03-22T08:43:02.513Z</time></trkpt><trkpt lat="45.7511857" lon="10.4992327"><ele>456.57142857142856</ele><time>2026-03-22T08:43:09.518Z</time></trkpt><trkpt lat="45.7511346" lon="10.4991756"><ele>460.7142857142857</ele><time>2026-03-22T08:43:15.514Z</time></trkpt><trkpt lat="45.7510744" lon="10.4991313"><ele>464.85714285714283</ele><time>2026-03-22T08:43:22.506Z</time></trkpt><trkpt lat="45.7510389" lon="10.4990348"><ele>469.0</ele><time>2026-03-22T08:43:30.515Z</time></trkpt><trkpt lat="45.7509912" lon="10.4989562"><ele>469.0</ele><time>2026-03-22T08:43:35.579Z</time></trkpt><trkpt lat="45.7509478" lon="10.4990243"><ele>469.0</ele><time>2026-03-22T08:43:43.567Z</time></trkpt><trkpt lat="45.7509812" lon="10.4991008"><ele>469.0</ele><time>2026-03-22T08:43:50.513Z</time></trkpt><trkpt lat="45.7510175" lon="10.4991849"><ele>469.0</ele><time>2026-03-22T08:43:56.52Z</time></trkpt><trkpt lat="45.7510445" lon="10.4992774"><ele>469.0</ele><time>2026-03-22T08:44:03.575Z</time></trkpt><trkpt lat="45.7510597" lon="10.4993749"><ele>469.0</ele><time>2026-03-22T08:44:11.585Z</time></trkpt><trkpt lat="45.7510528" lon="10.4994783"><ele>469.0</ele><time>2026-03-22T08:46:37.519Z</time></trkpt><trkpt lat="45.7510689" lon="10.499576"><ele>470.8571428571429</ele><time>2026-03-22T08:46:42.505Z</time></trkpt><trkpt lat="45.7510559" lon="10.4996673"><ele>472.7142857142857</ele><time>2026-03-22T08:46:47.523Z</time></trkpt><trkpt lat="45.7510296" lon="10.4997622"><ele>474.57142857142856</ele><time>2026-03-22T08:46:54.525Z</time></trkpt><trkpt lat="45.7510264" lon="10.4998622"><ele>476.42857142857144</ele><time>2026-03-22T08:46:59.514Z</time></trkpt><trkpt lat="45.7510221" lon="10.4999606"><ele>478.28571428571433</ele><time>2026-03-22T08:47:04.512Z</time></trkpt><trkpt lat="45.751002" lon="10.5000498"><ele>480.14285714285717</ele><time>2026-03-22T08:47:10.513Z</time></trkpt><trkpt lat="45.7509611" lon="10.5001363"><ele>482.0</ele><time>2026-03-22T08:47:16.507Z</time></trkpt><trkpt lat="45.7509335" lon="10.5002195"><ele>482.0</ele><time>2026-03-22T08:47:22.508Z</time></trkpt><trkpt lat="45.7509173" lon="10.5003082"><ele>482.00000000000006</ele><time>2026-03-22T08:47:29.513Z</time></trkpt><trkpt lat="45.7508846" lon="10.5003965"><ele>482.0</ele><time>2026-03-22T08:47:35.583Z</time></trkpt><trkpt lat="45.7508651" lon="10.5004947"><ele>482.0</ele><time>2026-03-22T08:47:41.516Z</time></trkpt><trkpt lat="45.7508325" lon="10.500572"><ele>482.00000000000006</ele><time>2026-03-22T08:47:47.527Z</time></trkpt><trkpt lat="45.7508426" lon="10.500665"><ele>482.0</ele><time>2026-03-22T08:47:53.55Z</time></trkpt><trkpt lat="45.7508624" lon="10.5007538"><ele>482.0</ele><time>2026-03-22T08:47:58.519Z</time></trkpt><trkpt lat="45.7508474" lon="10.500851"><ele>484.0</ele><time>2026-03-22T08:48:05.521Z</time></trkpt><trkpt lat="45.7508611" lon="10.5009431"><ele>486.00000000000006</ele><time>2026-03-22T08:48:10.582Z</time></trkpt><trkpt lat="45.750854" lon="10.50104"><ele>488.0</ele><time>2026-03-22T08:48:17.514Z</time></trkpt><trkpt lat="45.7508833" lon="10.5011282"><ele>490.0</ele><time>2026-03-22T08:48:22.54Z</time></trkpt><trkpt lat="45.7508459" lon="10.5012021"><ele>492.00000000000006</ele><time>2026-03-22T08:48:28.542Z</time></trkpt><trkpt lat="45.7508217" lon="10.5012867"><ele>494.0</ele><time>2026-03-22T08:48:32.519Z</time></trkpt><trkpt lat="45.7507703" lon="10.5013582"><ele>496.0</ele><time>2026-03-22T08:48:39.527Z</time></trkpt><trkpt lat="45.7507269" lon="10.5014267"><ele>498.8571428571429</ele><time>2026-03-22T08:48:44.516Z</time></trkpt><trkpt lat="45.7506751" lon="10.5014802"><ele>501.7142857142858</ele><time>2026-03-22T08:48:49.567Z</time></trkpt><trkpt lat="45.7506573" lon="10.5015804"><ele>504.57142857142856</ele><time>2026-03-22T08:48:55.562Z</time></trkpt><trkpt lat="45.7506032" lon="10.5016404"><ele>507.42857142857144</ele><time>2026-03-22T08:48:59.517Z</time></trkpt><trkpt lat="45.7505472" lon="10.5017015"><ele>510.2857142857143</ele><time>2026-03-22T08:49:05.564Z</time></trkpt><trkpt lat="45.7504896" lon="10.501769"><ele>513.1428571428571</ele><time>2026-03-22T08:49:12.518Z</time></trkpt><trkpt lat="45.750431" lon="10.5018094"><ele>516.0</ele><time>2026-03-22T08:49:17.528Z</time></trkpt><trkpt lat="45.750367" lon="10.5018449"><ele>515.9999999999999</ele><time>2026-03-22T08:49:23.551Z</time></trkpt><trkpt lat="45.7503262" lon="10.5019197"><ele>516.0</ele><time>2026-03-22T08:49:31.574Z</time></trkpt><trkpt lat="45.7502759" lon="10.5019857"><ele>516.0</ele><time>2026-03-22T08:49:37.514Z</time></trkpt><trkpt lat="45.7502322" lon="10.5020586"><ele>516.0</ele><time>2026-03-22T08:49:43.527Z</time></trkpt><trkpt lat="45.7502002" lon="10.5021374"><ele>516.0</ele><time>2026-03-22T08:49:48.504Z</time></trkpt><trkpt lat="45.7501548" lon="10.5022229"><ele>515.9999999999999</ele><time>2026-03-22T08:49:53.515Z</time></trkpt><trkpt lat="45.7501178" lon="10.5022969"><ele>516.0</ele><time>2026-03-22T08:49:57.523Z</time></trkpt><trkpt lat="45.7500469" lon="10.502334"><ele>514.5714285714286</ele><time>2026-03-22T08:50:00.575Z</time></trkpt><trkpt lat="45.749973" lon="10.5023883"><ele>513.1428571428571</ele><time>2026-03-22T08:50:04.507Z</time></trkpt><trkpt lat="45.749906" lon="10.5024434"><ele>511.7142857142857</ele><time>2026-03-22T08:50:08.524Z</time></trkpt><trkpt lat="45.7498446" lon="10.5024779"><ele>510.2857142857143</ele><time>2026-03-22T08:50:12.509Z</time></trkpt><trkpt lat="45.7497925" lon="10.5025452"><ele>508.8571428571429</ele><time>2026-03-22T08:50:17.562Z</time></trkpt><trkpt lat="45.7497251" lon="10.502594"><ele>507.4285714285715</ele><time>2026-03-22T08:50:22.521Z</time></trkpt><trkpt lat="45.7496692" lon="10.5026654"><ele>506.00000000000006</ele><time>2026-03-22T08:50:27.52Z</time></trkpt><trkpt lat="45.7496563" lon="10.50276"><ele>506.00000000000006</ele><time>2026-03-22T08:50:32.513Z</time></trkpt><trkpt lat="45.7496205" lon="10.502848"><ele>506.0</ele><time>2026-03-22T08:50:39.51Z</time></trkpt><trkpt lat="45.7495899" lon="10.5029371"><ele>506.00000000000006</ele><time>2026-03-22T08:50:45.504Z</time></trkpt><trkpt lat="45.7495502" lon="10.5030191"><ele>506.00000000000006</ele><time>2026-03-22T08:50:50.507Z</time></trkpt><trkpt lat="45.7495272" lon="10.5031218"><ele>506.0</ele><time>2026-03-22T08:50:55.525Z</time></trkpt><trkpt lat="45.7495154" lon="10.5032148"><ele>506.00000000000006</ele><time>2026-03-22T08:51:00.516Z</time></trkpt><trkpt lat="45.7494689" lon="10.5032842"><ele>506.00000000000006</ele><time>2026-03-22T08:51:04.512Z</time></trkpt><trkpt lat="45.749421" lon="10.5033518"><ele>509.00000000000006</ele><time>2026-03-22T08:51:08.519Z</time></trkpt><trkpt lat="45.7493867" lon="10.5034357"><ele>512.0</ele><time>2026-03-22T08:51:13.517Z</time></trkpt><trkpt lat="45.749422" lon="10.5035221"><ele>515.0</ele><time>2026-03-22T08:51:17.514Z</time></trkpt><trkpt lat="45.7494318" lon="10.5036216"><ele>518.0</ele><time>2026-03-22T08:51:23.514Z</time></trkpt><trkpt lat="45.7494091" lon="10.5037171"><ele>521.0</ele><time>2026-03-22T08:51:30.515Z</time></trkpt><trkpt lat="45.7493905" lon="10.5038088"><ele>524.0000000000001</ele><time>2026-03-22T08:51:37.523Z</time></trkpt><trkpt lat="45.7493813" lon="10.5039152"><ele>527.0</ele><time>2026-03-22T08:51:42.51Z</time></trkpt><trkpt lat="45.7494024" lon="10.5040127"><ele>527.0000000000001</ele><time>2026-03-22T08:51:47.525Z</time></trkpt><trkpt lat="45.7493869" lon="10.5041076"><ele>527.0</ele><time>2026-03-22T08:51:52.584Z</time></trkpt><trkpt lat="45.7493363" lon="10.5041781"><ele>527.0</ele><time>2026-03-22T08:51:57.524Z</time></trkpt><trkpt lat="45.7492967" lon="10.5042505"><ele>527.0</ele><time>2026-03-22T08:52:02.544Z</time></trkpt><trkpt lat="45.7492397" lon="10.5042956"><ele>527.0</ele><time>2026-03-22T08:52:06.519Z</time></trkpt><trkpt lat="45.7492378" lon="10.5043976"><ele>527.0000000000001</ele><time>2026-03-22T08:52:11.565Z</time></trkpt><trkpt lat="45.7492411" lon="10.5045023"><ele>527.0</ele><time>2026-03-22T08:52:17.512Z</time></trkpt><trkpt lat="45.7493123" lon="10.504556"><ele>527.1428571428572</ele><time>2026-03-22T08:52:19.555Z</time></trkpt><trkpt lat="45.749371" lon="10.5045999"><ele>527.2857142857143</ele><time>2026-03-22T08:52:21.579Z</time></trkpt><trkpt lat="45.7494006" lon="10.5046999"><ele>527.4285714285714</ele><time>2026-03-22T08:52:27.515Z</time></trkpt><trkpt lat="45.7494566" lon="10.504783"><ele>527.5714285714287</ele><time>2026-03-22T08:52:31.571Z</time></trkpt><trkpt lat="45.7494986" lon="10.5048599"><ele>527.7142857142858</ele><time>2026-03-22T08:52:35.514Z</time></trkpt><trkpt lat="45.7495484" lon="10.5049164"><ele>527.8571428571429</ele><time>2026-03-22T08:52:37.558Z</time></trkpt><trkpt lat="45.7495913" lon="10.5049833"><ele>528.0</ele><time>2026-03-22T08:52:40.577Z</time></trkpt><trkpt lat="45.7496245" lon="10.5050908"><ele>532.3333333333334</ele><time>2026-03-22T08:52:44.517Z</time></trkpt><trkpt lat="45.7496592" lon="10.5051965"><ele>536.6666666666666</ele><time>2026-03-22T08:52:48.546Z</time></trkpt><trkpt lat="45.7496256" lon="10.5052993"><ele>541.0</ele><time>2026-03-22T08:52:53.518Z</time></trkpt><trkpt lat="45.7495937" lon="10.5053824"><ele>545.3333333333333</ele><time>2026-03-22T08:52:57.556Z</time></trkpt><trkpt lat="45.7496477" lon="10.5054617"><ele>549.6666666666666</ele><time>2026-03-22T08:53:00.524Z</time></trkpt><trkpt lat="45.7495551" lon="10.5055182"><ele>554.0</ele><time>2026-03-22T08:53:03.513Z</time></trkpt><trkpt lat="45.749473" lon="10.5055528"><ele>556.6666666666666</ele><time>2026-03-22T08:53:05.579Z</time></trkpt><trkpt lat="45.749407" lon="10.5055865"><ele>559.3333333333333</ele><time>2026-03-22T08:53:07.577Z</time></trkpt><trkpt lat="45.7493178" lon="10.5056229"><ele>562.0</ele><time>2026-03-22T08:53:11.515Z</time></trkpt><trkpt lat="45.7492582" lon="10.5056758"><ele>564.6666666666666</ele><time>2026-03-22T08:53:15.58Z</time></trkpt><trkpt lat="45.7492369" lon="10.5057821"><ele>567.3333333333334</ele><time>2026-03-22T08:53:20.515Z</time></trkpt><trkpt lat="45.7492579" lon="10.5058804"><ele>570.0</ele><time>2026-03-22T08:53:25.574Z</time></trkpt><trkpt lat="45.7492715" lon="10.5059923"><ele>570.0</ele><time>2026-03-22T08:53:32.574Z</time></trkpt><trkpt lat="45.7492864" lon="10.5060818"><ele>570.0</ele><time>2026-03-22T08:53:36.527Z</time></trkpt><trkpt lat="45.749337" lon="10.5061537"><ele>570.0</ele><time>2026-03-22T08:53:39.516Z</time></trkpt><trkpt lat="45.749403" lon="10.5062283"><ele>570.0</ele><time>2026-03-22T08:53:42.575Z</time></trkpt><trkpt lat="45.7493905" lon="10.506327"><ele>570.0</ele><time>2026-03-22T08:53:45.531Z</time></trkpt><trkpt lat="45.7494011" lon="10.5064305"><ele>570.0</ele><time>2026-03-22T08:53:49.525Z</time></trkpt><trkpt lat="45.7494093" lon="10.5065209"><ele>570.0</ele><time>2026-03-22T08:53:53.52Z</time></trkpt><trkpt lat="45.7494097" lon="10.5066127"><ele>572.5714285714286</ele><time>2026-03-22T08:53:58.571Z</time></trkpt><trkpt lat="45.7494345" lon="10.506699"><ele>575.1428571428571</ele><time>2026-03-22T08:54:03.525Z</time></trkpt><trkpt lat="45.7494285" lon="10.5067932"><ele>577.7142857142858</ele><time>2026-03-22T08:54:07.543Z</time></trkpt><trkpt lat="45.7494828" lon="10.5068403"><ele>580.2857142857142</ele><time>2026-03-22T08:54:11.522Z</time></trkpt><trkpt lat="45.7494288" lon="10.5069099"><ele>582.8571428571429</ele><time>2026-03-22T08:54:16.552Z</time></trkpt><trkpt lat="45.7494621" lon="10.5070125"><ele>585.4285714285714</ele><time>2026-03-22T08:54:21.527Z</time></trkpt><trkpt lat="45.7494198" lon="10.5071113"><ele>588.0</ele><time>2026-03-22T08:54:26.6Z</time></trkpt><trkpt lat="45.7494501" lon="10.5071974"><ele>588.0</ele><time>2026-03-22T08:54:31.511Z</time></trkpt><trkpt lat="45.7495155" lon="10.5072883"><ele>588.0</ele><time>2026-03-22T08:54:35.543Z</time></trkpt><trkpt lat="45.7494508" lon="10.5073459"><ele>588.0</ele><time>2026-03-22T08:54:38.527Z</time></trkpt><trkpt lat="45.7493819" lon="10.5073287"><ele>588.0</ele><time>2026-03-22T08:54:43.553Z</time></trkpt><trkpt lat="45.749397" lon="10.5074209"><ele>588.0</ele><time>2026-03-22T08:55:05.525Z</time></trkpt><trkpt lat="45.7493081" lon="10.5074327"><ele>588.0</ele><time>2026-03-22T08:55:06.529Z</time></trkpt><trkpt lat="45.7493947" lon="10.507547"><ele>581.5</ele><time>2026-03-22T08:55:09.517Z</time></trkpt><trkpt lat="45.7493748" lon="10.5076477"><ele>575.0</ele><time>2026-03-22T08:55:14.523Z</time></trkpt><trkpt lat="45.7493645" lon="10.5077565"><ele>568.5</ele><time>2026-03-22T08:55:18.505Z</time></trkpt><trkpt lat="45.7492933" lon="10.5078441"><ele>562.0</ele><time>2026-03-22T08:55:21.52Z</time></trkpt><trkpt lat="45.7492381" lon="10.5079399"><ele>555.5</ele><time>2026-03-22T08:55:24.512Z</time></trkpt><trkpt lat="45.7491851" lon="10.5080091"><ele>549.0</ele><time>2026-03-22T08:55:27.511Z</time></trkpt><trkpt lat="45.7491365" lon="10.5080939"><ele>549.0</ele><time>2026-03-22T08:55:30.577Z</time></trkpt><trkpt lat="45.7491241" lon="10.5081974"><ele>549.0</ele><time>2026-03-22T08:55:33.519Z</time></trkpt><trkpt lat="45.7491681" lon="10.5083161"><ele>549.0</ele><time>2026-03-22T08:55:36.513Z</time></trkpt><trkpt lat="45.7492562" lon="10.5084279"><ele>549.0</ele><time>2026-03-22T08:55:39.568Z</time></trkpt><trkpt lat="45.7492716" lon="10.5085172"><ele>549.0</ele><time>2026-03-22T08:55:42.521Z</time></trkpt><trkpt lat="45.7493188" lon="10.5085948"><ele>549.0</ele><time>2026-03-22T08:55:45.513Z</time></trkpt><trkpt lat="45.7493468" lon="10.5086879"><ele>554.1428571428571</ele><time>2026-03-22T08:55:49.608Z</time></trkpt><trkpt lat="45.7493997" lon="10.5087684"><ele>559.2857142857143</ele><time>2026-03-22T08:55:54.512Z</time></trkpt><trkpt lat="45.7494278" lon="10.5088559"><ele>564.4285714285714</ele><time>2026-03-22T08:56:01.514Z</time></trkpt><trkpt lat="45.749467" lon="10.5089302"><ele>569.5714285714286</ele><time>2026-03-22T08:56:05.582Z</time></trkpt><trkpt lat="45.7494676" lon="10.5090279"><ele>574.7142857142857</ele><time>2026-03-22T08:56:11.52Z</time></trkpt><trkpt lat="45.7495443" lon="10.5090966"><ele>579.8571428571429</ele><time>2026-03-22T08:56:15.544Z</time></trkpt><trkpt lat="45.7495066" lon="10.5091763"><ele>585.0</ele><time>2026-03-22T08:56:21.515Z</time></trkpt><trkpt lat="45.7495616" lon="10.5092308"><ele>585.0</ele><time>2026-03-22T08:56:23.567Z</time></trkpt><trkpt lat="45.749621" lon="10.5092835"><ele>585.0</ele><time>2026-03-22T08:56:26.538Z</time></trkpt><trkpt lat="45.7496797" lon="10.5093501"><ele>585.0</ele><time>2026-03-22T08:56:30.512Z</time></trkpt><trkpt lat="45.7496982" lon="10.5094418"><ele>585.0</ele><time>2026-03-22T08:56:36.523Z</time></trkpt><trkpt lat="45.7497222" lon="10.5095668"><ele>585.0</ele><time>2026-03-22T08:56:42.566Z</time></trkpt><trkpt lat="45.7497486" lon="10.5096502"><ele>585.0</ele><time>2026-03-22T08:56:47.518Z</time></trkpt><trkpt lat="45.7497076" lon="10.5097303"><ele>585.0</ele><time>2026-03-22T08:56:51.584Z</time></trkpt><trkpt lat="45.749644" lon="10.5097771"><ele>584.6666666666666</ele><time>2026-03-22T08:56:54.521Z</time></trkpt><trkpt lat="45.7496658" lon="10.5098643"><ele>584.3333333333334</ele><time>2026-03-22T08:57:00.572Z</time></trkpt><trkpt lat="45.7495957" lon="10.5098826"><ele>584.0</ele><time>2026-03-22T08:57:20.528Z</time></trkpt><trkpt lat="45.7495158" lon="10.5098801"><ele>583.6666666666667</ele><time>2026-03-22T08:57:45.591Z</time></trkpt><trkpt lat="45.7494525" lon="10.509744"><ele>583.3333333333334</ele><time>2026-03-22T08:59:53.522Z</time></trkpt><trkpt lat="45.7495183" lon="10.5097174"><ele>583.0</ele><time>2026-03-22T08:59:56.514Z</time></trkpt><trkpt lat="45.7495904" lon="10.5096725"><ele>583.0000000000001</ele><time>2026-03-22T09:00:00.583Z</time></trkpt><trkpt lat="45.7496092" lon="10.5095841"><ele>583.0</ele><time>2026-03-22T09:00:05.507Z</time></trkpt><trkpt lat="45.7495468" lon="10.5095587"><ele>583.0</ele><time>2026-03-22T09:00:06.517Z</time></trkpt><trkpt lat="45.7494998" lon="10.5094664"><ele>583.0</ele><time>2026-03-22T09:00:11.515Z</time></trkpt><trkpt lat="45.7495296" lon="10.5093786"><ele>583.0</ele><time>2026-03-22T09:00:16.529Z</time></trkpt><trkpt lat="45.749538" lon="10.5092617"><ele>583.0000000000001</ele><time>2026-03-22T09:00:23.522Z</time></trkpt><trkpt lat="45.7495185" lon="10.5091754"><ele>583.0</ele><time>2026-03-22T09:00:27.548Z</time></trkpt><trkpt lat="45.7494774" lon="10.5090844"><ele>583.5</ele><time>2026-03-22T09:00:30.52Z</time></trkpt><trkpt lat="45.7496769" lon="10.5092645"><ele>584.0</ele><time>2026-03-22T09:00:45.56Z</time></trkpt><trkpt lat="45.7497355" lon="10.5093385"><ele>584.5</ele><time>2026-03-22T09:00:49.517Z</time></trkpt><trkpt lat="45.7498245" lon="10.5093913"><ele>585.0</ele><time>2026-03-22T09:00:53.512Z</time></trkpt><trkpt lat="45.7499016" lon="10.5094394"><ele>585.0</ele><time>2026-03-22T09:00:55.512Z</time></trkpt><trkpt lat="45.7500258" lon="10.5094936"><ele>585.0</ele><time>2026-03-22T09:00:57.523Z</time></trkpt><trkpt lat="45.7499606" lon="10.5095709"><ele>585.0</ele><time>2026-03-22T09:01:02.563Z</time></trkpt><trkpt lat="45.7498947" lon="10.5096116"><ele>585.0</ele><time>2026-03-22T09:01:05.528Z</time></trkpt><trkpt lat="45.7498343" lon="10.5096761"><ele>585.0</ele><time>2026-03-22T09:01:09.57Z</time></trkpt><trkpt lat="45.7498923" lon="10.5097577"><ele>585.0</ele><time>2026-03-22T09:01:12.567Z</time></trkpt><trkpt lat="45.7499501" lon="10.5098084"><ele>584.6</ele><time>2026-03-22T09:01:14.568Z</time></trkpt><trkpt lat="45.7499222" lon="10.5099017"><ele>584.2</ele><time>2026-03-22T09:01:20.574Z</time></trkpt><trkpt lat="45.7499077" lon="10.5100021"><ele>583.8</ele><time>2026-03-22T09:01:25.573Z</time></trkpt><trkpt lat="45.7499024" lon="10.5100998"><ele>583.4</ele><time>2026-03-22T09:01:32.571Z</time></trkpt><trkpt lat="45.749992" lon="10.510177"><ele>583.0</ele><time>2026-03-22T09:01:37.575Z</time></trkpt><trkpt lat="45.7502217" lon="10.5102924"><ele>584.75</ele><time>2026-03-22T09:01:38.595Z</time></trkpt><trkpt lat="45.7500377" lon="10.5104721"><ele>586.5</ele><time>2026-03-22T09:01:52.515Z</time></trkpt><trkpt lat="45.7501034" lon="10.5105238"><ele>588.25</ele><time>2026-03-22T09:01:54.565Z</time></trkpt><trkpt lat="45.7501662" lon="10.5105987"><ele>590.0</ele><time>2026-03-22T09:01:57.522Z</time></trkpt><trkpt lat="45.7504125" lon="10.5107359"><ele>590.0000000000001</ele><time>2026-03-22T09:01:59.514Z</time></trkpt><trkpt lat="45.7503494" lon="10.5107715"><ele>590.0</ele><time>2026-03-22T09:02:03.573Z</time></trkpt><trkpt lat="45.7502781" lon="10.5107908"><ele>590.0</ele><time>2026-03-22T09:02:05.527Z</time></trkpt><trkpt lat="45.7501843" lon="10.5108104"><ele>590.0</ele><time>2026-03-22T09:02:07.515Z</time></trkpt><trkpt lat="45.7501258" lon="10.5108535"><ele>590.0</ele><time>2026-03-22T09:02:10.552Z</time></trkpt><trkpt lat="45.7500876" lon="10.5109504"><ele>590.0000000000001</ele><time>2026-03-22T09:02:15.525Z</time></trkpt><trkpt lat="45.7500244" lon="10.510971"><ele>590.0</ele><time>2026-03-22T09:02:17.511Z</time></trkpt><trkpt lat="45.750114" lon="10.511044"><ele>590.0</ele><time>2026-03-22T09:02:20.557Z</time></trkpt><trkpt lat="45.7501679" lon="10.5110951"><ele>590.0</ele><time>2026-03-22T09:02:23.525Z</time></trkpt><trkpt lat="45.7502331" lon="10.5111539"><ele>590.0</ele><time>2026-03-22T09:02:26.516Z</time></trkpt><trkpt lat="45.750276" lon="10.511255"><ele>590.0</ele><time>2026-03-22T09:02:31.569Z</time></trkpt><trkpt lat="45.7503433" lon="10.5113371"><ele>590.0</ele><time>2026-03-22T09:02:36.508Z</time></trkpt><trkpt lat="45.7503333" lon="10.5114356"><ele>590.0</ele><time>2026-03-22T09:02:41.571Z</time></trkpt><trkpt lat="45.7502344" lon="10.511475"><ele>588.2857142857143</ele><time>2026-03-22T09:02:44.521Z</time></trkpt><trkpt lat="45.7501681" lon="10.5114983"><ele>586.5714285714286</ele><time>2026-03-22T09:02:46.565Z</time></trkpt><trkpt lat="45.7501072" lon="10.5115619"><ele>584.8571428571429</ele><time>2026-03-22T09:02:51.513Z</time></trkpt><trkpt lat="45.7500206" lon="10.5116088"><ele>583.1428571428571</ele><time>2026-03-22T09:02:55.56Z</time></trkpt><trkpt lat="45.750074" lon="10.5116736"><ele>581.4285714285714</ele><time>2026-03-22T09:02:58.526Z</time></trkpt><trkpt lat="45.750103" lon="10.5117606"><ele>579.7142857142858</ele><time>2026-03-22T09:03:03.577Z</time></trkpt><trkpt lat="45.7500714" lon="10.5118454"><ele>578.0</ele><time>2026-03-22T09:03:09.515Z</time></trkpt><trkpt lat="45.7501313" lon="10.5119035"><ele>578.0</ele><time>2026-03-22T09:03:12.577Z</time></trkpt><trkpt lat="45.7501961" lon="10.5119601"><ele>578.0</ele><time>2026-03-22T09:03:15.57Z</time></trkpt><trkpt lat="45.7501957" lon="10.5120521"><ele>578.0</ele><time>2026-03-22T09:03:22.583Z</time></trkpt><trkpt lat="45.7502481" lon="10.5121225"><ele>578.0</ele><time>2026-03-22T09:03:27.513Z</time></trkpt><trkpt lat="45.7502834" lon="10.5121985"><ele>578.0</ele><time>2026-03-22T09:03:31.557Z</time></trkpt><trkpt lat="45.7503008" lon="10.512292"><ele>578.0</ele><time>2026-03-22T09:03:35.529Z</time></trkpt><trkpt lat="45.7503446" lon="10.5123742"><ele>578.0</ele><time>2026-03-22T09:03:40.556Z</time></trkpt><trkpt lat="45.7503889" lon="10.5124539"><ele>582.1428571428571</ele><time>2026-03-22T09:03:46.511Z</time></trkpt><trkpt lat="45.7504079" lon="10.5125477"><ele>586.2857142857142</ele><time>2026-03-22T09:03:53.522Z</time></trkpt><trkpt lat="45.7504542" lon="10.5126335"><ele>590.4285714285713</ele><time>2026-03-22T09:03:58.585Z</time></trkpt><trkpt lat="45.7504939" lon="10.5127106"><ele>594.5714285714286</ele><time>2026-03-22T09:04:04.516Z</time></trkpt><trkpt lat="45.7505042" lon="10.5128058"><ele>598.7142857142857</ele><time>2026-03-22T09:04:09.57Z</time></trkpt><trkpt lat="45.7505391" lon="10.5128858"><ele>602.8571428571428</ele><time>2026-03-22T09:04:13.516Z</time></trkpt><trkpt lat="45.7505725" lon="10.5129633"><ele>607.0</ele><time>2026-03-22T09:04:17.568Z</time></trkpt><trkpt lat="45.7506285" lon="10.5130625"><ele>606.9999999999999</ele><time>2026-03-22T09:04:21.51Z</time></trkpt><trkpt lat="45.7506728" lon="10.5131409"><ele>607.0</ele><time>2026-03-22T09:04:26.588Z</time></trkpt><trkpt lat="45.7507175" lon="10.5132217"><ele>607.0</ele><time>2026-03-22T09:04:30.517Z</time></trkpt><trkpt lat="45.7507556" lon="10.5132945"><ele>607.0</ele><time>2026-03-22T09:04:34.572Z</time></trkpt><trkpt lat="45.7507346" lon="10.513381"><ele>607.0</ele><time>2026-03-22T09:04:40.515Z</time></trkpt><trkpt lat="45.7507592" lon="10.5134778"><ele>606.9999999999999</ele><time>2026-03-22T09:04:46.527Z</time></trkpt><trkpt lat="45.750718" lon="10.5135575"><ele>607.0</ele><time>2026-03-22T09:04:51.611Z</time></trkpt><trkpt lat="45.7507308" lon="10.5136505"><ele>606.8571428571428</ele><time>2026-03-22T09:04:56.53Z</time></trkpt><trkpt lat="45.7507591" lon="10.5137514"><ele>606.7142857142857</ele><time>2026-03-22T09:05:01.572Z</time></trkpt><trkpt lat="45.7507684" lon="10.5138446"><ele>606.5714285714286</ele><time>2026-03-22T09:05:07.518Z</time></trkpt><trkpt lat="45.7507975" lon="10.5139422"><ele>606.4285714285713</ele><time>2026-03-22T09:05:12.56Z</time></trkpt><trkpt lat="45.7507965" lon="10.5140399"><ele>606.2857142857142</ele><time>2026-03-22T09:05:17.519Z</time></trkpt><trkpt lat="45.7507917" lon="10.5141313"><ele>606.1428571428571</ele><time>2026-03-22T09:05:21.548Z</time></trkpt><trkpt lat="45.7507711" lon="10.5142334"><ele>606.0</ele><time>2026-03-22T09:05:26.517Z</time></trkpt><trkpt lat="45.7507937" lon="10.5143325"><ele>606.0</ele><time>2026-03-22T09:05:31.528Z</time></trkpt><trkpt lat="45.7508468" lon="10.5143893"><ele>606.0</ele><time>2026-03-22T09:05:37.605Z</time></trkpt><trkpt lat="45.750854" lon="10.5142852"><ele>606.0</ele><time>2026-03-22T09:05:46.56Z</time></trkpt><trkpt lat="45.7508599" lon="10.5141948"><ele>606.0</ele><time>2026-03-22T09:05:51.513Z</time></trkpt><trkpt lat="45.7508788" lon="10.5140992"><ele>606.0</ele><time>2026-03-22T09:05:56.572Z</time></trkpt><trkpt lat="45.7508813" lon="10.5139978"><ele>606.0</ele><time>2026-03-22T09:06:01.567Z</time></trkpt><trkpt lat="45.7508566" lon="10.5139119"><ele>606.0</ele><time>2026-03-22T09:06:06.522Z</time></trkpt><trkpt lat="45.7508555" lon="10.5138125"><ele>606.1428571428571</ele><time>2026-03-22T09:06:11.574Z</time></trkpt><trkpt lat="45.7508766" lon="10.5137144"><ele>606.2857142857142</ele><time>2026-03-22T09:06:16.58Z</time></trkpt><trkpt lat="45.7508919" lon="10.5136195"><ele>606.4285714285713</ele><time>2026-03-22T09:06:21.561Z</time></trkpt><trkpt lat="45.7509422" lon="10.51353"><ele>606.5714285714286</ele><time>2026-03-22T09:06:26.574Z</time></trkpt><trkpt lat="45.7510009" lon="10.5134925"><ele>606.7142857142857</ele><time>2026-03-22T09:06:29.6Z</time></trkpt><trkpt lat="45.7510479" lon="10.5135622"><ele>606.8571428571428</ele><time>2026-03-22T09:06:36.588Z</time></trkpt><trkpt lat="45.7510522" lon="10.5136539"><ele>607.0</ele><time>2026-03-22T09:06:42.581Z</time></trkpt><trkpt lat="45.7510499" lon="10.5137587"><ele>613.7142857142857</ele><time>2026-03-22T09:06:50.51Z</time></trkpt><trkpt lat="45.7510508" lon="10.5138559"><ele>620.4285714285714</ele><time>2026-03-22T09:06:55.523Z</time></trkpt><trkpt lat="45.7510852" lon="10.5139496"><ele>627.1428571428571</ele><time>2026-03-22T09:07:00.557Z</time></trkpt><trkpt lat="45.7511062" lon="10.51405"><ele>633.8571428571429</ele><time>2026-03-22T09:07:05.567Z</time></trkpt><trkpt lat="45.7511198" lon="10.514146"><ele>640.5714285714286</ele><time>2026-03-22T09:07:09.559Z</time></trkpt><trkpt lat="45.7511388" lon="10.5142464"><ele>647.2857142857142</ele><time>2026-03-22T09:07:13.553Z</time></trkpt><trkpt lat="45.7511477" lon="10.5143454"><ele>654.0</ele><time>2026-03-22T09:07:17.567Z</time></trkpt><trkpt lat="45.7511149" lon="10.5144355"><ele>654.0</ele><time>2026-03-22T09:07:20.548Z</time></trkpt><trkpt lat="45.7510805" lon="10.5145336"><ele>654.0</ele><time>2026-03-22T09:07:24.579Z</time></trkpt><trkpt lat="45.751043" lon="10.5146094"><ele>654.0</ele><time>2026-03-22T09:07:28.603Z</time></trkpt><trkpt lat="45.7509922" lon="10.5146933"><ele>654.0</ele><time>2026-03-22T09:07:33.571Z</time></trkpt><trkpt lat="45.7509285" lon="10.5147709"><ele>654.0</ele><time>2026-03-22T09:07:38.577Z</time></trkpt><trkpt lat="45.7508676" lon="10.5148281"><ele>654.0</ele><time>2026-03-22T09:07:42.587Z</time></trkpt><trkpt lat="45.7508131" lon="10.5148949"><ele>654.0</ele><time>2026-03-22T09:07:46.557Z</time></trkpt><trkpt lat="45.7507875" lon="10.51499"><ele>652.1428571428571</ele><time>2026-03-22T09:07:51.544Z</time></trkpt><trkpt lat="45.7507404" lon="10.5150739"><ele>650.2857142857143</ele><time>2026-03-22T09:07:56.523Z</time></trkpt><trkpt lat="45.7507052" lon="10.5151578"><ele>648.4285714285714</ele><time>2026-03-22T09:08:00.57Z</time></trkpt><trkpt lat="45.7506786" lon="10.5152413"><ele>646.5714285714286</ele><time>2026-03-22T09:08:04.524Z</time></trkpt><trkpt lat="45.7506757" lon="10.5153381"><ele>644.7142857142857</ele><time>2026-03-22T09:08:08.516Z</time></trkpt><trkpt lat="45.750684" lon="10.5154381"><ele>642.8571428571429</ele><time>2026-03-22T09:08:13.576Z</time></trkpt><trkpt lat="45.7506743" lon="10.5155323"><ele>641.0</ele><time>2026-03-22T09:08:18.517Z</time></trkpt><trkpt lat="45.7506388" lon="10.5156125"><ele>641.0</ele><time>2026-03-22T09:08:23.56Z</time></trkpt><trkpt lat="45.7506273" lon="10.5157178"><ele>641.0</ele><time>2026-03-22T09:08:29.521Z</time></trkpt><trkpt lat="45.7506254" lon="10.5158247"><ele>641.0</ele><time>2026-03-22T09:08:35.559Z</time></trkpt><trkpt lat="45.750611" lon="10.5159195"><ele>641.0</ele><time>2026-03-22T09:08:40.552Z</time></trkpt><trkpt lat="45.7506035" lon="10.51602"><ele>641.0</ele><time>2026-03-22T09:08:45.564Z</time></trkpt><trkpt lat="45.7505962" lon="10.5161114"><ele>641.0</ele><time>2026-03-22T09:08:50.568Z</time></trkpt><trkpt lat="45.7505766" lon="10.5162088"><ele>641.0</ele><time>2026-03-22T09:08:55.571Z</time></trkpt><trkpt lat="45.7505604" lon="10.5163082"><ele>644.4285714285714</ele><time>2026-03-22T09:09:00.571Z</time></trkpt><trkpt lat="45.7505573" lon="10.5164141"><ele>647.8571428571429</ele><time>2026-03-22T09:09:05.569Z</time></trkpt><trkpt lat="45.7505412" lon="10.5165109"><ele>651.2857142857142</ele><time>2026-03-22T09:09:10.57Z</time></trkpt><trkpt lat="45.7505321" lon="10.5166038"><ele>654.7142857142858</ele><time>2026-03-22T09:09:15.569Z</time></trkpt><trkpt lat="45.7505148" lon="10.516711"><ele>658.1428571428571</ele><time>2026-03-22T09:09:21.517Z</time></trkpt><trkpt lat="45.7504927" lon="10.5168011"><ele>661.5714285714286</ele><time>2026-03-22T09:09:26.58Z</time></trkpt><trkpt lat="45.7504965" lon="10.5168928"><ele>665.0</ele><time>2026-03-22T09:09:31.517Z</time></trkpt><trkpt lat="45.750461" lon="10.516968"><ele>665.0</ele><time>2026-03-22T09:09:36.532Z</time></trkpt><trkpt lat="45.750435" lon="10.5170598"><ele>665.0</ele><time>2026-03-22T09:09:41.541Z</time></trkpt><trkpt lat="45.7504301" lon="10.5171596"><ele>665.0</ele><time>2026-03-22T09:09:46.518Z</time></trkpt><trkpt lat="45.7504203" lon="10.5172565"><ele>665.0</ele><time>2026-03-22T09:09:51.547Z</time></trkpt><trkpt lat="45.750438" lon="10.5173555"><ele>665.0</ele><time>2026-03-22T09:09:57.566Z</time></trkpt><trkpt lat="45.7504444" lon="10.5174514"><ele>665.0</ele><time>2026-03-22T09:10:03.517Z</time></trkpt><trkpt lat="45.7504509" lon="10.5175554"><ele>665.0</ele><time>2026-03-22T09:10:09.548Z</time></trkpt><trkpt lat="45.7504583" lon="10.5176536"><ele>666.5714285714286</ele><time>2026-03-22T09:10:15.507Z</time></trkpt><trkpt lat="45.7504477" lon="10.5177541"><ele>668.1428571428571</ele><time>2026-03-22T09:10:21.516Z</time></trkpt><trkpt lat="45.7504601" lon="10.5178447"><ele>669.7142857142858</ele><time>2026-03-22T09:10:26.521Z</time></trkpt><trkpt lat="45.7504696" lon="10.5179444"><ele>671.2857142857142</ele><time>2026-03-22T09:10:32.512Z</time></trkpt><trkpt lat="45.7504273" lon="10.5180201"><ele>672.8571428571429</ele><time>2026-03-22T09:10:36.518Z</time></trkpt><trkpt lat="45.7504484" lon="10.5181165"><ele>674.4285714285714</ele><time>2026-03-22T09:10:41.555Z</time></trkpt><trkpt lat="45.7503928" lon="10.5182102"><ele>676.0</ele><time>2026-03-22T09:10:48.526Z</time></trkpt><trkpt lat="45.750405" lon="10.518311"><ele>676.7142857142858</ele><time>2026-03-22T09:10:53.515Z</time></trkpt><trkpt lat="45.7504239" lon="10.5183979"><ele>677.4285714285714</ele><time>2026-03-22T09:10:58.565Z</time></trkpt><trkpt lat="45.750434" lon="10.5184949"><ele>678.1428571428571</ele><time>2026-03-22T09:11:03.528Z</time></trkpt><trkpt lat="45.7504792" lon="10.518559"><ele>678.8571428571429</ele><time>2026-03-22T09:11:06.517Z</time></trkpt><trkpt lat="45.7505391" lon="10.5186325"><ele>679.5714285714286</ele><time>2026-03-22T09:11:09.575Z</time></trkpt><trkpt lat="45.7505751" lon="10.5187068"><ele>680.2857142857143</ele><time>2026-03-22T09:11:13.52Z</time></trkpt><trkpt lat="45.7505544" lon="10.5188012"><ele>681.0</ele><time>2026-03-22T09:11:19.607Z</time></trkpt><trkpt lat="45.7504961" lon="10.5188546"><ele>681.1428571428572</ele><time>2026-03-22T09:11:22.512Z</time></trkpt><trkpt lat="45.7505333" lon="10.5189566"><ele>681.2857142857143</ele><time>2026-03-22T09:11:27.569Z</time></trkpt><trkpt lat="45.7505353" lon="10.5190538"><ele>681.4285714285714</ele><time>2026-03-22T09:11:32.517Z</time></trkpt><trkpt lat="45.7505433" lon="10.5191488"><ele>681.5714285714287</ele><time>2026-03-22T09:11:37.581Z</time></trkpt><trkpt lat="45.7505295" lon="10.5192544"><ele>681.7142857142858</ele><time>2026-03-22T09:11:42.517Z</time></trkpt><trkpt lat="45.7504767" lon="10.5193092"><ele>681.8571428571429</ele><time>2026-03-22T09:11:45.564Z</time></trkpt><trkpt lat="45.7504918" lon="10.5193976"><ele>682.0</ele><time>2026-03-22T09:11:49.517Z</time></trkpt><trkpt lat="45.7504294" lon="10.5194611"><ele>682.0</ele><time>2026-03-22T09:11:53.564Z</time></trkpt><trkpt lat="45.7503758" lon="10.519522"><ele>682.0</ele><time>2026-03-22T09:11:57.524Z</time></trkpt><trkpt lat="45.7503113" lon="10.5195963"><ele>682.0</ele><time>2026-03-22T09:12:02.566Z</time></trkpt><trkpt lat="45.7502469" lon="10.5196579"><ele>682.0</ele><time>2026-03-22T09:12:06.576Z</time></trkpt><trkpt lat="45.7502015" lon="10.5197216"><ele>682.0</ele><time>2026-03-22T09:12:10.543Z</time></trkpt><trkpt lat="45.7501866" lon="10.5198272"><ele>682.0</ele><time>2026-03-22T09:12:48.559Z</time></trkpt><trkpt lat="45.7501766" lon="10.5199196"><ele>682.0</ele><time>2026-03-22T09:12:52.514Z</time></trkpt><trkpt lat="45.7501307" lon="10.5200389"><ele>682.7142857142857</ele><time>2026-03-22T09:12:57.554Z</time></trkpt><trkpt lat="45.7501052" lon="10.520133"><ele>683.4285714285714</ele><time>2026-03-22T09:13:01.519Z</time></trkpt><trkpt lat="45.7500663" lon="10.5202105"><ele>684.1428571428571</ele><time>2026-03-22T09:13:05.568Z</time></trkpt><trkpt lat="45.7500353" lon="10.5202976"><ele>684.8571428571429</ele><time>2026-03-22T09:13:09.564Z</time></trkpt><trkpt lat="45.7500068" lon="10.5203928"><ele>685.5714285714286</ele><time>2026-03-22T09:13:13.56Z</time></trkpt><trkpt lat="45.74999" lon="10.5204845"><ele>686.2857142857143</ele><time>2026-03-22T09:13:17.568Z</time></trkpt><trkpt lat="45.7499582" lon="10.5205967"><ele>687.0</ele><time>2026-03-22T09:13:22.579Z</time></trkpt><trkpt lat="45.749925" lon="10.5206854"><ele>687.0</ele><time>2026-03-22T09:13:26.589Z</time></trkpt><trkpt lat="45.7498829" lon="10.5207741"><ele>687.0</ele><time>2026-03-22T09:13:30.558Z</time></trkpt><trkpt lat="45.7498406" lon="10.5208486"><ele>687.0</ele><time>2026-03-22T09:13:34.584Z</time></trkpt><trkpt lat="45.7497918" lon="10.5209227"><ele>687.0</ele><time>2026-03-22T09:13:38.576Z</time></trkpt><trkpt lat="45.7497407" lon="10.5209965"><ele>687.0</ele><time>2026-03-22T09:13:42.637Z</time></trkpt><trkpt lat="45.7496868" lon="10.5210722"><ele>687.0</ele><time>2026-03-22T09:13:46.553Z</time></trkpt><trkpt lat="45.7496299" lon="10.5211534"><ele>687.0</ele><time>2026-03-22T09:13:50.641Z</time></trkpt><trkpt lat="45.7495753" lon="10.5212268"><ele>687.8571428571429</ele><time>2026-03-22T09:13:55.601Z</time></trkpt><trkpt lat="45.7495227" lon="10.5212945"><ele>688.7142857142857</ele><time>2026-03-22T09:13:59.53Z</time></trkpt><trkpt lat="45.7494806" lon="10.5213653"><ele>689.5714285714286</ele><time>2026-03-22T09:14:03.522Z</time></trkpt><trkpt lat="45.7494299" lon="10.5214514"><ele>690.4285714285714</ele><time>2026-03-22T09:14:08.616Z</time></trkpt><trkpt lat="45.7494033" lon="10.5215468"><ele>691.2857142857142</ele><time>2026-03-22T09:14:14.557Z</time></trkpt><trkpt lat="45.7493666" lon="10.5216405"><ele>692.1428571428571</ele><time>2026-03-22T09:14:19.58Z</time></trkpt><trkpt lat="45.7493111" lon="10.5216867"><ele>693.0</ele><time>2026-03-22T09:14:23.582Z</time></trkpt><trkpt lat="45.7492642" lon="10.5217508"><ele>693.2857142857143</ele><time>2026-03-22T09:14:27.623Z</time></trkpt><trkpt lat="45.7492023" lon="10.5218153"><ele>693.5714285714286</ele><time>2026-03-22T09:14:32.56Z</time></trkpt><trkpt lat="45.7491421" lon="10.5218744"><ele>693.8571428571429</ele><time>2026-03-22T09:14:37.563Z</time></trkpt><trkpt lat="45.7490917" lon="10.5219586"><ele>694.1428571428571</ele><time>2026-03-22T09:14:42.547Z</time></trkpt><trkpt lat="45.7490453" lon="10.5220266"><ele>694.4285714285714</ele><time>2026-03-22T09:14:46.557Z</time></trkpt><trkpt lat="45.7489772" lon="10.522069"><ele>694.7142857142858</ele><time>2026-03-22T09:14:50.594Z</time></trkpt><trkpt lat="45.7489382" lon="10.5221523"><ele>695.0</ele><time>2026-03-22T09:14:55.551Z</time></trkpt><trkpt lat="45.7488941" lon="10.5222248"><ele>695.0000000000001</ele><time>2026-03-22T09:15:01.519Z</time></trkpt><trkpt lat="45.7488464" lon="10.5222964"><ele>695.0</ele><time>2026-03-22T09:15:06.514Z</time></trkpt><trkpt lat="45.7487903" lon="10.5223452"><ele>695.0</ele><time>2026-03-22T09:15:11.563Z</time></trkpt><trkpt lat="45.7487373" lon="10.5224076"><ele>695.0</ele><time>2026-03-22T09:15:16.584Z</time></trkpt><trkpt lat="45.7487009" lon="10.5224883"><ele>695.0</ele><time>2026-03-22T09:15:23.508Z</time></trkpt><trkpt lat="45.7486502" lon="10.5225684"><ele>695.0000000000001</ele><time>2026-03-22T09:15:29.532Z</time></trkpt><trkpt lat="45.7486075" lon="10.522646"><ele>695.0</ele><time>2026-03-22T09:15:35.624Z</time></trkpt><trkpt lat="45.7485273" lon="10.5227048"><ele>693.5714285714287</ele><time>2026-03-22T09:15:40.548Z</time></trkpt><trkpt lat="45.7484674" lon="10.5227356"><ele>692.1428571428571</ele><time>2026-03-22T09:15:44.617Z</time></trkpt><trkpt lat="45.7484116" lon="10.5228085"><ele>690.7142857142858</ele><time>2026-03-22T09:15:50.531Z</time></trkpt><trkpt lat="45.7483562" lon="10.5228636"><ele>689.2857142857143</ele><time>2026-03-22T09:15:54.567Z</time></trkpt><trkpt lat="45.7483079" lon="10.5229321"><ele>687.8571428571429</ele><time>2026-03-22T09:15:58.578Z</time></trkpt><trkpt lat="45.748259" lon="10.5229896"><ele>686.4285714285714</ele><time>2026-03-22T09:16:02.586Z</time></trkpt><trkpt lat="45.7482068" lon="10.5230401"><ele>685.0</ele><time>2026-03-22T09:16:06.578Z</time></trkpt><trkpt lat="45.7481714" lon="10.5231191"><ele>688.1428571428571</ele><time>2026-03-22T09:16:11.576Z</time></trkpt><trkpt lat="45.7481298" lon="10.5231913"><ele>691.2857142857143</ele><time>2026-03-22T09:16:15.521Z</time></trkpt><trkpt lat="45.7480943" lon="10.5232724"><ele>694.4285714285714</ele><time>2026-03-22T09:16:19.577Z</time></trkpt><trkpt lat="45.7480861" lon="10.5233637"><ele>697.5714285714286</ele><time>2026-03-22T09:16:24.553Z</time></trkpt><trkpt lat="45.7480482" lon="10.5234542"><ele>700.7142857142858</ele><time>2026-03-22T09:16:29.522Z</time></trkpt><trkpt lat="45.7480027" lon="10.5235333"><ele>703.8571428571429</ele><time>2026-03-22T09:16:34.52Z</time></trkpt><trkpt lat="45.7479842" lon="10.5236326"><ele>707.0</ele><time>2026-03-22T09:16:41.585Z</time></trkpt><trkpt lat="45.7479853" lon="10.5237269"><ele>710.0</ele><time>2026-03-22T09:16:46.511Z</time></trkpt><trkpt lat="45.7479953" lon="10.5238173"><ele>713.0</ele><time>2026-03-22T09:16:51.612Z</time></trkpt><trkpt lat="45.7479869" lon="10.5239141"><ele>716.0</ele><time>2026-03-22T09:16:56.512Z</time></trkpt><trkpt lat="45.7479677" lon="10.5240247"><ele>719.0</ele><time>2026-03-22T09:17:02.548Z</time></trkpt><trkpt lat="45.7479819" lon="10.5241253"><ele>722.0</ele><time>2026-03-22T09:17:09.565Z</time></trkpt><trkpt lat="45.747986" lon="10.5242309"><ele>725.0</ele><time>2026-03-22T09:17:15.517Z</time></trkpt><trkpt lat="45.7479802" lon="10.5243251"><ele>728.0</ele><time>2026-03-22T09:17:21.55Z</time></trkpt><trkpt lat="45.7479959" lon="10.5244156"><ele>728.0</ele><time>2026-03-22T09:17:27.556Z</time></trkpt><trkpt lat="45.7480084" lon="10.524512"><ele>728.0</ele><time>2026-03-22T09:17:32.522Z</time></trkpt><trkpt lat="45.7480388" lon="10.524598"><ele>728.0</ele><time>2026-03-22T09:17:37.561Z</time></trkpt><trkpt lat="45.7480468" lon="10.5247057"><ele>728.0</ele><time>2026-03-22T09:17:43.522Z</time></trkpt><trkpt lat="45.7480466" lon="10.5247986"><ele>728.0</ele><time>2026-03-22T09:17:48.573Z</time></trkpt><trkpt lat="45.7480007" lon="10.5248639"><ele>728.0</ele><time>2026-03-22T09:17:53.524Z</time></trkpt><trkpt lat="45.7479307" lon="10.5248904"><ele>728.0</ele><time>2026-03-22T09:17:58.528Z</time></trkpt><trkpt lat="45.747862" lon="10.524865"><ele>729.4285714285714</ele><time>2026-03-22T09:18:02.52Z</time></trkpt><trkpt lat="45.7478042" lon="10.5247946"><ele>730.8571428571429</ele><time>2026-03-22T09:18:07.574Z</time></trkpt><trkpt lat="45.7477558" lon="10.5247367"><ele>732.2857142857142</ele><time>2026-03-22T09:18:10.582Z</time></trkpt><trkpt lat="45.7477211" lon="10.5246497"><ele>733.7142857142858</ele><time>2026-03-22T09:18:15.575Z</time></trkpt><trkpt lat="45.7476926" lon="10.5245491"><ele>735.1428571428571</ele><time>2026-03-22T09:18:21.573Z</time></trkpt><trkpt lat="45.7476593" lon="10.52447"><ele>736.5714285714286</ele><time>2026-03-22T09:18:25.561Z</time></trkpt><trkpt lat="45.7476353" lon="10.5243847"><ele>738.0</ele><time>2026-03-22T09:18:30.518Z</time></trkpt><trkpt lat="45.7476142" lon="10.5242965"><ele>734.1428571428571</ele><time>2026-03-22T09:18:35.524Z</time></trkpt><trkpt lat="45.7475712" lon="10.5242086"><ele>730.2857142857142</ele><time>2026-03-22T09:18:40.546Z</time></trkpt><trkpt lat="45.7475396" lon="10.5241305"><ele>726.4285714285714</ele><time>2026-03-22T09:18:45.54Z</time></trkpt><trkpt lat="45.7474952" lon="10.5240514"><ele>722.5714285714286</ele><time>2026-03-22T09:18:50.54Z</time></trkpt><trkpt lat="45.7474415" lon="10.5239912"><ele>718.7142857142857</ele><time>2026-03-22T09:18:54.555Z</time></trkpt><trkpt lat="45.7473877" lon="10.5239387"><ele>714.8571428571429</ele><time>2026-03-22T09:18:58.566Z</time></trkpt><trkpt lat="45.7473313" lon="10.5238715"><ele>711.0</ele><time>2026-03-22T09:19:03.514Z</time></trkpt><trkpt lat="45.7472711" lon="10.523824"><ele>711.0</ele><time>2026-03-22T09:19:07.542Z</time></trkpt><trkpt lat="45.7472131" lon="10.5237813"><ele>711.0</ele><time>2026-03-22T09:19:11.563Z</time></trkpt><trkpt lat="45.7471521" lon="10.5237335"><ele>711.0</ele><time>2026-03-22T09:19:15.561Z</time></trkpt><trkpt lat="45.7470995" lon="10.5236747"><ele>711.0</ele><time>2026-03-22T09:19:20.563Z</time></trkpt><trkpt lat="45.7470432" lon="10.5236218"><ele>711.0</ele><time>2026-03-22T09:19:25.57Z</time></trkpt><trkpt lat="45.7469799" lon="10.5235666"><ele>711.0</ele><time>2026-03-22T09:19:29.574Z</time></trkpt><trkpt lat="45.7469169" lon="10.5235048"><ele>711.0</ele><time>2026-03-22T09:19:34.575Z</time></trkpt><trkpt lat="45.7468542" lon="10.5234657"><ele>712.7142857142858</ele><time>2026-03-22T09:19:38.575Z</time></trkpt><trkpt lat="45.7467863" lon="10.5234322"><ele>714.4285714285714</ele><time>2026-03-22T09:19:42.575Z</time></trkpt><trkpt lat="45.7467182" lon="10.5234122"><ele>716.1428571428571</ele><time>2026-03-22T09:19:46.52Z</time></trkpt><trkpt lat="45.7466504" lon="10.5234084"><ele>717.8571428571429</ele><time>2026-03-22T09:19:50.579Z</time></trkpt><trkpt lat="45.7466016" lon="10.5234768"><ele>719.5714285714286</ele><time>2026-03-22T09:19:56.572Z</time></trkpt><trkpt lat="45.7465953" lon="10.523569"><ele>721.2857142857143</ele><time>2026-03-22T09:20:00.567Z</time></trkpt><trkpt lat="45.7466282" lon="10.5236517"><ele>723.0</ele><time>2026-03-22T09:20:04.515Z</time></trkpt><trkpt lat="45.7466935" lon="10.5236993"><ele>721.2857142857143</ele><time>2026-03-22T09:20:11.525Z</time></trkpt><trkpt lat="45.7467478" lon="10.523778"><ele>719.5714285714286</ele><time>2026-03-22T09:20:16.519Z</time></trkpt><trkpt lat="45.7468001" lon="10.5238459"><ele>717.8571428571429</ele><time>2026-03-22T09:20:20.548Z</time></trkpt><trkpt lat="45.746855" lon="10.5239232"><ele>716.1428571428571</ele><time>2026-03-22T09:20:25.564Z</time></trkpt><trkpt lat="45.7468999" lon="10.5239976"><ele>714.4285714285714</ele><time>2026-03-22T09:20:29.57Z</time></trkpt><trkpt lat="45.7469453" lon="10.5240732"><ele>712.7142857142858</ele><time>2026-03-22T09:20:32.544Z</time></trkpt><trkpt lat="45.7469834" lon="10.5241524"><ele>711.0</ele><time>2026-03-22T09:20:36.512Z</time></trkpt><trkpt lat="45.7470282" lon="10.5242373"><ele>711.0</ele><time>2026-03-22T09:20:41.56Z</time></trkpt><trkpt lat="45.7470743" lon="10.5243156"><ele>711.0</ele><time>2026-03-22T09:20:46.559Z</time></trkpt><trkpt lat="45.7471149" lon="10.5243852"><ele>711.0</ele><time>2026-03-22T09:20:50.583Z</time></trkpt><trkpt lat="45.7471692" lon="10.5244589"><ele>711.0</ele><time>2026-03-22T09:20:55.552Z</time></trkpt><trkpt lat="45.747194" lon="10.5245498"><ele>711.0</ele><time>2026-03-22T09:21:00.562Z</time></trkpt><trkpt lat="45.747224" lon="10.5246408"><ele>711.0</ele><time>2026-03-22T09:21:07.572Z</time></trkpt><trkpt lat="45.7472538" lon="10.5247334"><ele>711.0</ele><time>2026-03-22T09:21:13.521Z</time></trkpt><trkpt lat="45.7472819" lon="10.5248329"><ele>714.0</ele><time>2026-03-22T09:21:18.543Z</time></trkpt><trkpt lat="45.7473109" lon="10.5249158"><ele>717.0</ele><time>2026-03-22T09:21:22.573Z</time></trkpt><trkpt lat="45.7473475" lon="10.5250267"><ele>720.0</ele><time>2026-03-22T09:21:28.561Z</time></trkpt><trkpt lat="45.7473929" lon="10.5251074"><ele>723.0</ele><time>2026-03-22T09:21:34.576Z</time></trkpt><trkpt lat="45.7474474" lon="10.5251791"><ele>726.0</ele><time>2026-03-22T09:21:39.535Z</time></trkpt><trkpt lat="45.7474959" lon="10.5252486"><ele>729.0</ele><time>2026-03-22T09:21:43.557Z</time></trkpt><trkpt lat="45.7475402" lon="10.5253217"><ele>732.0</ele><time>2026-03-22T09:21:47.567Z</time></trkpt><trkpt lat="45.7476007" lon="10.5254179"><ele>734.1428571428571</ele><time>2026-03-22T09:21:53.565Z</time></trkpt><trkpt lat="45.7476322" lon="10.525507"><ele>736.2857142857143</ele><time>2026-03-22T09:21:57.558Z</time></trkpt><trkpt lat="45.7476697" lon="10.5255826"><ele>738.4285714285713</ele><time>2026-03-22T09:22:00.569Z</time></trkpt><trkpt lat="45.7476994" lon="10.5256814"><ele>740.5714285714286</ele><time>2026-03-22T09:22:05.517Z</time></trkpt><trkpt lat="45.7477133" lon="10.5257757"><ele>742.7142857142857</ele><time>2026-03-22T09:22:10.559Z</time></trkpt><trkpt lat="45.7477031" lon="10.525875"><ele>744.8571428571428</ele><time>2026-03-22T09:22:14.565Z</time></trkpt><trkpt lat="45.7476968" lon="10.5259834"><ele>747.0</ele><time>2026-03-22T09:22:18.557Z</time></trkpt><trkpt lat="45.7476898" lon="10.5260931"><ele>747.2857142857142</ele><time>2026-03-22T09:22:23.518Z</time></trkpt><trkpt lat="45.7476679" lon="10.5261971"><ele>747.5714285714286</ele><time>2026-03-22T09:22:28.58Z</time></trkpt><trkpt lat="45.747653" lon="10.5262895"><ele>747.8571428571429</ele><time>2026-03-22T09:22:32.564Z</time></trkpt><trkpt lat="45.7476384" lon="10.5263805"><ele>748.1428571428571</ele><time>2026-03-22T09:22:36.566Z</time></trkpt><trkpt lat="45.7476312" lon="10.52648"><ele>748.4285714285714</ele><time>2026-03-22T09:22:40.572Z</time></trkpt><trkpt lat="45.7476304" lon="10.5265759"><ele>748.7142857142857</ele><time>2026-03-22T09:22:44.569Z</time></trkpt><trkpt lat="45.7476192" lon="10.5266725"><ele>749.0</ele><time>2026-03-22T09:22:48.582Z</time></trkpt><trkpt lat="45.7476136" lon="10.5267734"><ele>750.2857142857143</ele><time>2026-03-22T09:22:52.542Z</time></trkpt><trkpt lat="45.7475992" lon="10.5268752"><ele>751.5714285714286</ele><time>2026-03-22T09:22:56.579Z</time></trkpt><trkpt lat="45.7475766" lon="10.5269659"><ele>752.8571428571429</ele><time>2026-03-22T09:23:00.544Z</time></trkpt><trkpt lat="45.7475749" lon="10.5270672"><ele>754.1428571428571</ele><time>2026-03-22T09:23:05.559Z</time></trkpt><trkpt lat="45.7476043" lon="10.5271588"><ele>755.4285714285714</ele><time>2026-03-22T09:23:10.559Z</time></trkpt><trkpt lat="45.7476133" lon="10.5272598"><ele>756.7142857142858</ele><time>2026-03-22T09:23:15.561Z</time></trkpt><trkpt lat="45.747621" lon="10.527351"><ele>758.0</ele><time>2026-03-22T09:23:19.567Z</time></trkpt><trkpt lat="45.7476393" lon="10.5274584"><ele>758.8571428571429</ele><time>2026-03-22T09:23:24.592Z</time></trkpt><trkpt lat="45.7476366" lon="10.5275567"><ele>759.7142857142858</ele><time>2026-03-22T09:23:28.569Z</time></trkpt><trkpt lat="45.7476067" lon="10.5276375"><ele>760.5714285714287</ele><time>2026-03-22T09:23:32.562Z</time></trkpt><trkpt lat="45.7475303" lon="10.5276196"><ele>761.4285714285714</ele><time>2026-03-22T09:23:37.565Z</time></trkpt><trkpt lat="45.7475006" lon="10.5275379"><ele>762.2857142857142</ele><time>2026-03-22T09:23:41.571Z</time></trkpt><trkpt lat="45.7474887" lon="10.5274466"><ele>763.1428571428572</ele><time>2026-03-22T09:23:45.569Z</time></trkpt><trkpt lat="45.7474625" lon="10.5273634"><ele>764.0</ele><time>2026-03-22T09:23:49.574Z</time></trkpt><trkpt lat="45.7474327" lon="10.5272783"><ele>764.0</ele><time>2026-03-22T09:23:53.573Z</time></trkpt><trkpt lat="45.7474127" lon="10.5271735"><ele>764.0</ele><time>2026-03-22T09:23:58.578Z</time></trkpt><trkpt lat="45.7474037" lon="10.5270759"><ele>764.0</ele><time>2026-03-22T09:24:02.564Z</time></trkpt><trkpt lat="45.7473959" lon="10.5269671"><ele>764.0</ele><time>2026-03-22T09:24:07.595Z</time></trkpt><trkpt lat="45.7473735" lon="10.526877"><ele>764.0</ele><time>2026-03-22T09:24:11.537Z</time></trkpt><trkpt lat="45.7473557" lon="10.5267865"><ele>764.0</ele><time>2026-03-22T09:24:15.549Z</time></trkpt><trkpt lat="45.7473341" lon="10.5266974"><ele>764.0</ele><time>2026-03-22T09:24:19.535Z</time></trkpt><trkpt lat="45.7473152" lon="10.5265974"><ele>763.1428571428572</ele><time>2026-03-22T09:24:23.558Z</time></trkpt><trkpt lat="45.7473072" lon="10.5264886"><ele>762.2857142857142</ele><time>2026-03-22T09:24:28.563Z</time></trkpt><trkpt lat="45.7472932" lon="10.5263985"><ele>761.4285714285714</ele><time>2026-03-22T09:24:32.562Z</time></trkpt><trkpt lat="45.7472783" lon="10.5263021"><ele>760.5714285714287</ele><time>2026-03-22T09:24:36.546Z</time></trkpt><trkpt lat="45.7472727" lon="10.5262041"><ele>759.7142857142858</ele><time>2026-03-22T09:24:40.553Z</time></trkpt><trkpt lat="45.7472665" lon="10.5261026"><ele>758.8571428571429</ele><time>2026-03-22T09:24:45.56Z</time></trkpt><trkpt lat="45.7472174" lon="10.5260173"><ele>758.0</ele><time>2026-03-22T09:24:50.547Z</time></trkpt><trkpt lat="45.7471571" lon="10.5259739"><ele>758.0000000000001</ele><time>2026-03-22T09:24:55.6Z</time></trkpt><trkpt lat="45.7470945" lon="10.5259956"><ele>758.0</ele><time>2026-03-22T09:24:59.524Z</time></trkpt><trkpt lat="45.7470466" lon="10.5260672"><ele>758.0</ele><time>2026-03-22T09:25:03.522Z</time></trkpt><trkpt lat="45.7470387" lon="10.5261714"><ele>758.0</ele><time>2026-03-22T09:25:08.561Z</time></trkpt><trkpt lat="45.7470543" lon="10.5262843"><ele>758.0</ele><time>2026-03-22T09:25:13.573Z</time></trkpt><trkpt lat="45.7470631" lon="10.5263882"><ele>758.0000000000001</ele><time>2026-03-22T09:25:17.532Z</time></trkpt><trkpt lat="45.7470806" lon="10.5264842"><ele>758.0</ele><time>2026-03-22T09:25:21.557Z</time></trkpt><trkpt lat="45.7470932" lon="10.5265752"><ele>758.0000000000001</ele><time>2026-03-22T09:25:25.564Z</time></trkpt><trkpt lat="45.7471105" lon="10.5266657"><ele>758.0</ele><time>2026-03-22T09:25:29.563Z</time></trkpt><trkpt lat="45.7471013" lon="10.5267554"><ele>758.0</ele><time>2026-03-22T09:25:33.55Z</time></trkpt><trkpt lat="45.7470896" lon="10.5268621"><ele>758.0</ele><time>2026-03-22T09:25:37.597Z</time></trkpt><trkpt lat="45.7470922" lon="10.526954"><ele>758.0</ele><time>2026-03-22T09:25:41.563Z</time></trkpt><trkpt lat="45.7471042" lon="10.5270625"><ele>758.0000000000001</ele><time>2026-03-22T09:25:46.566Z</time></trkpt><trkpt lat="45.7471074" lon="10.5271614"><ele>758.0</ele><time>2026-03-22T09:25:50.572Z</time></trkpt><trkpt lat="45.7471084" lon="10.5272724"><ele>758.8571428571429</ele><time>2026-03-22T09:25:55.574Z</time></trkpt><trkpt lat="45.7471276" lon="10.5273687"><ele>759.7142857142858</ele><time>2026-03-22T09:25:59.548Z</time></trkpt><trkpt lat="45.7471403" lon="10.5274802"><ele>760.5714285714287</ele><time>2026-03-22T09:26:03.571Z</time></trkpt><trkpt lat="45.7471466" lon="10.52757"><ele>761.4285714285714</ele><time>2026-03-22T09:26:07.591Z</time></trkpt><trkpt lat="45.7471535" lon="10.5276672"><ele>762.2857142857142</ele><time>2026-03-22T09:26:11.554Z</time></trkpt><trkpt lat="45.7471624" lon="10.5277807"><ele>763.1428571428572</ele><time>2026-03-22T09:26:15.602Z</time></trkpt><trkpt lat="45.7471914" lon="10.5278756"><ele>764.0</ele><time>2026-03-22T09:26:20.583Z</time></trkpt><trkpt lat="45.7472088" lon="10.5279742"><ele>766.8571428571429</ele><time>2026-03-22T09:26:25.582Z</time></trkpt><trkpt lat="45.7472494" lon="10.5280647"><ele>769.7142857142857</ele><time>2026-03-22T09:26:30.588Z</time></trkpt><trkpt lat="45.7472949" lon="10.5281456"><ele>772.5714285714286</ele><time>2026-03-22T09:26:35.587Z</time></trkpt><trkpt lat="45.7473394" lon="10.5282356"><ele>775.4285714285714</ele><time>2026-03-22T09:26:41.532Z</time></trkpt><trkpt lat="45.7473763" lon="10.5283188"><ele>778.2857142857142</ele><time>2026-03-22T09:26:45.565Z</time></trkpt><trkpt lat="45.7473953" lon="10.5284199"><ele>781.1428571428571</ele><time>2026-03-22T09:26:50.563Z</time></trkpt><trkpt lat="45.7474336" lon="10.5285034"><ele>784.0</ele><time>2026-03-22T09:26:56.564Z</time></trkpt><trkpt lat="45.7474695" lon="10.528583"><ele>784.0</ele><time>2026-03-22T09:27:01.578Z</time></trkpt><trkpt lat="45.7475049" lon="10.5286761"><ele>784.0</ele><time>2026-03-22T09:27:06.58Z</time></trkpt><trkpt lat="45.7475437" lon="10.528763"><ele>784.0</ele><time>2026-03-22T09:27:10.579Z</time></trkpt><trkpt lat="45.7475826" lon="10.5288367"><ele>784.0</ele><time>2026-03-22T09:27:16.576Z</time></trkpt><trkpt lat="45.7476258" lon="10.5289105"><ele>784.0</ele><time>2026-03-22T09:27:21.565Z</time></trkpt><trkpt lat="45.7476709" lon="10.5289841"><ele>784.0</ele><time>2026-03-22T09:27:27.513Z</time></trkpt><trkpt lat="45.7476764" lon="10.5290756"><ele>784.0</ele><time>2026-03-22T09:36:26.532Z</time></trkpt><trkpt lat="45.7476872" lon="10.5291826"><ele>786.9999999999999</ele><time>2026-03-22T09:36:54.527Z</time></trkpt><trkpt lat="45.7476909" lon="10.5292851"><ele>790.0</ele><time>2026-03-22T09:37:01.581Z</time></trkpt><trkpt lat="45.7476783" lon="10.5293909"><ele>793.0</ele><time>2026-03-22T09:37:31.562Z</time></trkpt><trkpt lat="45.7476355" lon="10.5295598"><ele>796.0</ele><time>2026-03-22T09:37:35.547Z</time></trkpt><trkpt lat="45.7475999" lon="10.529651"><ele>798.9999999999999</ele><time>2026-03-22T09:37:38.582Z</time></trkpt><trkpt lat="45.7475452" lon="10.5296957"><ele>802.0</ele><time>2026-03-22T09:37:45.576Z</time></trkpt><trkpt lat="45.7473953" lon="10.5295277"><ele>802.0</ele><time>2026-03-22T09:37:50.527Z</time></trkpt><trkpt lat="45.747335" lon="10.5294582"><ele>802.0</ele><time>2026-03-22T09:37:54.571Z</time></trkpt><trkpt lat="45.7472771" lon="10.5294227"><ele>802.0</ele><time>2026-03-22T09:37:58.586Z</time></trkpt><trkpt lat="45.7472133" lon="10.5294153"><ele>802.0</ele><time>2026-03-22T09:38:02.58Z</time></trkpt><trkpt lat="45.7471623" lon="10.5294817"><ele>802.0</ele><time>2026-03-22T09:38:07.589Z</time></trkpt><trkpt lat="45.747156" lon="10.5295821"><ele>802.0</ele><time>2026-03-22T09:38:11.588Z</time></trkpt><trkpt lat="45.7471903" lon="10.5296731"><ele>802.0</ele><time>2026-03-22T09:38:15.604Z</time></trkpt><trkpt lat="45.7472392" lon="10.529737"><ele>804.4999999999999</ele><time>2026-03-22T09:38:18.588Z</time></trkpt><trkpt lat="45.7472964" lon="10.5297827"><ele>807.0</ele><time>2026-03-22T09:38:21.591Z</time></trkpt><trkpt lat="45.7473626" lon="10.5298436"><ele>809.5</ele><time>2026-03-22T09:38:25.592Z</time></trkpt><trkpt lat="45.7474134" lon="10.5299217"><ele>812.0</ele><time>2026-03-22T09:38:29.599Z</time></trkpt><trkpt lat="45.7474785" lon="10.5300001"><ele>814.4999999999999</ele><time>2026-03-22T09:38:33.608Z</time></trkpt><trkpt lat="45.7475349" lon="10.5300643"><ele>817.0</ele><time>2026-03-22T09:38:37.597Z</time></trkpt><trkpt lat="45.7475873" lon="10.530146"><ele>816.9999999999999</ele><time>2026-03-22T09:38:41.56Z</time></trkpt><trkpt lat="45.7476389" lon="10.5302172"><ele>817.0</ele><time>2026-03-22T09:38:45.561Z</time></trkpt><trkpt lat="45.7476906" lon="10.5303128"><ele>817.0</ele><time>2026-03-22T09:38:49.576Z</time></trkpt><trkpt lat="45.7477181" lon="10.5304048"><ele>817.0</ele><time>2026-03-22T09:38:53.561Z</time></trkpt><trkpt lat="45.7477143" lon="10.5305099"><ele>817.0</ele><time>2026-03-22T09:38:58.579Z</time></trkpt><trkpt lat="45.7477111" lon="10.5306078"><ele>816.9999999999999</ele><time>2026-03-22T09:39:03.579Z</time></trkpt><trkpt lat="45.747699" lon="10.5307074"><ele>817.0</ele><time>2026-03-22T09:39:07.589Z</time></trkpt><trkpt lat="45.7476869" lon="10.5308025"><ele>818.4285714285713</ele><time>2026-03-22T09:39:11.588Z</time></trkpt><trkpt lat="45.7476493" lon="10.5308996"><ele>819.8571428571429</ele><time>2026-03-22T09:39:15.569Z</time></trkpt><trkpt lat="45.7476038" lon="10.5309884"><ele>821.2857142857142</ele><time>2026-03-22T09:39:19.584Z</time></trkpt><trkpt lat="45.7475626" lon="10.5310665"><ele>822.7142857142857</ele><time>2026-03-22T09:39:23.545Z</time></trkpt><trkpt lat="45.7475096" lon="10.5311304"><ele>824.1428571428571</ele><time>2026-03-22T09:39:28.596Z</time></trkpt><trkpt lat="45.747455" lon="10.5311835"><ele>825.5714285714286</ele><time>2026-03-22T09:39:32.597Z</time></trkpt><trkpt lat="45.7473929" lon="10.5312091"><ele>827.0</ele><time>2026-03-22T09:39:36.596Z</time></trkpt><trkpt lat="45.747314" lon="10.5312245"><ele>827.0000000000001</ele><time>2026-03-22T09:39:41.575Z</time></trkpt><trkpt lat="45.7472447" lon="10.5311814"><ele>827.0</ele><time>2026-03-22T09:39:45.605Z</time></trkpt><trkpt lat="45.7471827" lon="10.5311086"><ele>827.0</ele><time>2026-03-22T09:39:49.597Z</time></trkpt><trkpt lat="45.7471449" lon="10.5310237"><ele>827.0</ele><time>2026-03-22T09:39:53.592Z</time></trkpt><trkpt lat="45.7471107" lon="10.5309345"><ele>827.0000000000001</ele><time>2026-03-22T09:39:57.554Z</time></trkpt><trkpt lat="45.7470762" lon="10.5308346"><ele>827.0</ele><time>2026-03-22T09:40:01.576Z</time></trkpt><trkpt lat="45.7470301" lon="10.5307478"><ele>827.0000000000001</ele><time>2026-03-22T09:40:05.598Z</time></trkpt><trkpt lat="45.7469828" lon="10.5306596"><ele>827.0</ele><time>2026-03-22T09:40:09.582Z</time></trkpt><trkpt lat="45.7469542" lon="10.5305509"><ele>827.0</ele><time>2026-03-22T09:40:13.52Z</time></trkpt><trkpt lat="45.7469266" lon="10.5304508"><ele>827.0</ele><time>2026-03-22T09:40:17.524Z</time></trkpt><trkpt lat="45.7468874" lon="10.5303706"><ele>827.0000000000001</ele><time>2026-03-22T09:40:21.584Z</time></trkpt><trkpt lat="45.7468218" lon="10.530313"><ele>827.0</ele><time>2026-03-22T09:40:26.523Z</time></trkpt><trkpt lat="45.7467489" lon="10.5303231"><ele>827.0</ele><time>2026-03-22T09:40:30.522Z</time></trkpt><trkpt lat="45.7467481" lon="10.5304151"><ele>827.0</ele><time>2026-03-22T09:40:35.588Z</time></trkpt><trkpt lat="45.7467775" lon="10.5305129"><ele>827.0</ele><time>2026-03-22T09:40:39.588Z</time></trkpt><trkpt lat="45.7468141" lon="10.5306198"><ele>827.0</ele><time>2026-03-22T09:40:43.59Z</time></trkpt><trkpt lat="45.7468607" lon="10.5306835"><ele>827.0</ele><time>2026-03-22T09:40:46.597Z</time></trkpt><trkpt lat="45.7469027" lon="10.5307678"><ele>827.0</ele><time>2026-03-22T09:40:49.597Z</time></trkpt><trkpt lat="45.7469377" lon="10.5308559"><ele>827.0</ele><time>2026-03-22T09:40:52.591Z</time></trkpt><trkpt lat="45.7469713" lon="10.5309383"><ele>827.0</ele><time>2026-03-22T09:40:55.524Z</time></trkpt><trkpt lat="45.746995" lon="10.5310235"><ele>827.0</ele><time>2026-03-22T09:40:58.571Z</time></trkpt><trkpt lat="45.7470094" lon="10.5311157"><ele>827.0</ele><time>2026-03-22T09:41:01.604Z</time></trkpt><trkpt lat="45.7470196" lon="10.5312078"><ele>827.0</ele><time>2026-03-22T09:41:04.59Z</time></trkpt><trkpt lat="45.7470388" lon="10.5313095"><ele>827.0</ele><time>2026-03-22T09:41:08.596Z</time></trkpt><trkpt lat="45.747046" lon="10.5314098"><ele>827.0</ele><time>2026-03-22T09:41:12.599Z</time></trkpt><trkpt lat="45.7469983" lon="10.5314785"><ele>827.0</ele><time>2026-03-22T09:41:15.598Z</time></trkpt><trkpt lat="45.7469391" lon="10.5315176"><ele>830.0</ele><time>2026-03-22T09:41:18.56Z</time></trkpt><trkpt lat="45.7468743" lon="10.5315056"><ele>833.0</ele><time>2026-03-22T09:41:22.581Z</time></trkpt><trkpt lat="45.7468112" lon="10.5314482"><ele>836.0</ele><time>2026-03-22T09:41:26.556Z</time></trkpt><trkpt lat="45.7467587" lon="10.531374"><ele>839.0</ele><time>2026-03-22T09:41:31.579Z</time></trkpt><trkpt lat="45.7467176" lon="10.5312929"><ele>842.0</ele><time>2026-03-22T09:41:35.565Z</time></trkpt><trkpt lat="45.7466694" lon="10.5312132"><ele>845.0</ele><time>2026-03-22T09:41:40.525Z</time></trkpt><trkpt lat="45.746645" lon="10.5311149"><ele>848.0</ele><time>2026-03-22T09:41:45.529Z</time></trkpt><trkpt lat="45.7466163" lon="10.5310108"><ele>848.0</ele><time>2026-03-22T09:41:50.598Z</time></trkpt><trkpt lat="45.7465905" lon="10.5309216"><ele>848.0</ele><time>2026-03-22T09:41:54.566Z</time></trkpt><trkpt lat="45.7465666" lon="10.5308372"><ele>848.0</ele><time>2026-03-22T09:41:58.584Z</time></trkpt><trkpt lat="45.7465472" lon="10.5307422"><ele>848.0</ele><time>2026-03-22T09:42:02.588Z</time></trkpt><trkpt lat="45.7465334" lon="10.5306485"><ele>848.0</ele><time>2026-03-22T09:42:06.529Z</time></trkpt><trkpt lat="45.7464898" lon="10.5305798"><ele>848.0</ele><time>2026-03-22T09:42:10.59Z</time></trkpt><trkpt lat="45.7464188" lon="10.5305875"><ele>848.0</ele><time>2026-03-22T09:42:14.593Z</time></trkpt><trkpt lat="45.7463783" lon="10.5306605"><ele>848.0</ele><time>2026-03-22T09:42:19.596Z</time></trkpt><trkpt lat="45.7463932" lon="10.5307718"><ele>848.0</ele><time>2026-03-22T09:42:23.604Z</time></trkpt><trkpt lat="45.7463927" lon="10.5308635"><ele>848.0</ele><time>2026-03-22T09:42:27.644Z</time></trkpt><trkpt lat="45.7464188" lon="10.5309486"><ele>848.0</ele><time>2026-03-22T09:42:32.572Z</time></trkpt><trkpt lat="45.7464259" lon="10.5310541"><ele>848.0</ele><time>2026-03-22T09:42:37.595Z</time></trkpt><trkpt lat="45.7464204" lon="10.5311623"><ele>848.0</ele><time>2026-03-22T09:42:42.536Z</time></trkpt><trkpt lat="45.746414" lon="10.5312688"><ele>848.0</ele><time>2026-03-22T09:42:46.527Z</time></trkpt><trkpt lat="45.7464125" lon="10.5313678"><ele>849.2857142857143</ele><time>2026-03-22T09:42:50.559Z</time></trkpt><trkpt lat="45.7464323" lon="10.5314556"><ele>850.5714285714286</ele><time>2026-03-22T09:42:54.564Z</time></trkpt><trkpt lat="45.7464332" lon="10.531551"><ele>851.8571428571429</ele><time>2026-03-22T09:42:59.552Z</time></trkpt><trkpt lat="45.7464129" lon="10.531655"><ele>853.1428571428571</ele><time>2026-03-22T09:43:03.563Z</time></trkpt><trkpt lat="45.7464168" lon="10.5317611"><ele>854.4285714285713</ele><time>2026-03-22T09:43:08.547Z</time></trkpt><trkpt lat="45.7464589" lon="10.5318382"><ele>855.7142857142857</ele><time>2026-03-22T09:43:13.529Z</time></trkpt><trkpt lat="45.746499" lon="10.5319133"><ele>857.0</ele><time>2026-03-22T09:43:17.627Z</time></trkpt><trkpt lat="45.7465469" lon="10.5319789"><ele>858.5714285714286</ele><time>2026-03-22T09:43:21.633Z</time></trkpt><trkpt lat="45.7465732" lon="10.5320745"><ele>860.1428571428571</ele><time>2026-03-22T09:43:26.636Z</time></trkpt><trkpt lat="45.7466233" lon="10.5321602"><ele>861.7142857142858</ele><time>2026-03-22T09:43:31.596Z</time></trkpt><trkpt lat="45.7466762" lon="10.5322571"><ele>863.2857142857142</ele><time>2026-03-22T09:43:37.583Z</time></trkpt><trkpt lat="45.7467148" lon="10.5323315"><ele>864.8571428571429</ele><time>2026-03-22T09:43:41.602Z</time></trkpt><trkpt lat="45.7467642" lon="10.5324034"><ele>866.4285714285714</ele><time>2026-03-22T09:43:46.586Z</time></trkpt><trkpt lat="45.746798" lon="10.5324874"><ele>868.0</ele><time>2026-03-22T09:43:50.628Z</time></trkpt><trkpt lat="45.7468387" lon="10.5325811"><ele>868.0</ele><time>2026-03-22T09:43:55.582Z</time></trkpt><trkpt lat="45.7468585" lon="10.5326898"><ele>868.0</ele><time>2026-03-22T09:44:00.568Z</time></trkpt><trkpt lat="45.7468738" lon="10.5327807"><ele>868.0</ele><time>2026-03-22T09:44:04.567Z</time></trkpt><trkpt lat="45.7468563" lon="10.5328755"><ele>868.0</ele><time>2026-03-22T09:44:08.582Z</time></trkpt><trkpt lat="45.7468149" lon="10.5329587"><ele>868.0</ele><time>2026-03-22T09:44:13.53Z</time></trkpt><trkpt lat="45.7467433" lon="10.5329402"><ele>868.0</ele><time>2026-03-22T09:44:18.529Z</time></trkpt><trkpt lat="45.7466893" lon="10.5328724"><ele>868.0</ele><time>2026-03-22T09:44:24.622Z</time></trkpt><trkpt lat="45.7466556" lon="10.5327847"><ele>868.0</ele><time>2026-03-22T09:44:29.586Z</time></trkpt><trkpt lat="45.7466121" lon="10.5327168"><ele>868.0</ele><time>2026-03-22T09:44:33.532Z</time></trkpt><trkpt lat="45.7465749" lon="10.5326377"><ele>868.0</ele><time>2026-03-22T09:44:37.6Z</time></trkpt><trkpt lat="45.7465289" lon="10.5325682"><ele>868.0</ele><time>2026-03-22T09:44:41.634Z</time></trkpt><trkpt lat="45.7464853" lon="10.5324843"><ele>868.0</ele><time>2026-03-22T09:44:46.598Z</time></trkpt><trkpt lat="45.746442" lon="10.5324096"><ele>868.0</ele><time>2026-03-22T09:44:50.61Z</time></trkpt><trkpt lat="45.7463913" lon="10.5323218"><ele>868.0</ele><time>2026-03-22T09:44:55.588Z</time></trkpt><trkpt lat="45.7463115" lon="10.5322484"><ele>868.0</ele><time>2026-03-22T09:45:00.641Z</time></trkpt><trkpt lat="45.7462662" lon="10.5321625"><ele>868.0</ele><time>2026-03-22T09:45:05.528Z</time></trkpt><trkpt lat="45.7462164" lon="10.5320989"><ele>868.0</ele><time>2026-03-22T09:45:09.562Z</time></trkpt><trkpt lat="45.7461415" lon="10.5320701"><ele>868.0</ele><time>2026-03-22T09:45:14.569Z</time></trkpt><trkpt lat="45.7460699" lon="10.532084"><ele>868.0</ele><time>2026-03-22T09:45:19.643Z</time></trkpt><trkpt lat="45.7460773" lon="10.532188"><ele>868.0</ele><time>2026-03-22T09:45:24.531Z</time></trkpt><trkpt lat="45.7460773" lon="10.5322869"><ele>868.0</ele><time>2026-03-22T09:45:28.617Z</time></trkpt><trkpt lat="45.7461189" lon="10.5323831"><ele>868.0</ele><time>2026-03-22T09:45:33.565Z</time></trkpt><trkpt lat="45.7461381" lon="10.5324696"><ele>868.0</ele><time>2026-03-22T09:45:37.554Z</time></trkpt><trkpt lat="45.7461828" lon="10.5325596"><ele>868.0</ele><time>2026-03-22T09:45:41.567Z</time></trkpt><trkpt lat="45.7462074" lon="10.5326581"><ele>868.0</ele><time>2026-03-22T09:45:46.563Z</time></trkpt><trkpt lat="45.7462496" lon="10.5327435"><ele>868.0</ele><time>2026-03-22T09:45:51.564Z</time></trkpt><trkpt lat="45.7463013" lon="10.5328144"><ele>868.0</ele><time>2026-03-22T09:45:56.555Z</time></trkpt><trkpt lat="45.7463357" lon="10.532895"><ele>868.0</ele><time>2026-03-22T09:46:00.628Z</time></trkpt><trkpt lat="45.746361" lon="10.5329901"><ele>869.8571428571429</ele><time>2026-03-22T09:46:05.581Z</time></trkpt><trkpt lat="45.7463611" lon="10.5330827"><ele>871.7142857142858</ele><time>2026-03-22T09:46:10.551Z</time></trkpt><trkpt lat="45.7463867" lon="10.5331838"><ele>873.5714285714286</ele><time>2026-03-22T09:46:15.524Z</time></trkpt><trkpt lat="45.7463679" lon="10.5332863"><ele>875.4285714285714</ele><time>2026-03-22T09:46:21.525Z</time></trkpt><trkpt lat="45.7463691" lon="10.5333807"><ele>877.2857142857143</ele><time>2026-03-22T09:46:28.395Z</time></trkpt><trkpt lat="45.7464033" lon="10.5334664"><ele>879.1428571428571</ele><time>2026-03-22T09:46:33.575Z</time></trkpt><trkpt lat="45.7464472" lon="10.5335511"><ele>881.0</ele><time>2026-03-22T09:46:38.55Z</time></trkpt><trkpt lat="45.7464609" lon="10.5336486"><ele>883.0</ele><time>2026-03-22T09:46:45.525Z</time></trkpt><trkpt lat="45.746486" lon="10.533736"><ele>885.0</ele><time>2026-03-22T09:46:49.664Z</time></trkpt><trkpt lat="45.7465268" lon="10.5338281"><ele>887.0</ele><time>2026-03-22T09:46:54.54Z</time></trkpt><trkpt lat="45.7465571" lon="10.5339261"><ele>889.0</ele><time>2026-03-22T09:47:00.524Z</time></trkpt><trkpt lat="45.7465751" lon="10.53403"><ele>891.0</ele><time>2026-03-22T09:47:05.54Z</time></trkpt><trkpt lat="45.7465757" lon="10.5341275"><ele>893.0</ele><time>2026-03-22T09:47:11.526Z</time></trkpt><trkpt lat="45.7465968" lon="10.5342277"><ele>895.0</ele><time>2026-03-22T09:47:18.522Z</time></trkpt><trkpt lat="45.746613" lon="10.5343217"><ele>895.0</ele><time>2026-03-22T09:47:23.568Z</time></trkpt><trkpt lat="45.7466293" lon="10.5344241"><ele>895.0</ele><time>2026-03-22T09:47:29.536Z</time></trkpt><trkpt lat="45.7466447" lon="10.534517"><ele>895.0</ele><time>2026-03-22T09:47:34.537Z</time></trkpt><trkpt lat="45.7466181" lon="10.5346091"><ele>895.0</ele><time>2026-03-22T09:47:38.529Z</time></trkpt><trkpt lat="45.7466245" lon="10.534702"><ele>895.0</ele><time>2026-03-22T09:47:43.63Z</time></trkpt><trkpt lat="45.7465908" lon="10.5347974"><ele>895.0</ele><time>2026-03-22T09:47:49.534Z</time></trkpt><trkpt lat="45.7465707" lon="10.5349018"><ele>895.0</ele><time>2026-03-22T09:47:56.526Z</time></trkpt><trkpt lat="45.7465385" lon="10.5349899"><ele>895.5714285714286</ele><time>2026-03-22T09:48:02.565Z</time></trkpt><trkpt lat="45.7465091" lon="10.5350833"><ele>896.1428571428571</ele><time>2026-03-22T09:48:07.529Z</time></trkpt><trkpt lat="45.7464926" lon="10.5351823"><ele>896.7142857142857</ele><time>2026-03-22T09:48:13.52Z</time></trkpt><trkpt lat="45.746477" lon="10.53529"><ele>897.2857142857142</ele><time>2026-03-22T09:48:21.529Z</time></trkpt><trkpt lat="45.7464328" lon="10.5353716"><ele>897.8571428571429</ele><time>2026-03-22T09:48:26.551Z</time></trkpt><trkpt lat="45.7463787" lon="10.5354248"><ele>898.4285714285713</ele><time>2026-03-22T09:48:30.566Z</time></trkpt><trkpt lat="45.7463128" lon="10.5354639"><ele>898.9999999999999</ele><time>2026-03-22T09:48:35.55Z</time></trkpt><trkpt lat="45.746282" lon="10.5355561"><ele>899.3333333333334</ele><time>2026-03-22T09:48:41.54Z</time></trkpt><trkpt lat="45.7462409" lon="10.5356364"><ele>899.6666666666667</ele><time>2026-03-22T09:48:46.525Z</time></trkpt><trkpt lat="45.7462248" lon="10.5357403"><ele>900.0</ele><time>2026-03-22T09:48:52.572Z</time></trkpt><trkpt lat="45.7462285" lon="10.5358386"><ele>900.3333333333333</ele><time>2026-03-22T09:48:57.52Z</time></trkpt><trkpt lat="45.7462547" lon="10.5359446"><ele>900.6666666666666</ele><time>2026-03-22T09:49:03.532Z</time></trkpt><trkpt lat="45.746268" lon="10.5360725"><ele>901.0</ele><time>2026-03-22T09:49:10.537Z</time></trkpt><trkpt lat="45.7462473" lon="10.5361682"><ele>903.2857142857143</ele><time>2026-03-22T09:49:16.575Z</time></trkpt><trkpt lat="45.7462395" lon="10.5362612"><ele>905.5714285714287</ele><time>2026-03-22T09:49:21.574Z</time></trkpt><trkpt lat="45.74622" lon="10.5363563"><ele>907.8571428571429</ele><time>2026-03-22T09:49:26.526Z</time></trkpt><trkpt lat="45.7462331" lon="10.5364521"><ele>910.1428571428571</ele><time>2026-03-22T09:49:31.592Z</time></trkpt><trkpt lat="45.7462513" lon="10.5365528"><ele>912.4285714285714</ele><time>2026-03-22T09:49:37.527Z</time></trkpt><trkpt lat="45.7462715" lon="10.5366392"><ele>914.7142857142858</ele><time>2026-03-22T09:49:42.53Z</time></trkpt><trkpt lat="45.746296" lon="10.5367404"><ele>917.0</ele><time>2026-03-22T09:49:47.562Z</time></trkpt><trkpt lat="45.7463043" lon="10.5368418"><ele>917.0</ele><time>2026-03-22T09:49:53.631Z</time></trkpt><trkpt lat="45.7463455" lon="10.5369316"><ele>917.0</ele><time>2026-03-22T09:49:59.53Z</time></trkpt><trkpt lat="45.7463936" lon="10.5369981"><ele>917.0</ele><time>2026-03-22T09:50:04.573Z</time></trkpt><trkpt lat="45.7464598" lon="10.537045"><ele>917.0</ele><time>2026-03-22T09:50:10.59Z</time></trkpt><trkpt lat="45.7465297" lon="10.5370701"><ele>917.0</ele><time>2026-03-22T09:50:14.527Z</time></trkpt><trkpt lat="45.7465989" lon="10.5370955"><ele>917.0</ele><time>2026-03-22T09:50:18.576Z</time></trkpt><trkpt lat="45.7466681" lon="10.5371249"><ele>917.0</ele><time>2026-03-22T09:50:23.588Z</time></trkpt><trkpt lat="45.746743" lon="10.5371584"><ele>919.0</ele><time>2026-03-22T09:50:27.595Z</time></trkpt><trkpt lat="45.7468117" lon="10.5371947"><ele>921.0</ele><time>2026-03-22T09:50:31.582Z</time></trkpt><trkpt lat="45.7468739" lon="10.5372388"><ele>923.0</ele><time>2026-03-22T09:50:35.579Z</time></trkpt><trkpt lat="45.7469277" lon="10.5372864"><ele>925.0</ele><time>2026-03-22T09:50:39.527Z</time></trkpt><trkpt lat="45.7469835" lon="10.5373407"><ele>927.0</ele><time>2026-03-22T09:50:43.61Z</time></trkpt><trkpt lat="45.7470397" lon="10.5373829"><ele>929.0</ele><time>2026-03-22T09:50:47.578Z</time></trkpt><trkpt lat="45.7471015" lon="10.5374069"><ele>931.0</ele><time>2026-03-22T09:50:51.592Z</time></trkpt><trkpt lat="45.7471725" lon="10.5374194"><ele>931.0</ele><time>2026-03-22T09:50:56.53Z</time></trkpt><trkpt lat="45.7472376" lon="10.5374083"><ele>931.0</ele><time>2026-03-22T09:51:01.598Z</time></trkpt><trkpt lat="45.7473152" lon="10.5373956"><ele>931.0</ele><time>2026-03-22T09:51:06.532Z</time></trkpt><trkpt lat="45.7473864" lon="10.5374172"><ele>931.0</ele><time>2026-03-22T09:51:10.574Z</time></trkpt><trkpt lat="45.7474458" lon="10.5374504"><ele>931.0</ele><time>2026-03-22T09:51:13.575Z</time></trkpt><trkpt lat="45.7475002" lon="10.5375274"><ele>931.0</ele><time>2026-03-22T09:51:17.537Z</time></trkpt><trkpt lat="45.7475504" lon="10.5376032"><ele>931.0</ele><time>2026-03-22T09:51:22.594Z</time></trkpt><trkpt lat="45.7475907" lon="10.5376912"><ele>930.9999999999999</ele><time>2026-03-22T09:51:27.532Z</time></trkpt><trkpt lat="45.7476243" lon="10.5377758"><ele>931.0</ele><time>2026-03-22T09:51:31.628Z</time></trkpt><trkpt lat="45.7476717" lon="10.5378898"><ele>931.0</ele><time>2026-03-22T09:51:37.113Z</time></trkpt><trkpt lat="45.7477081" lon="10.5379848"><ele>931.0</ele><time>2026-03-22T09:51:40.537Z</time></trkpt><trkpt lat="45.7477487" lon="10.538059"><ele>930.9999999999999</ele><time>2026-03-22T09:51:44.547Z</time></trkpt><trkpt lat="45.7478059" lon="10.5381458"><ele>931.0</ele><time>2026-03-22T09:51:49.601Z</time></trkpt><trkpt lat="45.7478209" lon="10.5382367"><ele>932.5714285714286</ele><time>2026-03-22T09:51:54.549Z</time></trkpt><trkpt lat="45.7478505" lon="10.5383213"><ele>934.1428571428571</ele><time>2026-03-22T09:51:59.592Z</time></trkpt><trkpt lat="45.7478831" lon="10.5383993"><ele>935.7142857142858</ele><time>2026-03-22T09:52:03.574Z</time></trkpt><trkpt lat="45.7479382" lon="10.5384682"><ele>937.2857142857143</ele><time>2026-03-22T09:52:08.529Z</time></trkpt><trkpt lat="45.7479978" lon="10.5385185"><ele>938.8571428571429</ele><time>2026-03-22T09:52:13.529Z</time></trkpt><trkpt lat="45.7480642" lon="10.5385839"><ele>940.4285714285716</ele><time>2026-03-22T09:52:18.596Z</time></trkpt><trkpt lat="45.7481229" lon="10.5386178"><ele>942.0000000000001</ele><time>2026-03-22T09:52:22.541Z</time></trkpt><trkpt lat="45.7481898" lon="10.5386397"><ele>942.0000000000001</ele><time>2026-03-22T09:52:26.624Z</time></trkpt><trkpt lat="45.7482611" lon="10.5386378"><ele>942.0</ele><time>2026-03-22T09:52:30.625Z</time></trkpt><trkpt lat="45.7483299" lon="10.5386149"><ele>942.0000000000001</ele><time>2026-03-22T09:52:35.631Z</time></trkpt><trkpt lat="45.7483887" lon="10.5385687"><ele>942.0000000000001</ele><time>2026-03-22T09:52:40.631Z</time></trkpt><trkpt lat="45.7484472" lon="10.5385115"><ele>942.0</ele><time>2026-03-22T09:52:45.534Z</time></trkpt><trkpt lat="45.7485189" lon="10.5384779"><ele>942.0000000000001</ele><time>2026-03-22T09:52:50.563Z</time></trkpt><trkpt lat="45.7485847" lon="10.5385011"><ele>942.0000000000001</ele><time>2026-03-22T09:52:54.63Z</time></trkpt><trkpt lat="45.7486417" lon="10.5385466"><ele>944.0</ele><time>2026-03-22T09:52:58.638Z</time></trkpt><trkpt lat="45.7487098" lon="10.5386029"><ele>946.0</ele><time>2026-03-22T09:53:04.569Z</time></trkpt><trkpt lat="45.748776" lon="10.538655"><ele>948.0</ele><time>2026-03-22T09:53:09.55Z</time></trkpt><trkpt lat="45.7488416" lon="10.5387268"><ele>950.0</ele><time>2026-03-22T09:53:13.585Z</time></trkpt><trkpt lat="45.7489186" lon="10.5387667"><ele>952.0</ele><time>2026-03-22T09:53:17.564Z</time></trkpt><trkpt lat="45.7489844" lon="10.5387926"><ele>954.0</ele><time>2026-03-22T09:53:21.528Z</time></trkpt><trkpt lat="45.7490518" lon="10.5387844"><ele>954.0</ele><time>2026-03-22T09:53:26.646Z</time></trkpt><trkpt lat="45.7491196" lon="10.5388154"><ele>953.9999999999999</ele><time>2026-03-22T09:53:31.599Z</time></trkpt><trkpt lat="45.7491775" lon="10.5388761"><ele>954.0</ele><time>2026-03-22T09:53:35.651Z</time></trkpt><trkpt lat="45.7491813" lon="10.5389856"><ele>954.0</ele><time>2026-03-22T09:53:39.58Z</time></trkpt><trkpt lat="45.7491485" lon="10.5390899"><ele>953.9999999999999</ele><time>2026-03-22T09:53:43.538Z</time></trkpt><trkpt lat="45.7491264" lon="10.5391781"><ele>954.0</ele><time>2026-03-22T09:53:46.599Z</time></trkpt><trkpt lat="45.7491094" lon="10.5392813"><ele>954.0</ele><time>2026-03-22T09:53:50.56Z</time></trkpt><trkpt lat="45.7491296" lon="10.5393924"><ele>954.0</ele><time>2026-03-22T09:53:54.64Z</time></trkpt><trkpt lat="45.7491479" lon="10.5394934"><ele>953.9999999999999</ele><time>2026-03-22T09:53:58.559Z</time></trkpt><trkpt lat="45.7491842" lon="10.5395724"><ele>954.0</ele><time>2026-03-22T09:54:02.536Z</time></trkpt><trkpt lat="45.7492304" lon="10.5396583"><ele>954.0</ele><time>2026-03-22T09:54:06.635Z</time></trkpt><trkpt lat="45.7492739" lon="10.5397468"><ele>953.9999999999999</ele><time>2026-03-22T09:54:10.545Z</time></trkpt><trkpt lat="45.7493068" lon="10.539824"><ele>954.0</ele><time>2026-03-22T09:54:13.589Z</time></trkpt><trkpt lat="45.7493591" lon="10.5398936"><ele>954.0</ele><time>2026-03-22T09:54:17.589Z</time></trkpt><trkpt lat="45.74941" lon="10.5399566"><ele>954.0</ele><time>2026-03-22T09:54:21.562Z</time></trkpt><trkpt lat="45.7494837" lon="10.5400277"><ele>953.9999999999999</ele><time>2026-03-22T09:54:27.572Z</time></trkpt><trkpt lat="45.7495605" lon="10.5400467"><ele>954.0</ele><time>2026-03-22T09:54:32.547Z</time></trkpt><trkpt lat="45.7496278" lon="10.540053"><ele>954.0</ele><time>2026-03-22T09:54:36.145Z</time></trkpt><trkpt lat="45.7496918" lon="10.5400357"><ele>953.9999999999999</ele><time>2026-03-22T09:54:39.538Z</time></trkpt><trkpt lat="45.7497643" lon="10.540004"><ele>954.0</ele><time>2026-03-22T09:54:44.577Z</time></trkpt><trkpt lat="45.749822" lon="10.5399601"><ele>954.0</ele><time>2026-03-22T09:54:47.533Z</time></trkpt><trkpt lat="45.7498865" lon="10.5399031"><ele>954.0</ele><time>2026-03-22T09:54:50.571Z</time></trkpt><trkpt lat="45.7499534" lon="10.5398318"><ele>953.9999999999999</ele><time>2026-03-22T09:54:53.531Z</time></trkpt><trkpt lat="45.7500218" lon="10.5398023"><ele>954.0</ele><time>2026-03-22T09:54:56.559Z</time></trkpt><trkpt lat="45.7500772" lon="10.5398573"><ele>954.0</ele><time>2026-03-22T09:54:59.583Z</time></trkpt><trkpt lat="45.7501227" lon="10.539925"><ele>953.9999999999999</ele><time>2026-03-22T09:55:02.625Z</time></trkpt><trkpt lat="45.7501574" lon="10.5400296"><ele>954.0</ele><time>2026-03-22T09:55:06.629Z</time></trkpt><trkpt lat="45.7501788" lon="10.5401172"><ele>954.0</ele><time>2026-03-22T09:55:09.564Z</time></trkpt><trkpt lat="45.7501996" lon="10.540209"><ele>953.1666666666666</ele><time>2026-03-22T09:55:12.575Z</time></trkpt><trkpt lat="45.7502154" lon="10.5403236"><ele>952.3333333333333</ele><time>2026-03-22T09:55:16.554Z</time></trkpt><trkpt lat="45.7502649" lon="10.5404081"><ele>951.5</ele><time>2026-03-22T09:55:19.591Z</time></trkpt><trkpt lat="45.7503402" lon="10.5404741"><ele>950.6666666666666</ele><time>2026-03-22T09:55:22.575Z</time></trkpt><trkpt lat="45.7504118" lon="10.5404977"><ele>949.8333333333333</ele><time>2026-03-22T09:55:25.585Z</time></trkpt><trkpt lat="45.7504868" lon="10.540508"><ele>949.0</ele><time>2026-03-22T09:55:28.588Z</time></trkpt><trkpt lat="45.7505561" lon="10.5404717"><ele>948.9999999999999</ele><time>2026-03-22T09:55:31.559Z</time></trkpt><trkpt lat="45.7506119" lon="10.5404139"><ele>949.0</ele><time>2026-03-22T09:55:34.625Z</time></trkpt><trkpt lat="45.750671" lon="10.5402539"><ele>949.0</ele><time>2026-03-22T09:55:38.582Z</time></trkpt><trkpt lat="45.7506954" lon="10.5401496"><ele>949.0</ele><time>2026-03-22T09:55:40.592Z</time></trkpt><trkpt lat="45.7507125" lon="10.5400545"><ele>948.9999999999999</ele><time>2026-03-22T09:55:42.589Z</time></trkpt><trkpt lat="45.7507492" lon="10.5399684"><ele>949.0</ele><time>2026-03-22T09:55:44.592Z</time></trkpt><trkpt lat="45.7508017" lon="10.5398889"><ele>949.0000000000001</ele><time>2026-03-22T09:55:46.635Z</time></trkpt><trkpt lat="45.7508641" lon="10.5398235"><ele>949.0</ele><time>2026-03-22T09:55:48.593Z</time></trkpt><trkpt lat="45.7509241" lon="10.5397672"><ele>949.0000000000001</ele><time>2026-03-22T09:55:50.603Z</time></trkpt><trkpt lat="45.7509819" lon="10.5397291"><ele>949.0000000000001</ele><time>2026-03-22T09:55:52.591Z</time></trkpt><trkpt lat="45.7510751" lon="10.5396873"><ele>949.0</ele><time>2026-03-22T09:55:55.567Z</time></trkpt><trkpt lat="45.7511463" lon="10.5396675"><ele>949.0000000000001</ele><time>2026-03-22T09:55:57.601Z</time></trkpt><trkpt lat="45.7512101" lon="10.5396425"><ele>949.0000000000001</ele><time>2026-03-22T09:55:59.581Z</time></trkpt><trkpt lat="45.751276" lon="10.5396219"><ele>949.3333333333333</ele><time>2026-03-22T09:56:01.576Z</time></trkpt><trkpt lat="45.7513455" lon="10.5395675"><ele>949.6666666666666</ele><time>2026-03-22T09:56:04.556Z</time></trkpt><trkpt lat="45.7514278" lon="10.5395096"><ele>950.0</ele><time>2026-03-22T09:56:07.536Z</time></trkpt><trkpt lat="45.751497" lon="10.5394536"><ele>950.3333333333333</ele><time>2026-03-22T09:56:09.569Z</time></trkpt><trkpt lat="45.7515544" lon="10.5393876"><ele>950.6666666666666</ele><time>2026-03-22T09:56:11.549Z</time></trkpt><trkpt lat="45.7516068" lon="10.5393215"><ele>951.0</ele><time>2026-03-22T09:56:13.532Z</time></trkpt><trkpt lat="45.7516565" lon="10.5392476"><ele>951.0</ele><time>2026-03-22T09:56:15.569Z</time></trkpt><trkpt lat="45.7517008" lon="10.5391656"><ele>951.0</ele><time>2026-03-22T09:56:17.56Z</time></trkpt><trkpt lat="45.7517396" lon="10.5390729"><ele>951.0</ele><time>2026-03-22T09:56:19.633Z</time></trkpt><trkpt lat="45.7517842" lon="10.5389737"><ele>951.0</ele><time>2026-03-22T09:56:21.551Z</time></trkpt><trkpt lat="45.751823" lon="10.5388802"><ele>951.0</ele><time>2026-03-22T09:56:23.548Z</time></trkpt><trkpt lat="45.7518641" lon="10.5387904"><ele>951.0</ele><time>2026-03-22T09:56:25.559Z</time></trkpt><trkpt lat="45.7519098" lon="10.5387008"><ele>950.6666666666666</ele><time>2026-03-22T09:56:27.567Z</time></trkpt><trkpt lat="45.7519676" lon="10.5386168"><ele>950.3333333333333</ele><time>2026-03-22T09:56:29.582Z</time></trkpt><trkpt lat="45.7520259" lon="10.5385374"><ele>950.0</ele><time>2026-03-22T09:56:31.532Z</time></trkpt><trkpt lat="45.752083" lon="10.5384727"><ele>949.6666666666666</ele><time>2026-03-22T09:56:33.583Z</time></trkpt><trkpt lat="45.7521311" lon="10.5383983"><ele>949.3333333333333</ele><time>2026-03-22T09:56:35.579Z</time></trkpt><trkpt lat="45.7521596" lon="10.5382959"><ele>949.0</ele><time>2026-03-22T09:56:37.57Z</time></trkpt><trkpt lat="45.7521727" lon="10.5381917"><ele>948.9999999999999</ele><time>2026-03-22T09:56:39.569Z</time></trkpt><trkpt lat="45.7521734" lon="10.5380814"><ele>949.0</ele><time>2026-03-22T09:56:41.539Z</time></trkpt><trkpt lat="45.7521698" lon="10.537988"><ele>949.0</ele><time>2026-03-22T09:56:43.563Z</time></trkpt><trkpt lat="45.7521727" lon="10.5378594"><ele>949.0</ele><time>2026-03-22T09:56:46.64Z</time></trkpt><trkpt lat="45.7521738" lon="10.5377231"><ele>948.9999999999999</ele><time>2026-03-22T09:56:49.587Z</time></trkpt><trkpt lat="45.7521846" lon="10.5375892"><ele>949.0</ele><time>2026-03-22T09:56:52.592Z</time></trkpt><trkpt lat="45.7522239" lon="10.5374658"><ele>950.2857142857144</ele><time>2026-03-22T09:56:55.531Z</time></trkpt><trkpt lat="45.7522729" lon="10.537409"><ele>951.5714285714287</ele><time>2026-03-22T09:56:57.569Z</time></trkpt><trkpt lat="45.7523468" lon="10.5373483"><ele>952.8571428571429</ele><time>2026-03-22T09:57:00.573Z</time></trkpt><trkpt lat="45.7524131" lon="10.5373009"><ele>954.1428571428572</ele><time>2026-03-22T09:57:03.592Z</time></trkpt><trkpt lat="45.7524802" lon="10.5372726"><ele>955.4285714285716</ele><time>2026-03-22T09:57:06.535Z</time></trkpt><trkpt lat="45.7525578" lon="10.5372481"><ele>956.7142857142857</ele><time>2026-03-22T09:57:09.565Z</time></trkpt><trkpt lat="45.7526247" lon="10.5372191"><ele>958.0</ele><time>2026-03-22T09:57:12.574Z</time></trkpt><trkpt lat="45.7526933" lon="10.5371754"><ele>958.8571428571429</ele><time>2026-03-22T09:57:16.59Z</time></trkpt><trkpt lat="45.7527735" lon="10.5371547"><ele>959.7142857142858</ele><time>2026-03-22T09:57:20.644Z</time></trkpt><trkpt lat="45.7528455" lon="10.5371463"><ele>960.5714285714287</ele><time>2026-03-22T09:57:23.592Z</time></trkpt><trkpt lat="45.7529197" lon="10.5371592"><ele>961.4285714285714</ele><time>2026-03-22T09:57:26.581Z</time></trkpt><trkpt lat="45.7529932" lon="10.5371794"><ele>962.2857142857144</ele><time>2026-03-22T09:57:29.52Z</time></trkpt><trkpt lat="45.7530625" lon="10.5372017"><ele>963.1428571428572</ele><time>2026-03-22T09:57:33.555Z</time></trkpt><trkpt lat="45.7531215" lon="10.5372343"><ele>964.0</ele><time>2026-03-22T09:57:36.665Z</time></trkpt><trkpt lat="45.7532019" lon="10.5372723"><ele>963.9999999999999</ele><time>2026-03-22T09:57:40.559Z</time></trkpt><trkpt lat="45.7532529" lon="10.5373563"><ele>964.0</ele><time>2026-03-22T09:57:44.563Z</time></trkpt><trkpt lat="45.7532982" lon="10.5374435"><ele>964.0</ele><time>2026-03-22T09:57:48.59Z</time></trkpt><trkpt lat="45.7533616" lon="10.5374896"><ele>964.0</ele><time>2026-03-22T09:58:23.527Z</time></trkpt><trkpt lat="45.7534142" lon="10.5375636"><ele>963.9999999999999</ele><time>2026-03-22T09:58:55.519Z</time></trkpt><trkpt lat="45.7534635" lon="10.5376545"><ele>964.0</ele><time>2026-03-22T09:58:59.528Z</time></trkpt><trkpt lat="45.7535025" lon="10.5377423"><ele>963.9999999999999</ele><time>2026-03-22T09:59:03.541Z</time></trkpt><trkpt lat="45.7535345" lon="10.5378363"><ele>964.0</ele><time>2026-03-22T09:59:07.527Z</time></trkpt><trkpt lat="45.7535756" lon="10.5379293"><ele>964.0</ele><time>2026-03-22T09:59:11.528Z</time></trkpt><trkpt lat="45.753603" lon="10.5380255"><ele>964.0</ele><time>2026-03-22T09:59:14.525Z</time></trkpt><trkpt lat="45.7536552" lon="10.5381192"><ele>963.9999999999999</ele><time>2026-03-22T09:59:18.526Z</time></trkpt><trkpt lat="45.7536919" lon="10.5381989"><ele>964.0</ele><time>2026-03-22T09:59:21.526Z</time></trkpt><trkpt lat="45.7537464" lon="10.5382889"><ele>963.8333333333333</ele><time>2026-03-22T09:59:24.525Z</time></trkpt><trkpt lat="45.7537998" lon="10.5383527"><ele>963.6666666666666</ele><time>2026-03-22T09:59:26.523Z</time></trkpt><trkpt lat="45.7538463" lon="10.5384307"><ele>963.5</ele><time>2026-03-22T09:59:28.527Z</time></trkpt><trkpt lat="45.7538944" lon="10.5385302"><ele>963.3333333333333</ele><time>2026-03-22T09:59:31.525Z</time></trkpt><trkpt lat="45.7539344" lon="10.538614"><ele>963.1666666666666</ele><time>2026-03-22T09:59:34.532Z</time></trkpt><trkpt lat="45.7539845" lon="10.5386996"><ele>963.0</ele><time>2026-03-22T09:59:37.531Z</time></trkpt><trkpt lat="45.7540371" lon="10.5387809"><ele>963.0000000000001</ele><time>2026-03-22T09:59:40.533Z</time></trkpt><trkpt lat="45.7540746" lon="10.5388555"><ele>963.0</ele><time>2026-03-22T09:59:43.536Z</time></trkpt><trkpt lat="45.7541285" lon="10.5389388"><ele>963.0000000000001</ele><time>2026-03-22T09:59:47.569Z</time></trkpt><trkpt lat="45.7541952" lon="10.5389857"><ele>963.0000000000001</ele><time>2026-03-22T09:59:51.535Z</time></trkpt><trkpt lat="45.7542595" lon="10.539031"><ele>963.0</ele><time>2026-03-22T09:59:55.526Z</time></trkpt><trkpt lat="45.7543164" lon="10.5390896"><ele>963.0000000000001</ele><time>2026-03-22T09:59:58.527Z</time></trkpt><trkpt lat="45.7543872" lon="10.5391456"><ele>963.0000000000001</ele><time>2026-03-22T10:00:00.566Z</time></trkpt><trkpt lat="45.7544581" lon="10.5392403"><ele>963.5999999999999</ele><time>2026-03-22T10:00:02.531Z</time></trkpt><trkpt lat="45.7544977" lon="10.5393703"><ele>964.1999999999999</ele><time>2026-03-22T10:00:04.531Z</time></trkpt><trkpt lat="45.754515" lon="10.5395172"><ele>964.8</ele><time>2026-03-22T10:00:06.52Z</time></trkpt><trkpt lat="45.7545334" lon="10.5396036"><ele>965.4</ele><time>2026-03-22T10:00:07.61Z</time></trkpt><trkpt lat="45.7545595" lon="10.5397799"><ele>966.0</ele><time>2026-03-22T10:00:09.531Z</time></trkpt><trkpt lat="45.7546017" lon="10.5399795"><ele>966.0</ele><time>2026-03-22T10:00:11.533Z</time></trkpt><trkpt lat="45.7546811" lon="10.5401133"><ele>965.9999999999999</ele><time>2026-03-22T10:00:13.57Z</time></trkpt><trkpt lat="45.7547361" lon="10.5402046"><ele>965.9999999999999</ele><time>2026-03-22T10:00:14.552Z</time></trkpt><trkpt lat="45.7548249" lon="10.540375"><ele>966.0</ele><time>2026-03-22T10:00:16.576Z</time></trkpt><trkpt lat="45.754877" lon="10.5404705"><ele>966.0</ele><time>2026-03-22T10:00:17.531Z</time></trkpt><trkpt lat="45.7549416" lon="10.5405642"><ele>967.4285714285714</ele><time>2026-03-22T10:00:18.532Z</time></trkpt><trkpt lat="45.7550011" lon="10.5406105"><ele>968.8571428571429</ele><time>2026-03-22T10:00:19.527Z</time></trkpt><trkpt lat="45.7550587" lon="10.5406596"><ele>970.2857142857142</ele><time>2026-03-22T10:00:20.551Z</time></trkpt><trkpt lat="45.7551305" lon="10.5407048"><ele>971.7142857142857</ele><time>2026-03-22T10:00:21.562Z</time></trkpt><trkpt lat="45.7551913" lon="10.5407556"><ele>973.1428571428571</ele><time>2026-03-22T10:00:22.57Z</time></trkpt><trkpt lat="45.7552368" lon="10.5408411"><ele>974.5714285714284</ele><time>2026-03-22T10:00:23.584Z</time></trkpt><trkpt lat="45.7552734" lon="10.540932"><ele>975.9999999999999</ele><time>2026-03-22T10:00:24.671Z</time></trkpt><trkpt lat="45.7552843" lon="10.5411824"><ele>974.8333333333333</ele><time>2026-03-22T10:00:26.537Z</time></trkpt><trkpt lat="45.7552361" lon="10.5413828"><ele>973.6666666666666</ele><time>2026-03-22T10:00:28.548Z</time></trkpt><trkpt lat="45.7551998" lon="10.5414714"><ele>972.5</ele><time>2026-03-22T10:00:29.566Z</time></trkpt><trkpt lat="45.7551891" lon="10.5415653"><ele>971.3333333333333</ele><time>2026-03-22T10:00:30.545Z</time></trkpt><trkpt lat="45.755157" lon="10.5416494"><ele>970.1666666666666</ele><time>2026-03-22T10:00:31.575Z</time></trkpt><trkpt lat="45.7551224" lon="10.5417268"><ele>969.0</ele><time>2026-03-22T10:00:32.55Z</time></trkpt><trkpt lat="45.7550856" lon="10.5418718"><ele>965.6666666666666</ele><time>2026-03-22T10:00:34.557Z</time></trkpt><trkpt lat="45.7550712" lon="10.5420048"><ele>962.3333333333333</ele><time>2026-03-22T10:00:36.611Z</time></trkpt><trkpt lat="45.7550525" lon="10.5420981"><ele>959.0</ele><time>2026-03-22T10:00:39.567Z</time></trkpt><trkpt lat="45.7550533" lon="10.542212"><ele>955.6666666666666</ele><time>2026-03-22T10:00:42.585Z</time></trkpt><trkpt lat="45.7550237" lon="10.5423053"><ele>952.3333333333333</ele><time>2026-03-22T10:00:45.529Z</time></trkpt><trkpt lat="45.7550528" lon="10.5424045"><ele>949.0</ele><time>2026-03-22T10:00:55.645Z</time></trkpt><trkpt lat="45.7551171" lon="10.5423779"><ele>948.9999999999999</ele><time>2026-03-22T10:01:01.582Z</time></trkpt><trkpt lat="45.7551943" lon="10.5424085"><ele>949.0</ele><time>2026-03-22T10:01:05.527Z</time></trkpt><trkpt lat="45.7552872" lon="10.5424344"><ele>949.0</ele><time>2026-03-22T10:01:07.526Z</time></trkpt><trkpt lat="45.7553963" lon="10.5424464"><ele>949.0</ele><time>2026-03-22T10:01:11.591Z</time></trkpt><trkpt lat="45.7554779" lon="10.5424892"><ele>948.9999999999999</ele><time>2026-03-22T10:01:15.582Z</time></trkpt><trkpt lat="45.7555499" lon="10.5425276"><ele>949.0</ele><time>2026-03-22T10:01:19.574Z</time></trkpt><trkpt lat="45.7555905" lon="10.5426326"><ele>951.1428571428573</ele><time>2026-03-22T10:01:27.581Z</time></trkpt><trkpt lat="45.7556403" lon="10.5427203"><ele>953.2857142857143</ele><time>2026-03-22T10:01:30.589Z</time></trkpt><trkpt lat="45.7556139" lon="10.5428168"><ele>955.4285714285716</ele><time>2026-03-22T10:01:32.53Z</time></trkpt><trkpt lat="45.7556053" lon="10.5429333"><ele>957.5714285714287</ele><time>2026-03-22T10:01:35.615Z</time></trkpt><trkpt lat="45.7556213" lon="10.5430216"><ele>959.7142857142858</ele><time>2026-03-22T10:01:38.585Z</time></trkpt><trkpt lat="45.7556225" lon="10.5431247"><ele>961.8571428571429</ele><time>2026-03-22T10:01:43.568Z</time></trkpt><trkpt lat="45.7556339" lon="10.5432202"><ele>964.0</ele><time>2026-03-22T10:01:48.6Z</time></trkpt><trkpt lat="45.7557109" lon="10.5432523"><ele>964.2857142857143</ele><time>2026-03-22T10:01:57.529Z</time></trkpt><trkpt lat="45.7557831" lon="10.5432879"><ele>964.5714285714287</ele><time>2026-03-22T10:02:01.556Z</time></trkpt><trkpt lat="45.7558337" lon="10.5433633"><ele>964.8571428571429</ele><time>2026-03-22T10:02:04.555Z</time></trkpt><trkpt lat="45.7558632" lon="10.543454"><ele>965.1428571428571</ele><time>2026-03-22T10:02:09.531Z</time></trkpt><trkpt lat="45.755892" lon="10.543538"><ele>965.4285714285714</ele><time>2026-03-22T10:02:14.58Z</time></trkpt><trkpt lat="45.7559095" lon="10.5436457"><ele>965.7142857142858</ele><time>2026-03-22T10:02:19.571Z</time></trkpt><trkpt lat="45.7559364" lon="10.543734"><ele>966.0</ele><time>2026-03-22T10:02:23.566Z</time></trkpt><trkpt lat="45.755934" lon="10.543825"><ele>966.0</ele><time>2026-03-22T10:02:28.564Z</time></trkpt><trkpt lat="45.7559573" lon="10.5439303"><ele>966.0</ele><time>2026-03-22T10:02:33.523Z</time></trkpt><trkpt lat="45.7559703" lon="10.5440295"><ele>966.0</ele><time>2026-03-22T10:02:37.564Z</time></trkpt><trkpt lat="45.755975" lon="10.5441388"><ele>966.0</ele><time>2026-03-22T10:02:42.57Z</time></trkpt><trkpt lat="45.7559761" lon="10.5442457"><ele>966.0</ele><time>2026-03-22T10:02:47.554Z</time></trkpt><trkpt lat="45.7559891" lon="10.5443405"><ele>966.0</ele><time>2026-03-22T10:02:52.589Z</time></trkpt><trkpt lat="45.7559844" lon="10.5444443"><ele>966.0</ele><time>2026-03-22T10:02:56.569Z</time></trkpt><trkpt lat="45.7559934" lon="10.5445357"><ele>966.0</ele><time>2026-03-22T10:03:00.569Z</time></trkpt><trkpt lat="45.7559915" lon="10.5446278"><ele>966.0</ele><time>2026-03-22T10:03:04.591Z</time></trkpt><trkpt lat="45.7559971" lon="10.544739"><ele>966.0</ele><time>2026-03-22T10:03:09.559Z</time></trkpt><trkpt lat="45.7560064" lon="10.5448305"><ele>966.0</ele><time>2026-03-22T10:03:13.572Z</time></trkpt><trkpt lat="45.756046" lon="10.5449047"><ele>966.0</ele><time>2026-03-22T10:03:18.562Z</time></trkpt><trkpt lat="45.7560677" lon="10.545"><ele>966.0</ele><time>2026-03-22T10:03:23.537Z</time></trkpt><trkpt lat="45.7561044" lon="10.5450921"><ele>966.0</ele><time>2026-03-22T10:03:30.541Z</time></trkpt><trkpt lat="45.7561492" lon="10.5451733"><ele>971.5714285714286</ele><time>2026-03-22T10:03:36.564Z</time></trkpt><trkpt lat="45.7561841" lon="10.5452557"><ele>977.1428571428571</ele><time>2026-03-22T10:03:41.544Z</time></trkpt><trkpt lat="45.7562298" lon="10.5453326"><ele>982.7142857142858</ele><time>2026-03-22T10:03:47.567Z</time></trkpt><trkpt lat="45.7562868" lon="10.5453995"><ele>988.2857142857143</ele><time>2026-03-22T10:03:54.533Z</time></trkpt><trkpt lat="45.7563126" lon="10.5454827"><ele>993.8571428571429</ele><time>2026-03-22T10:04:00.52Z</time></trkpt><trkpt lat="45.7563412" lon="10.545573"><ele>999.4285714285716</ele><time>2026-03-22T10:04:07.536Z</time></trkpt><trkpt lat="45.7563683" lon="10.5456652"><ele>1005.0000000000001</ele><time>2026-03-22T10:04:12.558Z</time></trkpt><trkpt lat="45.7563952" lon="10.545751"><ele>1005.0000000000001</ele><time>2026-03-22T10:04:17.528Z</time></trkpt><trkpt lat="45.7564175" lon="10.5458467"><ele>1005.0</ele><time>2026-03-22T10:04:24.533Z</time></trkpt><trkpt lat="45.756445" lon="10.5459424"><ele>1005.0000000000001</ele><time>2026-03-22T10:04:30.583Z</time></trkpt><trkpt lat="45.7564508" lon="10.5460371"><ele>1005.0000000000001</ele><time>2026-03-22T10:04:35.521Z</time></trkpt><trkpt lat="45.7564503" lon="10.546138"><ele>1005.0</ele><time>2026-03-22T10:04:40.535Z</time></trkpt><trkpt lat="45.7564676" lon="10.5462317"><ele>1005.0000000000001</ele><time>2026-03-22T10:04:46.564Z</time></trkpt><trkpt lat="45.7564891" lon="10.5463341"><ele>1005.0000000000001</ele><time>2026-03-22T10:04:52.559Z</time></trkpt><trkpt lat="45.7565126" lon="10.5464316"><ele>1005.5714285714287</ele><time>2026-03-22T10:04:58.527Z</time></trkpt><trkpt lat="45.7565366" lon="10.5465192"><ele>1006.1428571428571</ele><time>2026-03-22T10:05:05.532Z</time></trkpt><trkpt lat="45.756552" lon="10.5466077"><ele>1006.7142857142858</ele><time>2026-03-22T10:05:12.529Z</time></trkpt><trkpt lat="45.756534" lon="10.5467046"><ele>1007.2857142857143</ele><time>2026-03-22T10:05:18.57Z</time></trkpt><trkpt lat="45.7565289" lon="10.5467987"><ele>1007.8571428571429</ele><time>2026-03-22T10:05:24.571Z</time></trkpt><trkpt lat="45.7565292" lon="10.5469006"><ele>1008.4285714285714</ele><time>2026-03-22T10:05:30.532Z</time></trkpt><trkpt lat="45.7565204" lon="10.5469951"><ele>1009.0</ele><time>2026-03-22T10:05:35.542Z</time></trkpt><trkpt lat="45.7565138" lon="10.5470874"><ele>1009.0</ele><time>2026-03-22T10:05:40.581Z</time></trkpt><trkpt lat="45.7565282" lon="10.5471845"><ele>1009.0</ele><time>2026-03-22T10:05:47.584Z</time></trkpt><trkpt lat="45.7565473" lon="10.5472874"><ele>1009.0</ele><time>2026-03-22T10:05:53.534Z</time></trkpt><trkpt lat="45.7565454" lon="10.5473907"><ele>1009.0</ele><time>2026-03-22T10:05:59.523Z</time></trkpt><trkpt lat="45.7565439" lon="10.5474853"><ele>1009.0</ele><time>2026-03-22T10:06:05.58Z</time></trkpt><trkpt lat="45.7565601" lon="10.5475792"><ele>1009.0</ele><time>2026-03-22T10:06:12.581Z</time></trkpt><trkpt lat="45.7565976" lon="10.5476694"><ele>1009.0</ele><time>2026-03-22T10:06:21.579Z</time></trkpt><trkpt lat="45.7566193" lon="10.547766"><ele>1009.0</ele><time>2026-03-22T10:06:27.594Z</time></trkpt><trkpt lat="45.7566424" lon="10.5478565"><ele>1009.0</ele><time>2026-03-22T10:06:34.536Z</time></trkpt><trkpt lat="45.756676" lon="10.5479329"><ele>1009.0</ele><time>2026-03-22T10:06:40.528Z</time></trkpt><trkpt lat="45.7567006" lon="10.5480279"><ele>1009.0</ele><time>2026-03-22T10:06:46.58Z</time></trkpt><trkpt lat="45.7567059" lon="10.5481182"><ele>1009.0</ele><time>2026-03-22T10:06:51.535Z</time></trkpt><trkpt lat="45.7567559" lon="10.5481869"><ele>1009.0</ele><time>2026-03-22T10:06:56.531Z</time></trkpt><trkpt lat="45.7567539" lon="10.5482789"><ele>1009.0</ele><time>2026-03-22T10:07:02.562Z</time></trkpt><trkpt lat="45.7567662" lon="10.5483679"><ele>1008.5714285714287</ele><time>2026-03-22T10:07:08.526Z</time></trkpt><trkpt lat="45.7567767" lon="10.5484577"><ele>1008.1428571428571</ele><time>2026-03-22T10:07:14.533Z</time></trkpt><trkpt lat="45.7568017" lon="10.548548"><ele>1007.7142857142858</ele><time>2026-03-22T10:07:20.528Z</time></trkpt><trkpt lat="45.7568289" lon="10.5486339"><ele>1007.2857142857143</ele><time>2026-03-22T10:07:25.576Z</time></trkpt><trkpt lat="45.7568524" lon="10.5487291"><ele>1006.8571428571429</ele><time>2026-03-22T10:07:32.559Z</time></trkpt><trkpt lat="45.756885" lon="10.5488132"><ele>1006.4285714285714</ele><time>2026-03-22T10:07:40.529Z</time></trkpt><trkpt lat="45.7569117" lon="10.548895"><ele>1006.0</ele><time>2026-03-22T10:07:46.53Z</time></trkpt><trkpt lat="45.7569278" lon="10.5489829"><ele>1013.1999999999999</ele><time>2026-03-22T10:07:55.53Z</time></trkpt><trkpt lat="45.756941" lon="10.5490772"><ele>1020.3999999999999</ele><time>2026-03-22T10:08:04.521Z</time></trkpt><trkpt lat="45.7569304" lon="10.5491861"><ele>1027.6</ele><time>2026-03-22T10:08:09.536Z</time></trkpt><trkpt lat="45.756937" lon="10.549276"><ele>1034.8</ele><time>2026-03-22T10:08:14.569Z</time></trkpt><trkpt lat="45.7569225" lon="10.5493689"><ele>1042.0</ele><time>2026-03-22T10:10:11.577Z</time></trkpt><trkpt lat="45.7570903" lon="10.5496118"><ele>1042.0</ele><time>2026-03-22T10:27:53.576Z</time></trkpt><trkpt lat="45.7571092" lon="10.5497352"><ele>1042.0</ele><time>2026-03-22T10:27:55.607Z</time></trkpt><trkpt lat="45.7570998" lon="10.5498316"><ele>1042.0</ele><time>2026-03-22T10:27:58.547Z</time></trkpt><trkpt lat="45.7571308" lon="10.5499144"><ele>1042.0</ele><time>2026-03-22T10:28:02.597Z</time></trkpt><trkpt lat="45.7571847" lon="10.5499661"><ele>1042.0</ele><time>2026-03-22T10:28:06.551Z</time></trkpt><trkpt lat="45.7572348" lon="10.5500234"><ele>1042.0</ele><time>2026-03-22T10:28:10.608Z</time></trkpt><trkpt lat="45.7572726" lon="10.5500991"><ele>1042.0</ele><time>2026-03-22T10:28:14.583Z</time></trkpt><trkpt lat="45.7573273" lon="10.550153"><ele>1042.0</ele><time>2026-03-22T10:28:19.568Z</time></trkpt><trkpt lat="45.7573917" lon="10.5502101"><ele>1042.0</ele><time>2026-03-22T10:28:25.572Z</time></trkpt><trkpt lat="45.7574437" lon="10.5502912"><ele>1042.0</ele><time>2026-03-22T10:28:30.559Z</time></trkpt><trkpt lat="45.7574874" lon="10.5503704"><ele>1042.0</ele><time>2026-03-22T10:28:35.595Z</time></trkpt><trkpt lat="45.7575334" lon="10.5504405"><ele>1042.0</ele><time>2026-03-22T10:28:41.565Z</time></trkpt><trkpt lat="45.7575586" lon="10.5505391"><ele>1042.0</ele><time>2026-03-22T10:28:47.538Z</time></trkpt><trkpt lat="45.7576125" lon="10.5505892"><ele>1042.0</ele><time>2026-03-22T10:28:52.581Z</time></trkpt><trkpt lat="45.7576752" lon="10.5506298"><ele>1047.0</ele><time>2026-03-22T10:28:57.583Z</time></trkpt><trkpt lat="45.7577482" lon="10.5506568"><ele>1052.0</ele><time>2026-03-22T10:29:02.579Z</time></trkpt><trkpt lat="45.757834" lon="10.5506926"><ele>1057.0</ele><time>2026-03-22T10:29:08.586Z</time></trkpt><trkpt lat="45.7578983" lon="10.5507473"><ele>1062.0</ele><time>2026-03-22T10:29:13.597Z</time></trkpt><trkpt lat="45.7579499" lon="10.5508209"><ele>1067.0</ele><time>2026-03-22T10:29:19.538Z</time></trkpt><trkpt lat="45.7579667" lon="10.5509217"><ele>1072.0</ele><time>2026-03-22T10:29:24.584Z</time></trkpt><trkpt lat="45.7579422" lon="10.5510225"><ele>1072.0</ele><time>2026-03-22T10:29:29.547Z</time></trkpt><trkpt lat="45.7579319" lon="10.5511207"><ele>1072.0</ele><time>2026-03-22T10:29:34.601Z</time></trkpt><trkpt lat="45.7579086" lon="10.551205"><ele>1072.0</ele><time>2026-03-22T10:29:38.591Z</time></trkpt><trkpt lat="45.7578868" lon="10.5513076"><ele>1072.0</ele><time>2026-03-22T10:29:43.553Z</time></trkpt><trkpt lat="45.7578596" lon="10.5513997"><ele>1072.0</ele><time>2026-03-22T10:29:49.546Z</time></trkpt><trkpt lat="45.7578868" lon="10.5514876"><ele>1072.0</ele><time>2026-03-22T10:29:55.637Z</time></trkpt><trkpt lat="45.7579112" lon="10.5515924"><ele>1072.0</ele><time>2026-03-22T10:30:01.647Z</time></trkpt><trkpt lat="45.7579418" lon="10.5516738"><ele>1071.857142857143</ele><time>2026-03-22T10:30:05.581Z</time></trkpt><trkpt lat="45.7579899" lon="10.5517599"><ele>1071.7142857142858</ele><time>2026-03-22T10:30:11.579Z</time></trkpt><trkpt lat="45.7580385" lon="10.5518196"><ele>1071.5714285714284</ele><time>2026-03-22T10:30:17.558Z</time></trkpt><trkpt lat="45.7580585" lon="10.5519132"><ele>1071.4285714285716</ele><time>2026-03-22T10:30:23.537Z</time></trkpt><trkpt lat="45.7580914" lon="10.5519907"><ele>1071.2857142857142</ele><time>2026-03-22T10:30:28.585Z</time></trkpt><trkpt lat="45.7580946" lon="10.5520921"><ele>1071.142857142857</ele><time>2026-03-22T10:30:34.581Z</time></trkpt><trkpt lat="45.7580708" lon="10.5521934"><ele>1071.0</ele><time>2026-03-22T10:30:40.535Z</time></trkpt><trkpt lat="45.7579903" lon="10.552301"><ele>1072.142857142857</ele><time>2026-03-22T10:31:55.6Z</time></trkpt><trkpt lat="45.7579852" lon="10.5524056"><ele>1073.2857142857142</ele><time>2026-03-22T10:32:00.539Z</time></trkpt><trkpt lat="45.7579585" lon="10.5525018"><ele>1074.4285714285716</ele><time>2026-03-22T10:32:06.58Z</time></trkpt><trkpt lat="45.7579205" lon="10.5525826"><ele>1075.5714285714284</ele><time>2026-03-22T10:32:11.564Z</time></trkpt><trkpt lat="45.7578734" lon="10.5526462"><ele>1076.7142857142858</ele><time>2026-03-22T10:32:16.537Z</time></trkpt><trkpt lat="45.7578295" lon="10.5527121"><ele>1077.857142857143</ele><time>2026-03-22T10:32:23.527Z</time></trkpt><trkpt lat="45.7577757" lon="10.5527864"><ele>1079.0</ele><time>2026-03-22T10:32:30.645Z</time></trkpt><trkpt lat="45.7577212" lon="10.5528491"><ele>1081.5714285714287</ele><time>2026-03-22T10:32:37.628Z</time></trkpt><trkpt lat="45.7577005" lon="10.5529388"><ele>1084.142857142857</ele><time>2026-03-22T10:32:44.539Z</time></trkpt><trkpt lat="45.7576897" lon="10.5530319"><ele>1086.7142857142858</ele><time>2026-03-22T10:32:49.546Z</time></trkpt><trkpt lat="45.7577162" lon="10.5531232"><ele>1089.2857142857142</ele><time>2026-03-22T10:32:53.536Z</time></trkpt><trkpt lat="45.7577118" lon="10.5532152"><ele>1091.857142857143</ele><time>2026-03-22T10:32:59.533Z</time></trkpt><trkpt lat="45.7577063" lon="10.5533105"><ele>1094.4285714285716</ele><time>2026-03-22T10:33:07.542Z</time></trkpt><trkpt lat="45.7576777" lon="10.5534096"><ele>1097.0</ele><time>2026-03-22T10:33:15.549Z</time></trkpt><trkpt lat="45.7576834" lon="10.5535258"><ele>1094.5714285714287</ele><time>2026-03-22T10:33:23.546Z</time></trkpt><trkpt lat="45.7576607" lon="10.5536147"><ele>1092.1428571428573</ele><time>2026-03-22T10:33:29.562Z</time></trkpt><trkpt lat="45.7576255" lon="10.5536998"><ele>1089.7142857142858</ele><time>2026-03-22T10:33:36.582Z</time></trkpt><trkpt lat="45.7576166" lon="10.5537945"><ele>1087.2857142857142</ele><time>2026-03-22T10:33:44.61Z</time></trkpt><trkpt lat="45.7575717" lon="10.5538618"><ele>1084.8571428571427</ele><time>2026-03-22T10:33:53.588Z</time></trkpt><trkpt lat="45.7575627" lon="10.553963"><ele>1082.4285714285713</ele><time>2026-03-22T10:33:58.58Z</time></trkpt><trkpt lat="45.7575475" lon="10.554053"><ele>1080.0</ele><time>2026-03-22T10:34:05.569Z</time></trkpt><trkpt lat="45.7574989" lon="10.5541216"><ele>1080.0</ele><time>2026-03-22T10:34:11.548Z</time></trkpt><trkpt lat="45.757459" lon="10.5541928"><ele>1080.0</ele><time>2026-03-22T10:34:21.544Z</time></trkpt><trkpt lat="45.7574315" lon="10.5542932"><ele>1080.0</ele><time>2026-03-22T10:34:26.548Z</time></trkpt><trkpt lat="45.7573876" lon="10.5543744"><ele>1080.0</ele><time>2026-03-22T10:34:31.581Z</time></trkpt><trkpt lat="45.7574531" lon="10.5543943"><ele>1080.0</ele><time>2026-03-22T10:34:47.578Z</time></trkpt><trkpt lat="45.7575224" lon="10.5543566"><ele>1080.0</ele><time>2026-03-22T10:34:55.55Z</time></trkpt><trkpt lat="45.7575818" lon="10.5543049"><ele>1080.0</ele><time>2026-03-22T10:35:01.572Z</time></trkpt><trkpt lat="45.7576414" lon="10.5542656"><ele>1080.0</ele><time>2026-03-22T10:35:05.554Z</time></trkpt><trkpt lat="45.7576798" lon="10.5541895"><ele>1080.0</ele><time>2026-03-22T10:35:10.58Z</time></trkpt><trkpt lat="45.7577081" lon="10.5541043"><ele>1080.0</ele><time>2026-03-22T10:35:15.569Z</time></trkpt><trkpt lat="45.7576898" lon="10.5540132"><ele>1080.0</ele><time>2026-03-22T10:35:30.549Z</time></trkpt><trkpt lat="45.7577429" lon="10.5539438"><ele>1080.0</ele><time>2026-03-22T10:36:03.648Z</time></trkpt><trkpt lat="45.7578043" lon="10.5539156"><ele>1080.0</ele><time>2026-03-22T10:36:08.607Z</time></trkpt><trkpt lat="45.7578627" lon="10.5538457"><ele>1080.0</ele><time>2026-03-22T10:36:14.543Z</time></trkpt><trkpt lat="45.757914" lon="10.5537862"><ele>1082.8333333333333</ele><time>2026-03-22T10:36:18.598Z</time></trkpt><trkpt lat="45.7579593" lon="10.5537092"><ele>1085.6666666666667</ele><time>2026-03-22T10:36:23.583Z</time></trkpt><trkpt lat="45.7580155" lon="10.5536285"><ele>1088.5</ele><time>2026-03-22T10:36:28.66Z</time></trkpt><trkpt lat="45.7580719" lon="10.5535606"><ele>1091.3333333333335</ele><time>2026-03-22T10:36:33.571Z</time></trkpt><trkpt lat="45.7581428" lon="10.5534726"><ele>1094.1666666666667</ele><time>2026-03-22T10:36:39.583Z</time></trkpt><trkpt lat="45.7581966" lon="10.5533968"><ele>1097.0</ele><time>2026-03-22T10:36:44.58Z</time></trkpt><trkpt lat="45.7582414" lon="10.5533143"><ele>1097.0</ele><time>2026-03-22T10:36:49.574Z</time></trkpt><trkpt lat="45.7582916" lon="10.5532493"><ele>1097.0</ele><time>2026-03-22T10:36:53.588Z</time></trkpt><trkpt lat="45.7583523" lon="10.5532031"><ele>1097.0</ele><time>2026-03-22T10:36:58.59Z</time></trkpt><trkpt lat="45.7583989" lon="10.5532743"><ele>1097.0</ele><time>2026-03-22T10:37:16.599Z</time></trkpt><trkpt lat="45.7583686" lon="10.5533632"><ele>1097.0</ele><time>2026-03-22T10:37:21.541Z</time></trkpt><trkpt lat="45.7583453" lon="10.553461"><ele>1097.0</ele><time>2026-03-22T10:37:27.543Z</time></trkpt><trkpt lat="45.7583226" lon="10.5535522"><ele>1097.0</ele><time>2026-03-22T10:37:33.602Z</time></trkpt><trkpt lat="45.7582885" lon="10.5536285"><ele>1100.2857142857142</ele><time>2026-03-22T10:37:39.545Z</time></trkpt><trkpt lat="45.7583006" lon="10.5537221"><ele>1103.5714285714287</ele><time>2026-03-22T10:37:42.653Z</time></trkpt><trkpt lat="45.7582515" lon="10.5537889"><ele>1106.857142857143</ele><time>2026-03-22T10:37:48.536Z</time></trkpt><trkpt lat="45.758207" lon="10.5538735"><ele>1110.142857142857</ele><time>2026-03-22T10:37:54.568Z</time></trkpt><trkpt lat="45.758165" lon="10.5539599"><ele>1113.4285714285716</ele><time>2026-03-22T10:38:00.558Z</time></trkpt><trkpt lat="45.7581195" lon="10.5540422"><ele>1116.7142857142858</ele><time>2026-03-22T10:38:06.548Z</time></trkpt><trkpt lat="45.7580896" lon="10.5541278"><ele>1120.0</ele><time>2026-03-22T10:38:12.533Z</time></trkpt><trkpt lat="45.7580657" lon="10.5542144"><ele>1120.0</ele><time>2026-03-22T10:38:18.595Z</time></trkpt><trkpt lat="45.7580189" lon="10.5542953"><ele>1120.0</ele><time>2026-03-22T10:38:25.57Z</time></trkpt><trkpt lat="45.7579959" lon="10.5543843"><ele>1120.0</ele><time>2026-03-22T10:38:30.547Z</time></trkpt><trkpt lat="45.7579567" lon="10.5544617"><ele>1120.0</ele><time>2026-03-22T10:38:36.544Z</time></trkpt><trkpt lat="45.757942" lon="10.5545539"><ele>1120.0</ele><time>2026-03-22T10:38:44.541Z</time></trkpt><trkpt lat="45.7579239" lon="10.5546424"><ele>1120.0</ele><time>2026-03-22T10:38:50.538Z</time></trkpt><trkpt lat="45.7578905" lon="10.5547204"><ele>1120.0</ele><time>2026-03-22T10:38:56.542Z</time></trkpt><trkpt lat="45.7578643" lon="10.5548164"><ele>1123.2857142857142</ele><time>2026-03-22T10:39:03.55Z</time></trkpt><trkpt lat="45.7578434" lon="10.5549086"><ele>1126.5714285714284</ele><time>2026-03-22T10:39:10.608Z</time></trkpt><trkpt lat="45.7578244" lon="10.5550009"><ele>1129.857142857143</ele><time>2026-03-22T10:39:16.605Z</time></trkpt><trkpt lat="45.7577979" lon="10.5550989"><ele>1133.142857142857</ele><time>2026-03-22T10:39:23.57Z</time></trkpt><trkpt lat="45.7577581" lon="10.5551781"><ele>1136.4285714285713</ele><time>2026-03-22T10:39:28.536Z</time></trkpt><trkpt lat="45.757749" lon="10.555276"><ele>1139.7142857142858</ele><time>2026-03-22T10:39:33.658Z</time></trkpt><trkpt lat="45.7577759" lon="10.5553704"><ele>1143.0</ele><time>2026-03-22T10:39:40.617Z</time></trkpt><trkpt lat="45.7578025" lon="10.5554586"><ele>1143.857142857143</ele><time>2026-03-22T10:39:46.58Z</time></trkpt><trkpt lat="45.7578448" lon="10.5555463"><ele>1144.7142857142856</ele><time>2026-03-22T10:39:54.544Z</time></trkpt><trkpt lat="45.757874" lon="10.5556283"><ele>1145.5714285714284</ele><time>2026-03-22T10:40:00.547Z</time></trkpt><trkpt lat="45.7579028" lon="10.5557131"><ele>1146.4285714285713</ele><time>2026-03-22T10:40:06.615Z</time></trkpt><trkpt lat="45.7579353" lon="10.5558046"><ele>1147.2857142857142</ele><time>2026-03-22T10:40:12.539Z</time></trkpt><trkpt lat="45.7579634" lon="10.5558869"><ele>1148.142857142857</ele><time>2026-03-22T10:40:19.542Z</time></trkpt><trkpt lat="45.7579942" lon="10.555969"><ele>1149.0</ele><time>2026-03-22T10:40:25.644Z</time></trkpt><trkpt lat="45.7580372" lon="10.5560446"><ele>1149.0</ele><time>2026-03-22T10:40:31.548Z</time></trkpt><trkpt lat="45.7580876" lon="10.5561046"><ele>1149.0</ele><time>2026-03-22T10:40:37.538Z</time></trkpt><trkpt lat="45.7581323" lon="10.5561785"><ele>1149.0</ele><time>2026-03-22T10:40:43.55Z</time></trkpt><trkpt lat="45.7581754" lon="10.556249"><ele>1149.0</ele><time>2026-03-22T10:40:49.549Z</time></trkpt><trkpt lat="45.7582225" lon="10.5563271"><ele>1149.0</ele><time>2026-03-22T10:40:55.537Z</time></trkpt><trkpt lat="45.7582795" lon="10.5563972"><ele>1149.0</ele><time>2026-03-22T10:41:00.593Z</time></trkpt><trkpt lat="45.7583004" lon="10.5564963"><ele>1149.0</ele><time>2026-03-22T10:41:06.544Z</time></trkpt><trkpt lat="45.7582824" lon="10.5565978"><ele>1148.0</ele><time>2026-03-22T10:41:11.545Z</time></trkpt><trkpt lat="45.7582454" lon="10.5566779"><ele>1147.0</ele><time>2026-03-22T10:41:16.549Z</time></trkpt><trkpt lat="45.7582486" lon="10.5567694"><ele>1146.0</ele><time>2026-03-22T10:41:21.535Z</time></trkpt><trkpt lat="45.7582389" lon="10.5568651"><ele>1145.0</ele><time>2026-03-22T10:41:26.589Z</time></trkpt><trkpt lat="45.7582131" lon="10.556954"><ele>1144.0</ele><time>2026-03-22T10:41:31.619Z</time></trkpt><trkpt lat="45.758158" lon="10.5570138"><ele>1143.0</ele><time>2026-03-22T10:41:36.612Z</time></trkpt><trkpt lat="45.758117" lon="10.5570926"><ele>1142.0</ele><time>2026-03-22T10:41:41.539Z</time></trkpt><trkpt lat="45.7580578" lon="10.55714"><ele>1144.857142857143</ele><time>2026-03-22T10:41:46.59Z</time></trkpt><trkpt lat="45.758004" lon="10.557203"><ele>1147.7142857142858</ele><time>2026-03-22T10:41:52.544Z</time></trkpt><trkpt lat="45.7579672" lon="10.5572894"><ele>1150.5714285714284</ele><time>2026-03-22T10:42:00.542Z</time></trkpt><trkpt lat="45.7579567" lon="10.5573792"><ele>1153.4285714285716</ele><time>2026-03-22T10:42:05.545Z</time></trkpt><trkpt lat="45.7579109" lon="10.5574454"><ele>1156.2857142857142</ele><time>2026-03-22T10:42:10.58Z</time></trkpt><trkpt lat="45.7578626" lon="10.5575035"><ele>1159.142857142857</ele><time>2026-03-22T10:42:20.556Z</time></trkpt><trkpt lat="45.7578403" lon="10.5575885"><ele>1162.0</ele><time>2026-03-22T10:42:26.613Z</time></trkpt><trkpt lat="45.7578263" lon="10.5576819"><ele>1162.0</ele><time>2026-03-22T10:42:32.541Z</time></trkpt><trkpt lat="45.7578264" lon="10.557784"><ele>1162.0</ele><time>2026-03-22T10:42:38.544Z</time></trkpt><trkpt lat="45.7578433" lon="10.5578838"><ele>1162.0</ele><time>2026-03-22T10:42:45.589Z</time></trkpt><trkpt lat="45.7578626" lon="10.5579804"><ele>1162.0</ele><time>2026-03-22T10:43:10.589Z</time></trkpt><trkpt lat="45.7578594" lon="10.5580815"><ele>1162.0</ele><time>2026-03-22T10:43:16.542Z</time></trkpt><trkpt lat="45.7578614" lon="10.5581745"><ele>1162.0</ele><time>2026-03-22T10:43:22.588Z</time></trkpt><trkpt lat="45.7578739" lon="10.5582746"><ele>1162.0</ele><time>2026-03-22T10:43:28.595Z</time></trkpt><trkpt lat="45.7578911" lon="10.5583736"><ele>1164.0</ele><time>2026-03-22T10:43:35.541Z</time></trkpt><trkpt lat="45.7579068" lon="10.5584638"><ele>1166.0</ele><time>2026-03-22T10:43:41.544Z</time></trkpt><trkpt lat="45.7579359" lon="10.5585616"><ele>1168.0</ele><time>2026-03-22T10:43:47.6Z</time></trkpt><trkpt lat="45.7579804" lon="10.5586367"><ele>1170.0</ele><time>2026-03-22T10:43:53.558Z</time></trkpt><trkpt lat="45.7580159" lon="10.5587114"><ele>1172.0</ele><time>2026-03-22T10:43:59.538Z</time></trkpt><trkpt lat="45.7580454" lon="10.5588003"><ele>1174.0</ele><time>2026-03-22T10:44:05.605Z</time></trkpt><trkpt lat="45.7580821" lon="10.55889"><ele>1176.0</ele><time>2026-03-22T10:44:11.539Z</time></trkpt><trkpt lat="45.758126" lon="10.5589662"><ele>1176.0</ele><time>2026-03-22T10:44:17.552Z</time></trkpt><trkpt lat="45.7581739" lon="10.5590344"><ele>1176.0</ele><time>2026-03-22T10:44:23.552Z</time></trkpt><trkpt lat="45.7582162" lon="10.5591109"><ele>1176.0</ele><time>2026-03-22T10:44:29.55Z</time></trkpt><trkpt lat="45.7582605" lon="10.5591896"><ele>1176.0</ele><time>2026-03-22T10:44:35.544Z</time></trkpt><trkpt lat="45.7582854" lon="10.5592881"><ele>1176.0</ele><time>2026-03-22T10:44:41.547Z</time></trkpt><trkpt lat="45.7583022" lon="10.559382"><ele>1176.0</ele><time>2026-03-22T10:44:47.594Z</time></trkpt><trkpt lat="45.7583195" lon="10.5594757"><ele>1176.0</ele><time>2026-03-22T10:44:54.576Z</time></trkpt><trkpt lat="45.7583411" lon="10.5595651"><ele>1176.0</ele><time>2026-03-22T10:45:00.55Z</time></trkpt><trkpt lat="45.7583442" lon="10.5596669"><ele>1176.0</ele><time>2026-03-22T10:45:07.553Z</time></trkpt><trkpt lat="45.7583583" lon="10.5597581"><ele>1176.0</ele><time>2026-03-22T10:45:14.605Z</time></trkpt><trkpt lat="45.7583537" lon="10.5598626"><ele>1176.0</ele><time>2026-03-22T10:45:21.602Z</time></trkpt><trkpt lat="45.7583614" lon="10.5599578"><ele>1176.0</ele><time>2026-03-22T10:45:27.539Z</time></trkpt><trkpt lat="45.7583463" lon="10.5600588"><ele>1176.0</ele><time>2026-03-22T10:45:33.558Z</time></trkpt><trkpt lat="45.758327" lon="10.5601449"><ele>1176.0</ele><time>2026-03-22T10:45:38.624Z</time></trkpt><trkpt lat="45.7583112" lon="10.5602324"><ele>1176.0</ele><time>2026-03-22T10:45:44.547Z</time></trkpt><trkpt lat="45.7582796" lon="10.5603234"><ele>1176.0</ele><time>2026-03-22T10:45:51.539Z</time></trkpt><trkpt lat="45.7582518" lon="10.5604166"><ele>1176.0</ele><time>2026-03-22T10:45:57.594Z</time></trkpt><trkpt lat="45.7582196" lon="10.5605085"><ele>1176.0</ele><time>2026-03-22T10:46:04.59Z</time></trkpt><trkpt lat="45.7581815" lon="10.5605959"><ele>1176.0</ele><time>2026-03-22T10:46:10.546Z</time></trkpt><trkpt lat="45.7581566" lon="10.5606796"><ele>1176.0</ele><time>2026-03-22T10:46:15.547Z</time></trkpt><trkpt lat="45.7581233" lon="10.560771"><ele>1176.0</ele><time>2026-03-22T10:46:21.549Z</time></trkpt><trkpt lat="45.7581011" lon="10.560864"><ele>1178.5714285714287</ele><time>2026-03-22T10:46:27.554Z</time></trkpt><trkpt lat="45.7580723" lon="10.5609474"><ele>1181.142857142857</ele><time>2026-03-22T10:46:34.543Z</time></trkpt><trkpt lat="45.7580434" lon="10.5610314"><ele>1183.7142857142858</ele><time>2026-03-22T10:46:42.543Z</time></trkpt><trkpt lat="45.7580198" lon="10.5611315"><ele>1186.2857142857142</ele><time>2026-03-22T10:46:49.546Z</time></trkpt><trkpt lat="45.757999" lon="10.5612226"><ele>1188.857142857143</ele><time>2026-03-22T10:46:55.543Z</time></trkpt><trkpt lat="45.7579846" lon="10.5613175"><ele>1191.4285714285716</ele><time>2026-03-22T10:47:01.555Z</time></trkpt><trkpt lat="45.757947" lon="10.5614089"><ele>1194.0</ele><time>2026-03-22T10:47:08.55Z</time></trkpt><trkpt lat="45.7579305" lon="10.5614965"><ele>1193.5714285714287</ele><time>2026-03-22T10:47:14.546Z</time></trkpt><trkpt lat="45.7579163" lon="10.5615879"><ele>1193.142857142857</ele><time>2026-03-22T10:47:20.555Z</time></trkpt><trkpt lat="45.7578664" lon="10.5616566"><ele>1192.7142857142858</ele><time>2026-03-22T10:47:27.552Z</time></trkpt><trkpt lat="45.7578471" lon="10.5617443"><ele>1192.2857142857142</ele><time>2026-03-22T10:47:33.554Z</time></trkpt><trkpt lat="45.7578027" lon="10.5618178"><ele>1191.857142857143</ele><time>2026-03-22T10:47:39.543Z</time></trkpt><trkpt lat="45.7577558" lon="10.5618941"><ele>1191.4285714285716</ele><time>2026-03-22T10:47:45.556Z</time></trkpt><trkpt lat="45.7577236" lon="10.561983"><ele>1191.0</ele><time>2026-03-22T10:47:52.536Z</time></trkpt><trkpt lat="45.7576969" lon="10.5620754"><ele>1191.0</ele><time>2026-03-22T10:47:59.556Z</time></trkpt><trkpt lat="45.7576702" lon="10.562172"><ele>1191.0</ele><time>2026-03-22T10:48:06.544Z</time></trkpt><trkpt lat="45.757638" lon="10.5622657"><ele>1191.0</ele><time>2026-03-22T10:48:13.548Z</time></trkpt><trkpt lat="45.757635" lon="10.5623605"><ele>1191.0</ele><time>2026-03-22T10:48:19.557Z</time></trkpt><trkpt lat="45.7576257" lon="10.5624631"><ele>1191.0</ele><time>2026-03-22T10:48:26.554Z</time></trkpt><trkpt lat="45.7576051" lon="10.5625637"><ele>1191.0</ele><time>2026-03-22T10:48:32.548Z</time></trkpt><trkpt lat="45.7576084" lon="10.5626681"><ele>1191.0</ele><time>2026-03-22T10:48:39.554Z</time></trkpt><trkpt lat="45.7576069" lon="10.5627584"><ele>1191.0</ele><time>2026-03-22T10:48:45.557Z</time></trkpt><trkpt lat="45.7576084" lon="10.5628505"><ele>1191.0</ele><time>2026-03-22T10:48:51.554Z</time></trkpt><trkpt lat="45.7575944" lon="10.5629399"><ele>1191.0</ele><time>2026-03-22T10:48:57.549Z</time></trkpt><trkpt lat="45.7575766" lon="10.5630331"><ele>1191.0</ele><time>2026-03-22T10:49:05.546Z</time></trkpt><trkpt lat="45.7575622" lon="10.5631285"><ele>1191.0</ele><time>2026-03-22T10:49:12.56Z</time></trkpt><trkpt lat="45.7575332" lon="10.5632255"><ele>1191.0</ele><time>2026-03-22T10:49:20.597Z</time></trkpt><trkpt lat="45.7575046" lon="10.5633158"><ele>1191.0</ele><time>2026-03-22T10:49:25.538Z</time></trkpt><trkpt lat="45.7574673" lon="10.5633906"><ele>1193.4285714285716</ele><time>2026-03-22T10:49:30.547Z</time></trkpt><trkpt lat="45.7574433" lon="10.5634845"><ele>1195.857142857143</ele><time>2026-03-22T10:49:35.565Z</time></trkpt><trkpt lat="45.7574236" lon="10.5635713"><ele>1198.2857142857142</ele><time>2026-03-22T10:49:40.543Z</time></trkpt><trkpt lat="45.7573915" lon="10.5636661"><ele>1200.7142857142858</ele><time>2026-03-22T10:49:46.544Z</time></trkpt><trkpt lat="45.7573712" lon="10.5637525"><ele>1203.142857142857</ele><time>2026-03-22T10:49:51.546Z</time></trkpt><trkpt lat="45.7573571" lon="10.563846"><ele>1205.5714285714287</ele><time>2026-03-22T10:49:56.54Z</time></trkpt><trkpt lat="45.7573569" lon="10.5639467"><ele>1208.0</ele><time>2026-03-22T10:50:04.546Z</time></trkpt><trkpt lat="45.7573909" lon="10.5640368"><ele>1208.0000000000002</ele><time>2026-03-22T10:50:11.542Z</time></trkpt><trkpt lat="45.7574538" lon="10.5640517"><ele>1208.0</ele><time>2026-03-22T10:50:17.554Z</time></trkpt><trkpt lat="45.7574672" lon="10.5639508"><ele>1208.0</ele><time>2026-03-22T10:50:23.558Z</time></trkpt><trkpt lat="45.7574923" lon="10.5638592"><ele>1208.0</ele><time>2026-03-22T10:50:30.54Z</time></trkpt><trkpt lat="45.7575435" lon="10.5638048"><ele>1208.0</ele><time>2026-03-22T10:50:36.539Z</time></trkpt><trkpt lat="45.7575867" lon="10.5637226"><ele>1208.0000000000002</ele><time>2026-03-22T10:50:43.55Z</time></trkpt><trkpt lat="45.7576343" lon="10.5636609"><ele>1208.0</ele><time>2026-03-22T10:50:48.544Z</time></trkpt><trkpt lat="45.7576931" lon="10.5635945"><ele>1212.1428571428573</ele><time>2026-03-22T10:50:53.553Z</time></trkpt><trkpt lat="45.7577518" lon="10.5635299"><ele>1216.2857142857142</ele><time>2026-03-22T10:50:58.553Z</time></trkpt><trkpt lat="45.7578063" lon="10.5634569"><ele>1220.4285714285716</ele><time>2026-03-22T10:51:03.551Z</time></trkpt><trkpt lat="45.7578544" lon="10.5633807"><ele>1224.5714285714287</ele><time>2026-03-22T10:51:08.551Z</time></trkpt><trkpt lat="45.7579001" lon="10.563313"><ele>1228.7142857142858</ele><time>2026-03-22T10:51:13.549Z</time></trkpt><trkpt lat="45.7579517" lon="10.5632414"><ele>1232.857142857143</ele><time>2026-03-22T10:51:18.551Z</time></trkpt><trkpt lat="45.7580025" lon="10.5631783"><ele>1237.0</ele><time>2026-03-22T10:51:24.552Z</time></trkpt><trkpt lat="45.7580476" lon="10.5631085"><ele>1237.0</ele><time>2026-03-22T10:51:29.545Z</time></trkpt><trkpt lat="45.7581102" lon="10.5630505"><ele>1237.0</ele><time>2026-03-22T10:51:34.554Z</time></trkpt><trkpt lat="45.7581619" lon="10.5629749"><ele>1237.0</ele><time>2026-03-22T10:51:39.544Z</time></trkpt><trkpt lat="45.7582162" lon="10.5629275"><ele>1237.0</ele><time>2026-03-22T10:51:44.566Z</time></trkpt><trkpt lat="45.7582821" lon="10.5629083"><ele>1237.0</ele><time>2026-03-22T10:51:50.555Z</time></trkpt><trkpt lat="45.7583483" lon="10.5629224"><ele>1237.0</ele><time>2026-03-22T10:51:56.542Z</time></trkpt><trkpt lat="45.7583685" lon="10.563011"><ele>1237.0</ele><time>2026-03-22T10:52:03.543Z</time></trkpt><trkpt lat="45.7583538" lon="10.5631086"><ele>1237.0</ele><time>2026-03-22T10:52:11.546Z</time></trkpt><trkpt lat="45.7583253" lon="10.5631967"><ele>1237.0</ele><time>2026-03-22T10:52:18.559Z</time></trkpt><trkpt lat="45.7582881" lon="10.5632768"><ele>1237.0</ele><time>2026-03-22T10:52:24.597Z</time></trkpt><trkpt lat="45.7582335" lon="10.5633453"><ele>1237.0</ele><time>2026-03-22T10:52:31.543Z</time></trkpt><trkpt lat="45.7582006" lon="10.5634449"><ele>1237.0</ele><time>2026-03-22T10:52:37.545Z</time></trkpt><trkpt lat="45.7581625" lon="10.563519"><ele>1237.0</ele><time>2026-03-22T10:52:42.556Z</time></trkpt><trkpt lat="45.7581364" lon="10.5636187"><ele>1237.0</ele><time>2026-03-22T10:52:48.548Z</time></trkpt><trkpt lat="45.7581347" lon="10.5637175"><ele>1237.4285714285713</ele><time>2026-03-22T10:52:54.549Z</time></trkpt><trkpt lat="45.7581289" lon="10.5638082"><ele>1237.857142857143</ele><time>2026-03-22T10:53:00.599Z</time></trkpt><trkpt lat="45.7581345" lon="10.5639132"><ele>1238.2857142857142</ele><time>2026-03-22T10:53:07.551Z</time></trkpt><trkpt lat="45.7581721" lon="10.5639928"><ele>1238.7142857142858</ele><time>2026-03-22T10:53:13.535Z</time></trkpt><trkpt lat="45.7581999" lon="10.5640887"><ele>1239.142857142857</ele><time>2026-03-22T10:53:19.625Z</time></trkpt><trkpt lat="45.7582361" lon="10.5639984"><ele>1239.5714285714287</ele><time>2026-03-22T10:55:46.543Z</time></trkpt><trkpt lat="45.758293" lon="10.5639296"><ele>1240.0</ele><time>2026-03-22T10:55:52.544Z</time></trkpt><trkpt lat="45.7583331" lon="10.5638517"><ele>1240.0</ele><time>2026-03-22T10:55:57.548Z</time></trkpt><trkpt lat="45.7583885" lon="10.5637944"><ele>1240.0</ele><time>2026-03-22T10:56:03.559Z</time></trkpt><trkpt lat="45.7584399" lon="10.5637386"><ele>1240.0</ele><time>2026-03-22T10:56:08.554Z</time></trkpt><trkpt lat="45.7584996" lon="10.5637022"><ele>1240.0</ele><time>2026-03-22T10:56:14.551Z</time></trkpt><trkpt lat="45.7585659" lon="10.5636591"><ele>1240.0</ele><time>2026-03-22T10:56:21.548Z</time></trkpt><trkpt lat="45.7586279" lon="10.5636366"><ele>1240.0</ele><time>2026-03-22T10:56:27.548Z</time></trkpt><trkpt lat="45.7586942" lon="10.563592"><ele>1240.0</ele><time>2026-03-22T10:56:37.554Z</time></trkpt><trkpt lat="45.7587564" lon="10.5635726"><ele>1243.5714285714287</ele><time>2026-03-22T10:56:44.553Z</time></trkpt><trkpt lat="45.758813" lon="10.5635172"><ele>1247.142857142857</ele><time>2026-03-22T10:56:50.549Z</time></trkpt><trkpt lat="45.7588681" lon="10.5634626"><ele>1250.7142857142858</ele><time>2026-03-22T10:56:56.542Z</time></trkpt><trkpt lat="45.7589158" lon="10.5634008"><ele>1254.2857142857142</ele><time>2026-03-22T10:57:04.546Z</time></trkpt><trkpt lat="45.7589764" lon="10.5633365"><ele>1257.857142857143</ele><time>2026-03-22T10:57:14.56Z</time></trkpt><trkpt lat="45.7590125" lon="10.5632608"><ele>1261.4285714285713</ele><time>2026-03-22T10:57:21.593Z</time></trkpt><trkpt lat="45.7590709" lon="10.5632201"><ele>1265.0</ele><time>2026-03-22T10:57:27.544Z</time></trkpt><trkpt lat="45.7590995" lon="10.5631389"><ele>1265.0</ele><time>2026-03-22T10:57:35.548Z</time></trkpt><trkpt lat="45.7591419" lon="10.5630653"><ele>1265.0</ele><time>2026-03-22T10:57:42.546Z</time></trkpt><trkpt lat="45.7591919" lon="10.5629925"><ele>1265.0</ele><time>2026-03-22T10:57:49.556Z</time></trkpt><trkpt lat="45.7592284" lon="10.5629149"><ele>1265.0</ele><time>2026-03-22T10:57:55.549Z</time></trkpt><trkpt lat="45.759253" lon="10.5628244"><ele>1265.0</ele><time>2026-03-22T10:58:02.552Z</time></trkpt><trkpt lat="45.7593013" lon="10.5627591"><ele>1265.0</ele><time>2026-03-22T10:58:08.545Z</time></trkpt><trkpt lat="45.7593313" lon="10.5626793"><ele>1265.0</ele><time>2026-03-22T10:58:14.557Z</time></trkpt><trkpt lat="45.7593714" lon="10.5626028"><ele>1268.857142857143</ele><time>2026-03-22T10:58:21.557Z</time></trkpt><trkpt lat="45.7594243" lon="10.5625347"><ele>1272.7142857142858</ele><time>2026-03-22T10:58:28.553Z</time></trkpt><trkpt lat="45.7594677" lon="10.5624659"><ele>1276.5714285714287</ele><time>2026-03-22T10:58:35.555Z</time></trkpt><trkpt lat="45.7594995" lon="10.5623839"><ele>1280.4285714285716</ele><time>2026-03-22T10:58:42.55Z</time></trkpt><trkpt lat="45.7595263" lon="10.5622848"><ele>1284.2857142857142</ele><time>2026-03-22T10:58:49.559Z</time></trkpt><trkpt lat="45.7595589" lon="10.5622038"><ele>1288.1428571428573</ele><time>2026-03-22T10:58:55.562Z</time></trkpt><trkpt lat="45.7595754" lon="10.562115"><ele>1292.0</ele><time>2026-03-22T10:59:02.612Z</time></trkpt><trkpt lat="45.7596009" lon="10.5620259"><ele>1292.5714285714287</ele><time>2026-03-22T10:59:08.544Z</time></trkpt><trkpt lat="45.7596343" lon="10.5619367"><ele>1293.142857142857</ele><time>2026-03-22T10:59:15.548Z</time></trkpt><trkpt lat="45.7596604" lon="10.5618448"><ele>1293.7142857142858</ele><time>2026-03-22T10:59:21.552Z</time></trkpt><trkpt lat="45.7596984" lon="10.5617568"><ele>1294.2857142857142</ele><time>2026-03-22T10:59:29.554Z</time></trkpt><trkpt lat="45.7597272" lon="10.5616681"><ele>1294.857142857143</ele><time>2026-03-22T10:59:36.556Z</time></trkpt><trkpt lat="45.7597296" lon="10.5615643"><ele>1295.4285714285716</ele><time>2026-03-22T10:59:43.589Z</time></trkpt><trkpt lat="45.7597722" lon="10.5614858"><ele>1296.0</ele><time>2026-03-22T10:59:49.551Z</time></trkpt><trkpt lat="45.7597772" lon="10.5613876"><ele>1296.0</ele><time>2026-03-22T10:59:55.557Z</time></trkpt><trkpt lat="45.7598134" lon="10.5613022"><ele>1296.0</ele><time>2026-03-22T11:00:02.554Z</time></trkpt><trkpt lat="45.759856" lon="10.561224"><ele>1296.0</ele><time>2026-03-22T11:00:09.595Z</time></trkpt><trkpt lat="45.7598782" lon="10.5611363"><ele>1296.0</ele><time>2026-03-22T11:00:15.554Z</time></trkpt><trkpt lat="45.7599263" lon="10.5610727"><ele>1296.0</ele><time>2026-03-22T11:00:22.549Z</time></trkpt><trkpt lat="45.7599667" lon="10.5609986"><ele>1296.0</ele><time>2026-03-22T11:00:29.589Z</time></trkpt><trkpt lat="45.7599952" lon="10.5609106"><ele>1296.0</ele><time>2026-03-22T11:00:35.556Z</time></trkpt><trkpt lat="45.7600311" lon="10.5608275"><ele>1295.4285714285716</ele><time>2026-03-22T11:00:42.549Z</time></trkpt><trkpt lat="45.7600773" lon="10.5607661"><ele>1294.857142857143</ele><time>2026-03-22T11:00:48.555Z</time></trkpt><trkpt lat="45.7601223" lon="10.5606868"><ele>1294.2857142857142</ele><time>2026-03-22T11:00:54.561Z</time></trkpt><trkpt lat="45.7601315" lon="10.5605887"><ele>1293.7142857142858</ele><time>2026-03-22T11:01:00.546Z</time></trkpt><trkpt lat="45.7601605" lon="10.5604917"><ele>1293.142857142857</ele><time>2026-03-22T11:01:05.554Z</time></trkpt><trkpt lat="45.7601873" lon="10.5604078"><ele>1292.5714285714287</ele><time>2026-03-22T11:01:11.543Z</time></trkpt><trkpt lat="45.7602237" lon="10.5604868"><ele>1292.0</ele><time>2026-03-22T11:02:17.549Z</time></trkpt><trkpt lat="45.760213" lon="10.560577"><ele>1296.1428571428573</ele><time>2026-03-22T11:02:22.55Z</time></trkpt><trkpt lat="45.7602135" lon="10.5606694"><ele>1300.2857142857142</ele><time>2026-03-22T11:02:27.553Z</time></trkpt><trkpt lat="45.7602198" lon="10.56076"><ele>1304.4285714285716</ele><time>2026-03-22T11:02:32.547Z</time></trkpt><trkpt lat="45.7602281" lon="10.5608602"><ele>1308.5714285714287</ele><time>2026-03-22T11:02:38.569Z</time></trkpt><trkpt lat="45.7602444" lon="10.5609616"><ele>1312.7142857142858</ele><time>2026-03-22T11:02:44.593Z</time></trkpt><trkpt lat="45.7602545" lon="10.5610532"><ele>1316.857142857143</ele><time>2026-03-22T11:02:49.548Z</time></trkpt><trkpt lat="45.760257" lon="10.5611542"><ele>1321.0</ele><time>2026-03-22T11:02:54.594Z</time></trkpt><trkpt lat="45.760327" lon="10.5611225"><ele>1321.0</ele><time>2026-03-22T11:03:00.601Z</time></trkpt><trkpt lat="45.7603437" lon="10.5610202"><ele>1321.0</ele><time>2026-03-22T11:03:05.557Z</time></trkpt><trkpt lat="45.7603703" lon="10.5609319"><ele>1321.0</ele><time>2026-03-22T11:03:10.59Z</time></trkpt><trkpt lat="45.7603963" lon="10.5608328"><ele>1321.0</ele><time>2026-03-22T11:03:16.546Z</time></trkpt><trkpt lat="45.7604311" lon="10.5607551"><ele>1321.0</ele><time>2026-03-22T11:03:21.606Z</time></trkpt><trkpt lat="45.7604615" lon="10.5606613"><ele>1321.0</ele><time>2026-03-22T11:03:28.557Z</time></trkpt><trkpt lat="45.7604911" lon="10.5605626"><ele>1321.0</ele><time>2026-03-22T11:03:34.548Z</time></trkpt><trkpt lat="45.7605279" lon="10.5604709"><ele>1321.0</ele><time>2026-03-22T11:03:40.55Z</time></trkpt><trkpt lat="45.7605656" lon="10.560377"><ele>1321.0</ele><time>2026-03-22T11:03:46.546Z</time></trkpt><trkpt lat="45.7606012" lon="10.5602888"><ele>1321.0</ele><time>2026-03-22T11:03:52.544Z</time></trkpt><trkpt lat="45.760633" lon="10.5602017"><ele>1321.0</ele><time>2026-03-22T11:03:58.546Z</time></trkpt><trkpt lat="45.7606762" lon="10.5601236"><ele>1321.0</ele><time>2026-03-22T11:04:04.612Z</time></trkpt><trkpt lat="45.7607035" lon="10.5600344"><ele>1321.0</ele><time>2026-03-22T11:04:09.55Z</time></trkpt><trkpt lat="45.7607451" lon="10.5599504"><ele>1321.0</ele><time>2026-03-22T11:04:15.539Z</time></trkpt><trkpt lat="45.7607898" lon="10.5598729"><ele>1321.5714285714284</ele><time>2026-03-22T11:04:21.56Z</time></trkpt><trkpt lat="45.7608446" lon="10.5597994"><ele>1322.1428571428573</ele><time>2026-03-22T11:04:28.563Z</time></trkpt><trkpt lat="45.7608976" lon="10.5597322"><ele>1322.7142857142858</ele><time>2026-03-22T11:04:34.553Z</time></trkpt><trkpt lat="45.7609436" lon="10.5596649"><ele>1323.2857142857142</ele><time>2026-03-22T11:04:40.638Z</time></trkpt><trkpt lat="45.7610025" lon="10.5596009"><ele>1323.8571428571427</ele><time>2026-03-22T11:04:46.555Z</time></trkpt><trkpt lat="45.7610609" lon="10.5595467"><ele>1324.4285714285716</ele><time>2026-03-22T11:04:52.55Z</time></trkpt><trkpt lat="45.7611264" lon="10.5595005"><ele>1325.0</ele><time>2026-03-22T11:04:58.537Z</time></trkpt><trkpt lat="45.7611746" lon="10.5594393"><ele>1327.4285714285716</ele><time>2026-03-22T11:05:03.563Z</time></trkpt><trkpt lat="45.7612357" lon="10.5594046"><ele>1329.8571428571427</ele><time>2026-03-22T11:05:09.548Z</time></trkpt><trkpt lat="45.7612942" lon="10.5593517"><ele>1332.2857142857142</ele><time>2026-03-22T11:05:15.545Z</time></trkpt><trkpt lat="45.7613594" lon="10.5592936"><ele>1334.7142857142858</ele><time>2026-03-22T11:05:21.556Z</time></trkpt><trkpt lat="45.7614105" lon="10.5592379"><ele>1337.1428571428573</ele><time>2026-03-22T11:05:26.547Z</time></trkpt><trkpt lat="45.7614649" lon="10.5591735"><ele>1339.5714285714284</ele><time>2026-03-22T11:05:32.551Z</time></trkpt><trkpt lat="45.7615176" lon="10.559118"><ele>1342.0</ele><time>2026-03-22T11:05:37.555Z</time></trkpt><trkpt lat="45.7615519" lon="10.5590332"><ele>1342.0</ele><time>2026-03-22T11:05:43.548Z</time></trkpt><trkpt lat="45.7615878" lon="10.5589504"><ele>1342.0</ele><time>2026-03-22T11:05:50.552Z</time></trkpt><trkpt lat="45.7616128" lon="10.5588608"><ele>1342.0</ele><time>2026-03-22T11:05:56.556Z</time></trkpt><trkpt lat="45.7616249" lon="10.5587665"><ele>1342.0</ele><time>2026-03-22T11:06:03.552Z</time></trkpt><trkpt lat="45.7616149" lon="10.5586684"><ele>1342.0</ele><time>2026-03-22T11:06:10.547Z</time></trkpt><trkpt lat="45.7616139" lon="10.5585694"><ele>1342.0</ele><time>2026-03-22T11:06:17.547Z</time></trkpt><trkpt lat="45.7616136" lon="10.558466"><ele>1342.0</ele><time>2026-03-22T11:06:24.605Z</time></trkpt><trkpt lat="45.7616533" lon="10.558378"><ele>1341.857142857143</ele><time>2026-03-22T11:06:31.552Z</time></trkpt><trkpt lat="45.7617098" lon="10.558322"><ele>1341.7142857142858</ele><time>2026-03-22T11:06:38.57Z</time></trkpt><trkpt lat="45.761763" lon="10.5582567"><ele>1341.5714285714287</ele><time>2026-03-22T11:06:44.543Z</time></trkpt><trkpt lat="45.7618061" lon="10.558188"><ele>1341.4285714285716</ele><time>2026-03-22T11:06:49.557Z</time></trkpt><trkpt lat="45.7618564" lon="10.5581143"><ele>1341.2857142857142</ele><time>2026-03-22T11:06:55.55Z</time></trkpt><trkpt lat="45.7619071" lon="10.5580532"><ele>1341.1428571428573</ele><time>2026-03-22T11:07:00.547Z</time></trkpt><trkpt lat="45.7619596" lon="10.557989"><ele>1341.0</ele><time>2026-03-22T11:07:06.565Z</time></trkpt><trkpt lat="45.7620036" lon="10.5579213"><ele>1344.2857142857144</ele><time>2026-03-22T11:07:12.547Z</time></trkpt><trkpt lat="45.7620528" lon="10.5578451"><ele>1347.5714285714287</ele><time>2026-03-22T11:07:17.56Z</time></trkpt><trkpt lat="45.7620904" lon="10.5577534"><ele>1350.857142857143</ele><time>2026-03-22T11:07:23.552Z</time></trkpt><trkpt lat="45.7621316" lon="10.5576707"><ele>1354.1428571428573</ele><time>2026-03-22T11:07:29.569Z</time></trkpt><trkpt lat="45.7621673" lon="10.557595"><ele>1357.4285714285716</ele><time>2026-03-22T11:07:35.555Z</time></trkpt><trkpt lat="45.7622003" lon="10.5575073"><ele>1360.7142857142858</ele><time>2026-03-22T11:07:40.568Z</time></trkpt><trkpt lat="45.7622235" lon="10.5574123"><ele>1364.0</ele><time>2026-03-22T11:07:45.553Z</time></trkpt><trkpt lat="45.7622498" lon="10.5573259"><ele>1364.0</ele><time>2026-03-22T11:07:50.552Z</time></trkpt><trkpt lat="45.762267" lon="10.5572275"><ele>1364.0</ele><time>2026-03-22T11:07:55.545Z</time></trkpt><trkpt lat="45.7622787" lon="10.5571326"><ele>1364.0</ele><time>2026-03-22T11:08:00.555Z</time></trkpt><trkpt lat="45.7622938" lon="10.5570407"><ele>1364.0</ele><time>2026-03-22T11:08:05.553Z</time></trkpt><trkpt lat="45.7623027" lon="10.5569475"><ele>1364.0</ele><time>2026-03-22T11:08:10.546Z</time></trkpt><trkpt lat="45.7623152" lon="10.5568499"><ele>1364.0</ele><time>2026-03-22T11:08:17.558Z</time></trkpt><trkpt lat="45.7623258" lon="10.5567538"><ele>1364.0</ele><time>2026-03-22T11:08:21.551Z</time></trkpt><trkpt lat="45.7623345" lon="10.5566388"><ele>1364.4285714285713</ele><time>2026-03-22T11:08:26.555Z</time></trkpt><trkpt lat="45.7623459" lon="10.5565425"><ele>1364.857142857143</ele><time>2026-03-22T11:08:30.552Z</time></trkpt><trkpt lat="45.7623509" lon="10.5564399"><ele>1365.2857142857142</ele><time>2026-03-22T11:08:34.549Z</time></trkpt><trkpt lat="45.7623663" lon="10.5563468"><ele>1365.7142857142858</ele><time>2026-03-22T11:08:38.551Z</time></trkpt><trkpt lat="45.7623709" lon="10.5562355"><ele>1366.142857142857</ele><time>2026-03-22T11:08:43.557Z</time></trkpt><trkpt lat="45.7623428" lon="10.5561514"><ele>1366.5714285714287</ele><time>2026-03-22T11:08:47.562Z</time></trkpt><trkpt lat="45.762319" lon="10.5560532"><ele>1367.0</ele><time>2026-03-22T11:08:52.552Z</time></trkpt><trkpt lat="45.7622958" lon="10.5559637"><ele>1368.0</ele><time>2026-03-22T11:08:57.544Z</time></trkpt><trkpt lat="45.7622839" lon="10.5558695"><ele>1369.0</ele><time>2026-03-22T11:10:06.545Z</time></trkpt><trkpt lat="45.7622736" lon="10.5557803"><ele>1370.0</ele><time>2026-03-22T11:10:11.549Z</time></trkpt><trkpt lat="45.7622792" lon="10.5556813"><ele>1371.0</ele><time>2026-03-22T11:10:17.546Z</time></trkpt><trkpt lat="45.7623011" lon="10.5555951"><ele>1372.0</ele><time>2026-03-22T11:10:22.555Z</time></trkpt><trkpt lat="45.7623266" lon="10.5555078"><ele>1373.0</ele><time>2026-03-22T11:10:29.598Z</time></trkpt><trkpt lat="45.7623489" lon="10.5554158"><ele>1374.0</ele><time>2026-03-22T11:11:13.604Z</time></trkpt><trkpt lat="45.762383" lon="10.5553286"><ele>1374.0</ele><time>2026-03-22T11:11:19.55Z</time></trkpt><trkpt lat="45.7624177" lon="10.5552392"><ele>1374.0</ele><time>2026-03-22T11:11:24.592Z</time></trkpt><trkpt lat="45.7624506" lon="10.5551473"><ele>1374.0</ele><time>2026-03-22T11:11:29.597Z</time></trkpt><trkpt lat="45.7624651" lon="10.5550469"><ele>1374.0</ele><time>2026-03-22T11:11:34.611Z</time></trkpt><trkpt lat="45.7624872" lon="10.5549501"><ele>1374.0</ele><time>2026-03-22T11:11:40.572Z</time></trkpt><trkpt lat="45.7625085" lon="10.5548497"><ele>1374.0</ele><time>2026-03-22T11:11:46.546Z</time></trkpt><trkpt lat="45.7625337" lon="10.554754"><ele>1374.0</ele><time>2026-03-22T11:11:52.546Z</time></trkpt><trkpt lat="45.7625599" lon="10.554671"><ele>1374.0</ele><time>2026-03-22T11:11:57.558Z</time></trkpt><trkpt lat="45.7625979" lon="10.5545847"><ele>1374.0</ele><time>2026-03-22T11:12:03.549Z</time></trkpt><trkpt lat="45.7626305" lon="10.5544907"><ele>1374.0</ele><time>2026-03-22T11:12:09.562Z</time></trkpt><trkpt lat="45.7626635" lon="10.5543992"><ele>1374.0</ele><time>2026-03-22T11:12:15.55Z</time></trkpt><trkpt lat="45.7626885" lon="10.5543042"><ele>1374.0</ele><time>2026-03-22T11:12:21.554Z</time></trkpt><trkpt lat="45.7627241" lon="10.5542291"><ele>1374.0</ele><time>2026-03-22T11:12:27.603Z</time></trkpt><trkpt lat="45.762763" lon="10.5541422"><ele>1374.0</ele><time>2026-03-22T11:12:33.589Z</time></trkpt><trkpt lat="45.7628067" lon="10.5540628"><ele>1376.857142857143</ele><time>2026-03-22T11:12:39.606Z</time></trkpt><trkpt lat="45.7628291" lon="10.5539665"><ele>1379.7142857142856</ele><time>2026-03-22T11:12:44.549Z</time></trkpt><trkpt lat="45.7628566" lon="10.5538736"><ele>1382.5714285714284</ele><time>2026-03-22T11:12:49.611Z</time></trkpt><trkpt lat="45.7628934" lon="10.5537964"><ele>1385.4285714285716</ele><time>2026-03-22T11:12:54.557Z</time></trkpt><trkpt lat="45.7629261" lon="10.5537155"><ele>1388.2857142857142</ele><time>2026-03-22T11:12:59.545Z</time></trkpt><trkpt lat="45.7629537" lon="10.5536258"><ele>1391.142857142857</ele><time>2026-03-22T11:13:04.61Z</time></trkpt><trkpt lat="45.7629774" lon="10.5535377"><ele>1394.0</ele><time>2026-03-22T11:13:09.551Z</time></trkpt><trkpt lat="45.7630059" lon="10.5534483"><ele>1394.142857142857</ele><time>2026-03-22T11:13:14.554Z</time></trkpt><trkpt lat="45.7630434" lon="10.5533718"><ele>1394.2857142857142</ele><time>2026-03-22T11:13:19.611Z</time></trkpt><trkpt lat="45.7630755" lon="10.553279"><ele>1394.4285714285716</ele><time>2026-03-22T11:13:24.559Z</time></trkpt><trkpt lat="45.7631159" lon="10.553208"><ele>1394.5714285714284</ele><time>2026-03-22T11:13:28.595Z</time></trkpt><trkpt lat="45.7631582" lon="10.5531154"><ele>1394.7142857142856</ele><time>2026-03-22T11:13:33.614Z</time></trkpt><trkpt lat="45.7631995" lon="10.5530438"><ele>1394.857142857143</ele><time>2026-03-22T11:13:37.581Z</time></trkpt><trkpt lat="45.7632435" lon="10.5529682"><ele>1395.0</ele><time>2026-03-22T11:13:41.591Z</time></trkpt><trkpt lat="45.7632907" lon="10.5528898"><ele>1394.0</ele><time>2026-03-22T11:13:45.59Z</time></trkpt><trkpt lat="45.763334" lon="10.5528202"><ele>1393.0</ele><time>2026-03-22T11:13:49.588Z</time></trkpt><trkpt lat="45.7633714" lon="10.552728"><ele>1392.0</ele><time>2026-03-22T11:13:53.603Z</time></trkpt><trkpt lat="45.7633973" lon="10.5526197"><ele>1391.0</ele><time>2026-03-22T11:13:57.591Z</time></trkpt><trkpt lat="45.7634104" lon="10.552518"><ele>1390.0</ele><time>2026-03-22T11:14:01.61Z</time></trkpt><trkpt lat="45.763416" lon="10.5524036"><ele>1389.0</ele><time>2026-03-22T11:14:05.607Z</time></trkpt><trkpt lat="45.7634133" lon="10.5522996"><ele>1388.0</ele><time>2026-03-22T11:14:09.594Z</time></trkpt><trkpt lat="45.7634096" lon="10.5521961"><ele>1388.0</ele><time>2026-03-22T11:14:13.572Z</time></trkpt><trkpt lat="45.7634377" lon="10.5520802"><ele>1388.0</ele><time>2026-03-22T11:14:17.566Z</time></trkpt><trkpt lat="45.7634567" lon="10.5519858"><ele>1388.0</ele><time>2026-03-22T11:14:20.61Z</time></trkpt><trkpt lat="45.763478" lon="10.5518969"><ele>1388.0</ele><time>2026-03-22T11:14:23.606Z</time></trkpt><trkpt lat="45.7634869" lon="10.5518012"><ele>1388.0</ele><time>2026-03-22T11:14:27.581Z</time></trkpt><trkpt lat="45.7634864" lon="10.5517092"><ele>1388.0</ele><time>2026-03-22T11:14:30.562Z</time></trkpt><trkpt lat="45.7634997" lon="10.5516171"><ele>1388.0</ele><time>2026-03-22T11:14:33.562Z</time></trkpt><trkpt lat="45.7635047" lon="10.5515268"><ele>1387.8333333333335</ele><time>2026-03-22T11:14:36.589Z</time></trkpt><trkpt lat="45.7635007" lon="10.5514131"><ele>1387.6666666666667</ele><time>2026-03-22T11:14:40.558Z</time></trkpt><trkpt lat="45.7635059" lon="10.5513092"><ele>1387.5</ele><time>2026-03-22T11:14:43.544Z</time></trkpt><trkpt lat="45.7635244" lon="10.5511945"><ele>1387.3333333333333</ele><time>2026-03-22T11:14:47.599Z</time></trkpt><trkpt lat="45.7635401" lon="10.5510852"><ele>1387.1666666666665</ele><time>2026-03-22T11:14:51.56Z</time></trkpt><trkpt lat="45.7635533" lon="10.55099"><ele>1387.0</ele><time>2026-03-22T11:14:54.564Z</time></trkpt><trkpt lat="45.7635722" lon="10.5508918"><ele>1389.2857142857142</ele><time>2026-03-22T11:14:58.157Z</time></trkpt><trkpt lat="45.7635934" lon="10.5507915"><ele>1391.5714285714284</ele><time>2026-03-22T11:15:01.664Z</time></trkpt><trkpt lat="45.7636313" lon="10.5507066"><ele>1393.8571428571427</ele><time>2026-03-22T11:15:04.571Z</time></trkpt><trkpt lat="45.7636677" lon="10.5506075"><ele>1396.142857142857</ele><time>2026-03-22T11:15:07.59Z</time></trkpt><trkpt lat="45.7636943" lon="10.5505172"><ele>1398.4285714285713</ele><time>2026-03-22T11:15:10.586Z</time></trkpt><trkpt lat="45.7637033" lon="10.5504249"><ele>1400.7142857142856</ele><time>2026-03-22T11:15:13.543Z</time></trkpt><trkpt lat="45.7637381" lon="10.5503228"><ele>1403.0</ele><time>2026-03-22T11:15:17.591Z</time></trkpt><trkpt lat="45.7637729" lon="10.5502393"><ele>1402.9999999999998</ele><time>2026-03-22T11:15:21.579Z</time></trkpt><trkpt lat="45.7638185" lon="10.5501306"><ele>1403.0</ele><time>2026-03-22T11:15:25.575Z</time></trkpt><trkpt lat="45.763858" lon="10.5500562"><ele>1403.0</ele><time>2026-03-22T11:15:28.58Z</time></trkpt><trkpt lat="45.7637917" lon="10.5500946"><ele>1403.0</ele><time>2026-03-22T11:41:08.6Z</time></trkpt><trkpt lat="45.763735" lon="10.5500428"><ele>1403.0</ele><time>2026-03-22T11:41:15.553Z</time></trkpt><trkpt lat="45.7636696" lon="10.5500422"><ele>1402.9999999999998</ele><time>2026-03-22T11:41:33.558Z</time></trkpt><trkpt lat="45.7637372" lon="10.5500246"><ele>1403.0</ele><time>2026-03-22T11:42:19.547Z</time></trkpt><trkpt lat="45.7637971" lon="10.5500727"><ele>1402.9999999999998</ele><time>2026-03-22T11:42:25.551Z</time></trkpt><trkpt lat="45.7638685" lon="10.5500346"><ele>1403.0</ele><time>2026-03-22T11:42:46.548Z</time></trkpt><trkpt lat="45.763933" lon="10.5500239"><ele>1403.0</ele><time>2026-03-22T11:42:53.553Z</time></trkpt><trkpt lat="45.7638703" lon="10.5500375"><ele>1403.0</ele><time>2026-03-22T11:48:43.575Z</time></trkpt><trkpt lat="45.7638972" lon="10.5501192"><ele>1403.0</ele><time>2026-03-22T11:51:54.611Z</time></trkpt><trkpt lat="45.7639703" lon="10.5501092"><ele>1402.9999999999998</ele><time>2026-03-22T11:51:58.555Z</time></trkpt><trkpt lat="45.7640416" lon="10.5500996"><ele>1403.0</ele><time>2026-03-22T11:52:02.593Z</time></trkpt><trkpt lat="45.7641086" lon="10.550083"><ele>1402.9999999999998</ele><time>2026-03-22T11:52:05.557Z</time></trkpt><trkpt lat="45.7641731" lon="10.5500541"><ele>1403.0</ele><time>2026-03-22T11:52:08.56Z</time></trkpt><trkpt lat="45.7642368" lon="10.5500105"><ele>1403.0</ele><time>2026-03-22T11:52:12.557Z</time></trkpt><trkpt lat="45.7642997" lon="10.5499582"><ele>1403.0</ele><time>2026-03-22T11:52:16.625Z</time></trkpt><trkpt lat="45.7643696" lon="10.5499094"><ele>1403.0</ele><time>2026-03-22T11:52:20.555Z</time></trkpt><trkpt lat="45.7644409" lon="10.5498588"><ele>1402.9999999999998</ele><time>2026-03-22T11:52:25.602Z</time></trkpt><trkpt lat="45.7645169" lon="10.5498391"><ele>1403.0</ele><time>2026-03-22T11:52:29.562Z</time></trkpt><trkpt lat="45.764583" lon="10.5497982"><ele>1404.6666666666667</ele><time>2026-03-22T11:52:33.621Z</time></trkpt><trkpt lat="45.7646583" lon="10.5497764"><ele>1406.3333333333335</ele><time>2026-03-22T11:52:37.588Z</time></trkpt><trkpt lat="45.7647296" lon="10.5497752"><ele>1408.0</ele><time>2026-03-22T11:52:41.568Z</time></trkpt><trkpt lat="45.7647925" lon="10.5497488"><ele>1409.6666666666667</ele><time>2026-03-22T11:52:44.56Z</time></trkpt><trkpt lat="45.7648679" lon="10.5497073"><ele>1411.3333333333333</ele><time>2026-03-22T11:52:48.577Z</time></trkpt><trkpt lat="45.7649389" lon="10.5496645"><ele>1413.0</ele><time>2026-03-22T11:52:52.56Z</time></trkpt><trkpt lat="45.7650178" lon="10.5496596"><ele>1413.0</ele><time>2026-03-22T11:52:56.561Z</time></trkpt><trkpt lat="45.7650898" lon="10.5496678"><ele>1413.0</ele><time>2026-03-22T11:52:59.568Z</time></trkpt><trkpt lat="45.7651684" lon="10.5496674"><ele>1413.0</ele><time>2026-03-22T11:53:03.568Z</time></trkpt><trkpt lat="45.7652405" lon="10.5496809"><ele>1413.0</ele><time>2026-03-22T11:53:06.563Z</time></trkpt><trkpt lat="45.7653137" lon="10.5496959"><ele>1413.0</ele><time>2026-03-22T11:53:09.596Z</time></trkpt><trkpt lat="45.765388" lon="10.5497057"><ele>1413.0</ele><time>2026-03-22T11:53:12.56Z</time></trkpt><trkpt lat="45.7654595" lon="10.5496593"><ele>1413.857142857143</ele><time>2026-03-22T11:53:16.557Z</time></trkpt><trkpt lat="45.7654832" lon="10.549574"><ele>1414.7142857142858</ele><time>2026-03-22T11:53:20.589Z</time></trkpt><trkpt lat="45.7655052" lon="10.5494679"><ele>1415.5714285714284</ele><time>2026-03-22T11:53:24.567Z</time></trkpt><trkpt lat="45.765513" lon="10.5493731"><ele>1416.4285714285716</ele><time>2026-03-22T11:53:27.56Z</time></trkpt><trkpt lat="45.7655502" lon="10.5492858"><ele>1417.2857142857144</ele><time>2026-03-22T11:53:31.564Z</time></trkpt><trkpt lat="45.7655717" lon="10.5491965"><ele>1418.142857142857</ele><time>2026-03-22T11:53:34.578Z</time></trkpt><trkpt lat="45.7655825" lon="10.5490935"><ele>1419.0</ele><time>2026-03-22T11:53:38.566Z</time></trkpt><trkpt lat="45.7656013" lon="10.5490036"><ele>1419.0</ele><time>2026-03-22T11:53:42.617Z</time></trkpt><trkpt lat="45.7656197" lon="10.5488848"><ele>1419.0</ele><time>2026-03-22T11:53:46.56Z</time></trkpt><trkpt lat="45.7656448" lon="10.5487715"><ele>1419.0</ele><time>2026-03-22T11:53:50.565Z</time></trkpt><trkpt lat="45.7656845" lon="10.5486779"><ele>1419.0</ele><time>2026-03-22T11:53:55.569Z</time></trkpt><trkpt lat="45.7657346" lon="10.548612"><ele>1419.0</ele><time>2026-03-22T11:54:02.564Z</time></trkpt><trkpt lat="45.7658029" lon="10.5485819"><ele>1419.0</ele><time>2026-03-22T11:54:06.563Z</time></trkpt><trkpt lat="45.7658647" lon="10.5485604"><ele>1419.0</ele><time>2026-03-22T11:54:11.567Z</time></trkpt><trkpt lat="45.7658757" lon="10.5486498"><ele>1419.0</ele><time>2026-03-22T11:54:34.562Z</time></trkpt><trkpt lat="45.7658809" lon="10.5487542"><ele>1419.0</ele><time>2026-03-22T11:54:39.562Z</time></trkpt><trkpt lat="45.7658807" lon="10.5488514"><ele>1419.0</ele><time>2026-03-22T11:54:43.554Z</time></trkpt><trkpt lat="45.765905" lon="10.5489461"><ele>1419.0</ele><time>2026-03-22T11:54:47.564Z</time></trkpt><trkpt lat="45.7659716" lon="10.5489698"><ele>1419.0</ele><time>2026-03-22T11:54:52.557Z</time></trkpt><trkpt lat="45.765959" lon="10.5490697"><ele>1419.0</ele><time>2026-03-22T11:55:21.562Z</time></trkpt><trkpt lat="45.7660236" lon="10.5490971"><ele>1419.0</ele><time>2026-03-22T11:55:31.567Z</time></trkpt><trkpt lat="45.7660929" lon="10.5491003"><ele>1421.0</ele><time>2026-03-22T11:55:34.568Z</time></trkpt><trkpt lat="45.7661568" lon="10.5490693"><ele>1423.0</ele><time>2026-03-22T11:55:38.567Z</time></trkpt><trkpt lat="45.7662254" lon="10.5490453"><ele>1425.0</ele><time>2026-03-22T11:55:43.552Z</time></trkpt><trkpt lat="45.76629" lon="10.5490364"><ele>1427.0</ele><time>2026-03-22T11:55:50.559Z</time></trkpt><trkpt lat="45.766374" lon="10.5490472"><ele>1429.0</ele><time>2026-03-22T11:55:57.674Z</time></trkpt><trkpt lat="45.7664416" lon="10.5490256"><ele>1431.0</ele><time>2026-03-22T11:56:04.649Z</time></trkpt><trkpt lat="45.766506" lon="10.5490275"><ele>1433.0</ele><time>2026-03-22T11:56:08.571Z</time></trkpt><trkpt lat="45.7665692" lon="10.5489991"><ele>1433.0</ele><time>2026-03-22T11:56:12.573Z</time></trkpt><trkpt lat="45.766633" lon="10.5489811"><ele>1433.0</ele><time>2026-03-22T11:56:16.555Z</time></trkpt><trkpt lat="45.7666735" lon="10.5489106"><ele>1433.0</ele><time>2026-03-22T11:56:20.583Z</time></trkpt><trkpt lat="45.7667375" lon="10.5489129"><ele>1433.0</ele><time>2026-03-22T11:56:25.569Z</time></trkpt><trkpt lat="45.7667956" lon="10.5489711"><ele>1433.0</ele><time>2026-03-22T11:56:31.62Z</time></trkpt><trkpt lat="45.7666881" lon="10.548911"><ele>1433.0</ele><time>2026-03-22T11:56:59.568Z</time></trkpt><trkpt lat="45.7666377" lon="10.5489663"><ele>1433.0</ele><time>2026-03-22T11:57:06.566Z</time></trkpt><trkpt lat="45.766571" lon="10.5489451"><ele>1433.0</ele><time>2026-03-22T11:57:12.563Z</time></trkpt><trkpt lat="45.7665409" lon="10.5488544"><ele>1433.0</ele><time>2026-03-22T11:57:21.566Z</time></trkpt><trkpt lat="45.7665625" lon="10.5487685"><ele>1433.0</ele><time>2026-03-22T11:57:27.553Z</time></trkpt><trkpt lat="45.7665196" lon="10.5486835"><ele>1433.0</ele><time>2026-03-22T11:57:32.565Z</time></trkpt><trkpt lat="45.7664768" lon="10.5485734"><ele>1433.0</ele><time>2026-03-22T11:57:37.557Z</time></trkpt><trkpt lat="45.7664588" lon="10.5484862"><ele>1433.0</ele><time>2026-03-22T11:57:40.558Z</time></trkpt><trkpt lat="45.7664164" lon="10.5484055"><ele>1433.0</ele><time>2026-03-22T11:57:44.587Z</time></trkpt><trkpt lat="45.7664337" lon="10.5483002"><ele>1430.7142857142856</ele><time>2026-03-22T11:57:49.675Z</time></trkpt><trkpt lat="45.7664751" lon="10.5482289"><ele>1428.4285714285716</ele><time>2026-03-22T11:57:53.673Z</time></trkpt><trkpt lat="45.7665439" lon="10.5481982"><ele>1426.142857142857</ele><time>2026-03-22T11:57:58.609Z</time></trkpt><trkpt lat="45.7666166" lon="10.5481903"><ele>1423.8571428571427</ele><time>2026-03-22T11:58:51.561Z</time></trkpt><trkpt lat="45.766701" lon="10.5481652"><ele>1421.5714285714284</ele><time>2026-03-22T11:58:54.563Z</time></trkpt><trkpt lat="45.7667647" lon="10.5481265"><ele>1419.2857142857142</ele><time>2026-03-22T11:58:56.573Z</time></trkpt><trkpt lat="45.7668207" lon="10.5480794"><ele>1417.0</ele><time>2026-03-22T11:58:58.564Z</time></trkpt><trkpt lat="45.7668736" lon="10.5480258"><ele>1414.5714285714284</ele><time>2026-03-22T11:59:00.56Z</time></trkpt><trkpt lat="45.7669336" lon="10.547974"><ele>1412.142857142857</ele><time>2026-03-22T11:59:04.562Z</time></trkpt><trkpt lat="45.7669994" lon="10.5479481"><ele>1409.7142857142858</ele><time>2026-03-22T11:59:09.57Z</time></trkpt><trkpt lat="45.7670472" lon="10.5478843"><ele>1407.2857142857142</ele><time>2026-03-22T11:59:16.568Z</time></trkpt><trkpt lat="45.7670943" lon="10.547807"><ele>1404.857142857143</ele><time>2026-03-22T11:59:22.561Z</time></trkpt><trkpt lat="45.7671531" lon="10.5477366"><ele>1402.4285714285713</ele><time>2026-03-22T11:59:27.564Z</time></trkpt><trkpt lat="45.7671939" lon="10.547664"><ele>1400.0</ele><time>2026-03-22T11:59:32.621Z</time></trkpt><trkpt lat="45.7672323" lon="10.5475878"><ele>1400.0</ele><time>2026-03-22T11:59:37.563Z</time></trkpt><trkpt lat="45.7672463" lon="10.5474936"><ele>1400.0</ele><time>2026-03-22T11:59:57.564Z</time></trkpt><trkpt lat="45.7672998" lon="10.5474353"><ele>1400.0</ele><time>2026-03-22T12:00:06.562Z</time></trkpt><trkpt lat="45.767353" lon="10.5473804"><ele>1400.0</ele><time>2026-03-22T12:00:15.573Z</time></trkpt><trkpt lat="45.7673087" lon="10.5473043"><ele>1400.0</ele><time>2026-03-22T12:00:46.565Z</time></trkpt><trkpt lat="45.7672467" lon="10.5472393"><ele>1400.0</ele><time>2026-03-22T12:00:51.558Z</time></trkpt><trkpt lat="45.7672575" lon="10.5471192"><ele>1400.0</ele><time>2026-03-22T12:00:55.573Z</time></trkpt><trkpt lat="45.7672883" lon="10.5470345"><ele>1400.7142857142858</ele><time>2026-03-22T12:00:59.559Z</time></trkpt><trkpt lat="45.7673223" lon="10.5469534"><ele>1401.4285714285716</ele><time>2026-03-22T12:01:03.565Z</time></trkpt><trkpt lat="45.7673401" lon="10.5468505"><ele>1402.142857142857</ele><time>2026-03-22T12:01:09.566Z</time></trkpt><trkpt lat="45.7673446" lon="10.5467587"><ele>1402.857142857143</ele><time>2026-03-22T12:01:13.674Z</time></trkpt><trkpt lat="45.7673931" lon="10.5466631"><ele>1403.5714285714287</ele><time>2026-03-22T12:03:42.614Z</time></trkpt><trkpt lat="45.7674138" lon="10.5465776"><ele>1404.2857142857142</ele><time>2026-03-22T12:03:55.561Z</time></trkpt><trkpt lat="45.7674606" lon="10.5465115"><ele>1405.0</ele><time>2026-03-22T12:04:01.567Z</time></trkpt><trkpt lat="45.767421" lon="10.5465957"><ele>1405.0</ele><time>2026-03-22T12:10:56.58Z</time></trkpt><trkpt lat="45.7674243" lon="10.5467513"><ele>1405.0</ele><time>2026-03-22T12:11:31.576Z</time></trkpt><trkpt lat="45.7673871" lon="10.5468335"><ele>1405.0</ele><time>2026-03-22T12:11:35.561Z</time></trkpt><trkpt lat="45.7673952" lon="10.5469328"><ele>1405.0</ele><time>2026-03-22T12:11:41.567Z</time></trkpt><trkpt lat="45.7674103" lon="10.5470239"><ele>1405.0</ele><time>2026-03-22T12:11:47.579Z</time></trkpt><trkpt lat="45.7674198" lon="10.5469318"><ele>1405.0</ele><time>2026-03-22T12:12:20.62Z</time></trkpt><trkpt lat="45.7674216" lon="10.5468406"><ele>1405.0</ele><time>2026-03-22T12:12:29.622Z</time></trkpt><trkpt lat="45.7674073" lon="10.5467514"><ele>1405.0</ele><time>2026-03-22T12:12:41.574Z</time></trkpt><trkpt lat="45.7674218" lon="10.5466331"><ele>1405.0</ele><time>2026-03-22T12:12:53.572Z</time></trkpt><trkpt lat="45.7673973" lon="10.5465499"><ele>1405.0</ele><time>2026-03-22T12:13:01.585Z</time></trkpt><trkpt lat="45.7673992" lon="10.5466489"><ele>1405.0</ele><time>2026-03-22T12:13:21.653Z</time></trkpt><trkpt lat="45.7673672" lon="10.5467274"><ele>1405.0</ele><time>2026-03-22T12:14:05.561Z</time></trkpt><trkpt lat="45.7673517" lon="10.5466381"><ele>1405.0</ele><time>2026-03-22T12:15:58.625Z</time></trkpt><trkpt lat="45.7673203" lon="10.5465521"><ele>1405.0</ele><time>2026-03-22T12:16:18.578Z</time></trkpt><trkpt lat="45.7673704" lon="10.5464788"><ele>1405.0</ele><time>2026-03-22T12:16:55.563Z</time></trkpt><trkpt lat="45.7673407" lon="10.5465719"><ele>1405.0</ele><time>2026-03-22T12:17:42.576Z</time></trkpt><trkpt lat="45.7673618" lon="10.5466577"><ele>1405.0</ele><time>2026-03-22T12:17:54.625Z</time></trkpt><trkpt lat="45.7673681" lon="10.5468999"><ele>1405.0</ele><time>2026-03-22T12:24:15.598Z</time></trkpt><trkpt lat="45.7673445" lon="10.5469864"><ele>1405.0</ele><time>2026-03-22T12:24:17.58Z</time></trkpt><trkpt lat="45.7673049" lon="10.54708"><ele>1405.0</ele><time>2026-03-22T12:24:20.586Z</time></trkpt><trkpt lat="45.7672851" lon="10.5471814"><ele>1404.1666666666665</ele><time>2026-03-22T12:24:23.556Z</time></trkpt><trkpt lat="45.7673178" lon="10.5472658"><ele>1403.3333333333333</ele><time>2026-03-22T12:24:26.586Z</time></trkpt><trkpt lat="45.767392" lon="10.5472976"><ele>1402.5</ele><time>2026-03-22T12:24:31.587Z</time></trkpt><trkpt lat="45.7673422" lon="10.5473603"><ele>1401.6666666666667</ele><time>2026-03-22T12:24:52.577Z</time></trkpt><trkpt lat="45.767292" lon="10.5474463"><ele>1400.8333333333335</ele><time>2026-03-22T12:24:54.613Z</time></trkpt><trkpt lat="45.7672133" lon="10.5475374"><ele>1400.0</ele><time>2026-03-22T12:24:56.614Z</time></trkpt><trkpt lat="45.7671812" lon="10.5476362"><ele>1400.0</ele><time>2026-03-22T12:24:59.578Z</time></trkpt><trkpt lat="45.7671275" lon="10.5477435"><ele>1400.0</ele><time>2026-03-22T12:25:01.618Z</time></trkpt><trkpt lat="45.7670373" lon="10.5478556"><ele>1400.0</ele><time>2026-03-22T12:25:04.575Z</time></trkpt><trkpt lat="45.7669808" lon="10.5479125"><ele>1400.0</ele><time>2026-03-22T12:25:09.573Z</time></trkpt><trkpt lat="45.7669213" lon="10.547972"><ele>1400.0</ele><time>2026-03-22T12:25:14.618Z</time></trkpt><trkpt lat="45.7668591" lon="10.5479966"><ele>1400.0</ele><time>2026-03-22T12:25:19.578Z</time></trkpt><trkpt lat="45.7667967" lon="10.5480542"><ele>1402.4285714285713</ele><time>2026-03-22T12:25:25.581Z</time></trkpt><trkpt lat="45.7667249" lon="10.548063"><ele>1404.857142857143</ele><time>2026-03-22T12:25:29.567Z</time></trkpt><trkpt lat="45.7666535" lon="10.5480595"><ele>1407.2857142857142</ele><time>2026-03-22T12:25:33.586Z</time></trkpt><trkpt lat="45.7665965" lon="10.5481209"><ele>1409.7142857142858</ele><time>2026-03-22T12:25:38.631Z</time></trkpt><trkpt lat="45.7666695" lon="10.5481262"><ele>1412.142857142857</ele><time>2026-03-22T12:26:31.646Z</time></trkpt><trkpt lat="45.7667477" lon="10.5480889"><ele>1414.5714285714284</ele><time>2026-03-22T12:26:35.617Z</time></trkpt><trkpt lat="45.7668016" lon="10.5480189"><ele>1417.0</ele><time>2026-03-22T12:26:39.632Z</time></trkpt><trkpt lat="45.7668381" lon="10.5479387"><ele>1414.8333333333333</ele><time>2026-03-22T12:26:46.596Z</time></trkpt><trkpt lat="45.7668527" lon="10.5478393"><ele>1412.6666666666665</ele><time>2026-03-22T12:26:53.599Z</time></trkpt><trkpt lat="45.7668523" lon="10.5477427"><ele>1410.5</ele><time>2026-03-22T12:26:59.572Z</time></trkpt><trkpt lat="45.7668625" lon="10.5476314"><ele>1408.3333333333333</ele><time>2026-03-22T12:27:04.618Z</time></trkpt><trkpt lat="45.7669623" lon="10.547485"><ele>1406.1666666666667</ele><time>2026-03-22T12:28:22.566Z</time></trkpt><trkpt lat="45.7669828" lon="10.547395"><ele>1404.0</ele><time>2026-03-22T12:28:25.574Z</time></trkpt><trkpt lat="45.7670201" lon="10.5473214"><ele>1404.1666666666667</ele><time>2026-03-22T12:28:27.581Z</time></trkpt><trkpt lat="45.7670465" lon="10.5472311"><ele>1404.3333333333333</ele><time>2026-03-22T12:28:29.57Z</time></trkpt><trkpt lat="45.767062" lon="10.5471019"><ele>1404.5</ele><time>2026-03-22T12:28:32.573Z</time></trkpt><trkpt lat="45.7670678" lon="10.5469336"><ele>1404.6666666666665</ele><time>2026-03-22T12:28:35.583Z</time></trkpt><trkpt lat="45.7670598" lon="10.5468299"><ele>1404.8333333333333</ele><time>2026-03-22T12:28:37.578Z</time></trkpt><trkpt lat="45.7670488" lon="10.5467197"><ele>1405.0</ele><time>2026-03-22T12:28:39.573Z</time></trkpt><trkpt lat="45.7670292" lon="10.5466077"><ele>1405.0</ele><time>2026-03-22T12:28:42.576Z</time></trkpt><trkpt lat="45.7670196" lon="10.5464923"><ele>1405.0</ele><time>2026-03-22T12:28:45.581Z</time></trkpt><trkpt lat="45.7670187" lon="10.5463878"><ele>1405.0</ele><time>2026-03-22T12:28:50.584Z</time></trkpt><trkpt lat="45.7671175" lon="10.5463501"><ele>1405.0</ele><time>2026-03-22T12:32:06.767Z</time></trkpt><trkpt lat="45.7671832" lon="10.546337"><ele>1405.0</ele><time>2026-03-22T12:32:23.356Z</time></trkpt><trkpt lat="45.7672467" lon="10.5463035"><ele>1405.0</ele><time>2026-03-22T12:32:33.568Z</time></trkpt><trkpt lat="45.7671874" lon="10.5463514"><ele>1405.0</ele><time>2026-03-22T12:33:39.629Z</time></trkpt><trkpt lat="45.7671551" lon="10.5462314"><ele>1405.0</ele><time>2026-03-22T12:33:46.59Z</time></trkpt><trkpt lat="45.7671616" lon="10.5461197"><ele>1405.0</ele><time>2026-03-22T12:33:48.669Z</time></trkpt><trkpt lat="45.7671921" lon="10.54601"><ele>1405.0</ele><time>2026-03-22T12:33:51.537Z</time></trkpt><trkpt lat="45.767253" lon="10.5459381"><ele>1405.0</ele><time>2026-03-22T12:33:54.573Z</time></trkpt><trkpt lat="45.7673181" lon="10.5459163"><ele>1405.0</ele><time>2026-03-22T12:34:07.635Z</time></trkpt><trkpt lat="45.7672536" lon="10.545879"><ele>1401.7142857142856</ele><time>2026-03-22T12:34:44.574Z</time></trkpt><trkpt lat="45.767178" lon="10.5458741"><ele>1398.4285714285716</ele><time>2026-03-22T12:34:46.587Z</time></trkpt><trkpt lat="45.7671064" lon="10.5458415"><ele>1395.142857142857</ele><time>2026-03-22T12:34:49.57Z</time></trkpt><trkpt lat="45.7671289" lon="10.5457476"><ele>1391.8571428571427</ele><time>2026-03-22T12:34:59.576Z</time></trkpt><trkpt lat="45.7671828" lon="10.5456881"><ele>1388.5714285714284</ele><time>2026-03-22T12:35:05.575Z</time></trkpt><trkpt lat="45.7672482" lon="10.5456312"><ele>1385.2857142857142</ele><time>2026-03-22T12:35:10.493Z</time></trkpt><trkpt lat="45.7673148" lon="10.5456012"><ele>1382.0</ele><time>2026-03-22T12:35:14.622Z</time></trkpt><trkpt lat="45.7672451" lon="10.5455558"><ele>1381.9999999999998</ele><time>2026-03-22T12:35:30.481Z</time></trkpt><trkpt lat="45.7671648" lon="10.545534"><ele>1382.0</ele><time>2026-03-22T12:35:34.639Z</time></trkpt><trkpt lat="45.7671021" lon="10.5454849"><ele>1382.0</ele><time>2026-03-22T12:36:12.591Z</time></trkpt><trkpt lat="45.7670524" lon="10.5454264"><ele>1382.0</ele><time>2026-03-22T12:36:24.572Z</time></trkpt><trkpt lat="45.7670692" lon="10.5453211"><ele>1382.0</ele><time>2026-03-22T12:36:43.579Z</time></trkpt><trkpt lat="45.7671075" lon="10.5452275"><ele>1381.9999999999998</ele><time>2026-03-22T12:36:47.573Z</time></trkpt><trkpt lat="45.7671307" lon="10.5451362"><ele>1382.0</ele><time>2026-03-22T12:36:50.621Z</time></trkpt><trkpt lat="45.7671558" lon="10.5450527"><ele>1376.1999999999998</ele><time>2026-03-22T12:36:53.586Z</time></trkpt><trkpt lat="45.7673514" lon="10.5450327"><ele>1370.4</ele><time>2026-03-22T12:37:07.584Z</time></trkpt><trkpt lat="45.7673451" lon="10.5449413"><ele>1364.6</ele><time>2026-03-22T12:37:14.578Z</time></trkpt><trkpt lat="45.7674039" lon="10.5448836"><ele>1358.8000000000002</ele><time>2026-03-22T12:37:17.632Z</time></trkpt><trkpt lat="45.7674687" lon="10.5448629"><ele>1353.0</ele><time>2026-03-22T12:37:20.58Z</time></trkpt><trkpt lat="45.7675307" lon="10.544816"><ele>1353.0</ele><time>2026-03-22T12:37:23.621Z</time></trkpt><trkpt lat="45.7675833" lon="10.5447524"><ele>1353.0</ele><time>2026-03-22T12:37:25.583Z</time></trkpt><trkpt lat="45.7676388" lon="10.5447081"><ele>1353.0</ele><time>2026-03-22T12:37:29.573Z</time></trkpt><trkpt lat="45.7675662" lon="10.5446814"><ele>1353.0</ele><time>2026-03-22T12:37:49.618Z</time></trkpt><trkpt lat="45.7674758" lon="10.5446732"><ele>1353.0</ele><time>2026-03-22T12:37:52.586Z</time></trkpt><trkpt lat="45.7674091" lon="10.544664"><ele>1353.0</ele><time>2026-03-22T12:37:55.629Z</time></trkpt><trkpt lat="45.7674591" lon="10.5446072"><ele>1353.0</ele><time>2026-03-22T12:38:05.617Z</time></trkpt><trkpt lat="45.7675129" lon="10.5445447"><ele>1346.1666666666667</ele><time>2026-03-22T12:38:09.633Z</time></trkpt><trkpt lat="45.7675628" lon="10.5444475"><ele>1339.3333333333333</ele><time>2026-03-22T12:38:13.596Z</time></trkpt><trkpt lat="45.767621" lon="10.5443748"><ele>1332.5</ele><time>2026-03-22T12:38:17.631Z</time></trkpt><trkpt lat="45.7676809" lon="10.5442999"><ele>1325.6666666666665</ele><time>2026-03-22T12:38:21.654Z</time></trkpt><trkpt lat="45.7677424" lon="10.5442334"><ele>1318.8333333333333</ele><time>2026-03-22T12:38:28.579Z</time></trkpt><trkpt lat="45.7676788" lon="10.5441801"><ele>1312.0</ele><time>2026-03-22T12:38:39.586Z</time></trkpt><trkpt lat="45.7675987" lon="10.5441414"><ele>1311.9999999999998</ele><time>2026-03-22T12:38:44.651Z</time></trkpt><trkpt lat="45.7675292" lon="10.5441535"><ele>1312.0</ele><time>2026-03-22T12:38:47.586Z</time></trkpt><trkpt lat="45.7674599" lon="10.5441823"><ele>1312.0</ele><time>2026-03-22T12:38:51.586Z</time></trkpt><trkpt lat="45.7673894" lon="10.5441908"><ele>1312.0</ele><time>2026-03-22T12:38:53.64Z</time></trkpt><trkpt lat="45.7673192" lon="10.5441755"><ele>1312.0</ele><time>2026-03-22T12:38:55.567Z</time></trkpt><trkpt lat="45.7672521" lon="10.5441288"><ele>1311.9999999999998</ele><time>2026-03-22T12:38:59.629Z</time></trkpt><trkpt lat="45.76722" lon="10.5440384"><ele>1312.0</ele><time>2026-03-22T12:39:02.579Z</time></trkpt><trkpt lat="45.7672892" lon="10.5440511"><ele>1312.0</ele><time>2026-03-22T12:39:10.621Z</time></trkpt><trkpt lat="45.7673545" lon="10.5440424"><ele>1312.0</ele><time>2026-03-22T12:39:13.626Z</time></trkpt><trkpt lat="45.7674198" lon="10.5439753"><ele>1312.0</ele><time>2026-03-22T12:39:16.626Z</time></trkpt><trkpt lat="45.7674736" lon="10.5439024"><ele>1312.0</ele><time>2026-03-22T12:39:20.565Z</time></trkpt><trkpt lat="45.7675448" lon="10.5438464"><ele>1312.0</ele><time>2026-03-22T12:39:41.572Z</time></trkpt><trkpt lat="45.7676198" lon="10.5437923"><ele>1312.0</ele><time>2026-03-22T12:39:52.653Z</time></trkpt><trkpt lat="45.7676472" lon="10.5436923"><ele>1312.0</ele><time>2026-03-22T12:40:01.657Z</time></trkpt><trkpt lat="45.7675913" lon="10.5437352"><ele>1312.0</ele><time>2026-03-22T12:40:34.576Z</time></trkpt><trkpt lat="45.7675085" lon="10.5437392"><ele>1312.0</ele><time>2026-03-22T12:40:39.627Z</time></trkpt><trkpt lat="45.7675157" lon="10.5436469"><ele>1312.0</ele><time>2026-03-22T12:40:45.632Z</time></trkpt><trkpt lat="45.7675298" lon="10.5435562"><ele>1312.0</ele><time>2026-03-22T12:40:53.61Z</time></trkpt><trkpt lat="45.7676366" lon="10.543473"><ele>1312.0</ele><time>2026-03-22T12:40:58.615Z</time></trkpt><trkpt lat="45.7677269" lon="10.5434032"><ele>1306.6666666666665</ele><time>2026-03-22T12:41:00.638Z</time></trkpt><trkpt lat="45.7677955" lon="10.5433478"><ele>1301.3333333333333</ele><time>2026-03-22T12:41:02.635Z</time></trkpt><trkpt lat="45.7678566" lon="10.5432723"><ele>1296.0</ele><time>2026-03-22T12:41:05.636Z</time></trkpt><trkpt lat="45.7679295" lon="10.5432097"><ele>1290.6666666666667</ele><time>2026-03-22T12:41:08.645Z</time></trkpt><trkpt lat="45.7679832" lon="10.5431196"><ele>1285.3333333333335</ele><time>2026-03-22T12:41:11.64Z</time></trkpt><trkpt lat="45.7680474" lon="10.5430457"><ele>1280.0</ele><time>2026-03-22T12:41:14.628Z</time></trkpt><trkpt lat="45.768087" lon="10.5429715"><ele>1280.0</ele><time>2026-03-22T12:41:18.628Z</time></trkpt><trkpt lat="45.7681421" lon="10.5429257"><ele>1280.0</ele><time>2026-03-22T12:41:21.633Z</time></trkpt><trkpt lat="45.7681903" lon="10.5428501"><ele>1280.0</ele><time>2026-03-22T12:41:24.636Z</time></trkpt><trkpt lat="45.7682384" lon="10.5427768"><ele>1280.0</ele><time>2026-03-22T12:41:27.627Z</time></trkpt><trkpt lat="45.7682851" lon="10.5427058"><ele>1280.0</ele><time>2026-03-22T12:41:31.653Z</time></trkpt><trkpt lat="45.7683491" lon="10.5427511"><ele>1280.0</ele><time>2026-03-22T12:42:46.573Z</time></trkpt><trkpt lat="45.7684212" lon="10.5427453"><ele>1280.0</ele><time>2026-03-22T12:43:33.611Z</time></trkpt><trkpt lat="45.7684737" lon="10.5428043"><ele>1277.6666666666667</ele><time>2026-03-22T12:43:37.573Z</time></trkpt><trkpt lat="45.7685441" lon="10.5427945"><ele>1275.3333333333335</ele><time>2026-03-22T12:43:42.601Z</time></trkpt><trkpt lat="45.7685752" lon="10.5427091"><ele>1273.0</ele><time>2026-03-22T12:43:45.61Z</time></trkpt><trkpt lat="45.7686153" lon="10.5425805"><ele>1270.6666666666667</ele><time>2026-03-22T12:43:51.621Z</time></trkpt><trkpt lat="45.7686468" lon="10.5424611"><ele>1268.3333333333333</ele><time>2026-03-22T12:43:53.623Z</time></trkpt><trkpt lat="45.7686562" lon="10.5423683"><ele>1266.0</ele><time>2026-03-22T12:43:55.613Z</time></trkpt><trkpt lat="45.7686801" lon="10.5422741"><ele>1266.0</ele><time>2026-03-22T12:44:00.631Z</time></trkpt><trkpt lat="45.7687077" lon="10.5421818"><ele>1266.0</ele><time>2026-03-22T12:44:06.639Z</time></trkpt><trkpt lat="45.7687337" lon="10.5420966"><ele>1266.0</ele><time>2026-03-22T12:44:09.565Z</time></trkpt><trkpt lat="45.768779" lon="10.541987"><ele>1266.0</ele><time>2026-03-22T12:44:12.635Z</time></trkpt><trkpt lat="45.7687959" lon="10.5418674"><ele>1266.0</ele><time>2026-03-22T12:44:16.622Z</time></trkpt><trkpt lat="45.7688505" lon="10.5417977"><ele>1266.0</ele><time>2026-03-22T12:44:20.638Z</time></trkpt><trkpt lat="45.7688959" lon="10.5417188"><ele>1262.3333333333333</ele><time>2026-03-22T12:44:24.62Z</time></trkpt><trkpt lat="45.7689464" lon="10.5416351"><ele>1258.6666666666667</ele><time>2026-03-22T12:44:28.637Z</time></trkpt><trkpt lat="45.7690129" lon="10.5415814"><ele>1255.0</ele><time>2026-03-22T12:44:32.589Z</time></trkpt><trkpt lat="45.7690977" lon="10.5416031"><ele>1251.3333333333335</ele><time>2026-03-22T12:44:35.642Z</time></trkpt><trkpt lat="45.7691614" lon="10.5415926"><ele>1247.6666666666667</ele><time>2026-03-22T12:44:37.661Z</time></trkpt><trkpt lat="45.769226" lon="10.5415644"><ele>1244.0</ele><time>2026-03-22T12:44:40.628Z</time></trkpt><trkpt lat="45.7692781" lon="10.5414744"><ele>1244.0</ele><time>2026-03-22T12:44:44.636Z</time></trkpt><trkpt lat="45.7693098" lon="10.5413962"><ele>1244.0</ele><time>2026-03-22T12:44:48.575Z</time></trkpt><trkpt lat="45.769235" lon="10.5413796"><ele>1244.0</ele><time>2026-03-22T12:44:58.583Z</time></trkpt><trkpt lat="45.7691614" lon="10.5414166"><ele>1244.0</ele><time>2026-03-22T12:45:03.616Z</time></trkpt><trkpt lat="45.7690916" lon="10.5414251"><ele>1244.0</ele><time>2026-03-22T12:45:07.614Z</time></trkpt><trkpt lat="45.7690257" lon="10.5414262"><ele>1244.0</ele><time>2026-03-22T12:45:13.576Z</time></trkpt><trkpt lat="45.769074" lon="10.5413634"><ele>1244.0</ele><time>2026-03-22T12:45:50.621Z</time></trkpt><trkpt lat="45.7691427" lon="10.5413187"><ele>1244.0</ele><time>2026-03-22T12:45:54.614Z</time></trkpt><trkpt lat="45.7691911" lon="10.5412411"><ele>1244.0</ele><time>2026-03-22T12:45:57.574Z</time></trkpt><trkpt lat="45.7692559" lon="10.5412199"><ele>1244.0</ele><time>2026-03-22T12:46:00.608Z</time></trkpt><trkpt lat="45.7692752" lon="10.5411283"><ele>1244.0</ele><time>2026-03-22T12:46:03.642Z</time></trkpt><trkpt lat="45.7692674" lon="10.5410314"><ele>1244.0</ele><time>2026-03-22T12:46:05.616Z</time></trkpt><trkpt lat="45.7693018" lon="10.5409514"><ele>1244.0</ele><time>2026-03-22T12:46:08.639Z</time></trkpt><trkpt lat="45.7693767" lon="10.5409158"><ele>1244.0</ele><time>2026-03-22T12:46:12.58Z</time></trkpt><trkpt lat="45.7695883" lon="10.5410234"><ele>1239.6666666666667</ele><time>2026-03-22T12:46:14.586Z</time></trkpt><trkpt lat="45.7696649" lon="10.5409849"><ele>1235.3333333333335</ele><time>2026-03-22T12:46:16.62Z</time></trkpt><trkpt lat="45.7697285" lon="10.5409551"><ele>1231.0</ele><time>2026-03-22T12:46:18.662Z</time></trkpt><trkpt lat="45.7697792" lon="10.5408612"><ele>1226.6666666666667</ele><time>2026-03-22T12:46:22.624Z</time></trkpt><trkpt lat="45.7698067" lon="10.5407538"><ele>1222.3333333333333</ele><time>2026-03-22T12:46:25.631Z</time></trkpt><trkpt lat="45.7698455" lon="10.5406762"><ele>1218.0</ele><time>2026-03-22T12:46:28.641Z</time></trkpt><trkpt lat="45.7699114" lon="10.5405733"><ele>1218.0</ele><time>2026-03-22T12:46:31.628Z</time></trkpt><trkpt lat="45.7699343" lon="10.5404832"><ele>1218.0</ele><time>2026-03-22T12:46:33.622Z</time></trkpt><trkpt lat="45.7699449" lon="10.5403812"><ele>1218.0</ele><time>2026-03-22T12:46:36.625Z</time></trkpt><trkpt lat="45.7698851" lon="10.5404479"><ele>1218.0</ele><time>2026-03-22T12:47:21.579Z</time></trkpt><trkpt lat="45.7698121" lon="10.5404535"><ele>1218.0</ele><time>2026-03-22T12:47:26.618Z</time></trkpt><trkpt lat="45.7697565" lon="10.5405397"><ele>1218.0</ele><time>2026-03-22T12:47:29.62Z</time></trkpt><trkpt lat="45.7696935" lon="10.5406179"><ele>1218.0</ele><time>2026-03-22T12:47:32.608Z</time></trkpt><trkpt lat="45.7696194" lon="10.5406639"><ele>1218.0</ele><time>2026-03-22T12:47:35.622Z</time></trkpt><trkpt lat="45.7695365" lon="10.5406542"><ele>1218.0</ele><time>2026-03-22T12:47:38.615Z</time></trkpt><trkpt lat="45.7694442" lon="10.5406163"><ele>1218.0</ele><time>2026-03-22T12:47:41.662Z</time></trkpt><trkpt lat="45.7693688" lon="10.5405845"><ele>1218.0</ele><time>2026-03-22T12:47:43.631Z</time></trkpt><trkpt lat="45.7693099" lon="10.5405454"><ele>1218.0</ele><time>2026-03-22T12:47:45.627Z</time></trkpt><trkpt lat="45.7692442" lon="10.5405055"><ele>1218.0</ele><time>2026-03-22T12:47:49.623Z</time></trkpt><trkpt lat="45.7691799" lon="10.5404957"><ele>1218.0</ele><time>2026-03-22T12:47:53.628Z</time></trkpt><trkpt lat="45.7693001" lon="10.5404708"><ele>1218.0</ele><time>2026-03-22T12:48:04.582Z</time></trkpt><trkpt lat="45.7693938" lon="10.5404724"><ele>1218.0</ele><time>2026-03-22T12:48:06.576Z</time></trkpt><trkpt lat="45.7694592" lon="10.5404609"><ele>1218.0</ele><time>2026-03-22T12:48:08.608Z</time></trkpt><trkpt lat="45.7695204" lon="10.5403963"><ele>1218.0</ele><time>2026-03-22T12:48:10.605Z</time></trkpt><trkpt lat="45.7695756" lon="10.5403522"><ele>1214.8333333333333</ele><time>2026-03-22T12:48:12.578Z</time></trkpt><trkpt lat="45.7696284" lon="10.5402691"><ele>1211.6666666666667</ele><time>2026-03-22T12:48:15.577Z</time></trkpt><trkpt lat="45.7696717" lon="10.5401669"><ele>1208.5</ele><time>2026-03-22T12:48:18.577Z</time></trkpt><trkpt lat="45.7696561" lon="10.5400542"><ele>1205.3333333333335</ele><time>2026-03-22T12:48:20.593Z</time></trkpt><trkpt lat="45.7696136" lon="10.5399592"><ele>1202.1666666666667</ele><time>2026-03-22T12:48:23.614Z</time></trkpt><trkpt lat="45.7696563" lon="10.5398585"><ele>1199.0</ele><time>2026-03-22T12:48:27.618Z</time></trkpt><trkpt lat="45.7697256" lon="10.539812"><ele>1199.0</ele><time>2026-03-22T12:48:30.58Z</time></trkpt><trkpt lat="45.7697709" lon="10.5397458"><ele>1199.0</ele><time>2026-03-22T12:48:33.581Z</time></trkpt><trkpt lat="45.7697614" lon="10.5396528"><ele>1199.0</ele><time>2026-03-22T12:48:36.62Z</time></trkpt><trkpt lat="45.7697403" lon="10.5395537"><ele>1199.0</ele><time>2026-03-22T12:48:40.618Z</time></trkpt><trkpt lat="45.7697601" lon="10.5394591"><ele>1199.0</ele><time>2026-03-22T12:48:44.62Z</time></trkpt><trkpt lat="45.7697929" lon="10.5393678"><ele>1199.0</ele><time>2026-03-22T12:48:47.625Z</time></trkpt><trkpt lat="45.769819" lon="10.5392675"><ele>1199.0</ele><time>2026-03-22T12:48:51.63Z</time></trkpt><trkpt lat="45.7697978" lon="10.5391768"><ele>1195.142857142857</ele><time>2026-03-22T12:48:56.62Z</time></trkpt><trkpt lat="45.7697644" lon="10.5392609"><ele>1191.2857142857142</ele><time>2026-03-22T12:49:02.633Z</time></trkpt><trkpt lat="45.7697303" lon="10.5391677"><ele>1187.4285714285713</ele><time>2026-03-22T12:49:48.581Z</time></trkpt><trkpt lat="45.7697626" lon="10.5390614"><ele>1183.5714285714284</ele><time>2026-03-22T12:49:52.639Z</time></trkpt><trkpt lat="45.7697933" lon="10.5389598"><ele>1179.7142857142858</ele><time>2026-03-22T12:49:56.602Z</time></trkpt><trkpt lat="45.7698386" lon="10.538893"><ele>1175.8571428571427</ele><time>2026-03-22T12:49:59.614Z</time></trkpt><trkpt lat="45.7698364" lon="10.5387739"><ele>1172.0</ele><time>2026-03-22T12:50:03.605Z</time></trkpt><trkpt lat="45.7698569" lon="10.5386733"><ele>1167.142857142857</ele><time>2026-03-22T12:50:07.622Z</time></trkpt><trkpt lat="45.7698657" lon="10.5385834"><ele>1162.2857142857142</ele><time>2026-03-22T12:50:10.581Z</time></trkpt><trkpt lat="45.7698821" lon="10.5384958"><ele>1157.4285714285716</ele><time>2026-03-22T12:50:13.646Z</time></trkpt><trkpt lat="45.7699023" lon="10.5384047"><ele>1152.5714285714284</ele><time>2026-03-22T12:50:15.619Z</time></trkpt><trkpt lat="45.769927" lon="10.53832"><ele>1147.7142857142858</ele><time>2026-03-22T12:50:17.615Z</time></trkpt><trkpt lat="45.7699717" lon="10.5382191"><ele>1142.857142857143</ele><time>2026-03-22T12:50:19.63Z</time></trkpt><trkpt lat="45.7699971" lon="10.5381137"><ele>1138.0</ele><time>2026-03-22T12:50:21.611Z</time></trkpt><trkpt lat="45.7699991" lon="10.5379947"><ele>1138.0000000000002</ele><time>2026-03-22T12:50:24.62Z</time></trkpt><trkpt lat="45.7699891" lon="10.5378902"><ele>1138.0</ele><time>2026-03-22T12:50:27.627Z</time></trkpt><trkpt lat="45.7699742" lon="10.5377968"><ele>1138.0</ele><time>2026-03-22T12:50:30.622Z</time></trkpt><trkpt lat="45.7699461" lon="10.537714"><ele>1138.0</ele><time>2026-03-22T12:50:32.621Z</time></trkpt><trkpt lat="45.7699183" lon="10.5376305"><ele>1138.0</ele><time>2026-03-22T12:50:35.586Z</time></trkpt><trkpt lat="45.7699298" lon="10.5377484"><ele>1138.0000000000002</ele><time>2026-03-22T12:50:47.623Z</time></trkpt><trkpt lat="45.769914" lon="10.5378832"><ele>1138.0</ele><time>2026-03-22T12:50:51.628Z</time></trkpt><trkpt lat="45.7698795" lon="10.5379834"><ele>1138.0000000000002</ele><time>2026-03-22T12:50:54.63Z</time></trkpt><trkpt lat="45.7698257" lon="10.5380525"><ele>1138.0</ele><time>2026-03-22T12:50:57.634Z</time></trkpt><trkpt lat="45.7697997" lon="10.5379513"><ele>1138.0</ele><time>2026-03-22T12:51:07.627Z</time></trkpt><trkpt lat="45.7697668" lon="10.5378288"><ele>1138.0</ele><time>2026-03-22T12:51:10.624Z</time></trkpt><trkpt lat="45.7697264" lon="10.5377588"><ele>1138.0</ele><time>2026-03-22T12:51:12.619Z</time></trkpt><trkpt lat="45.7696945" lon="10.5376731"><ele>1138.0000000000002</ele><time>2026-03-22T12:51:14.598Z</time></trkpt><trkpt lat="45.7696585" lon="10.5375962"><ele>1138.0</ele><time>2026-03-22T12:51:17.625Z</time></trkpt><trkpt lat="45.769617" lon="10.5375212"><ele>1134.857142857143</ele><time>2026-03-22T12:51:23.609Z</time></trkpt><trkpt lat="45.7696074" lon="10.5376158"><ele>1131.7142857142858</ele><time>2026-03-22T12:51:32.636Z</time></trkpt><trkpt lat="45.7695575" lon="10.5375387"><ele>1128.5714285714284</ele><time>2026-03-22T12:51:37.622Z</time></trkpt><trkpt lat="45.7695453" lon="10.5374479"><ele>1125.4285714285716</ele><time>2026-03-22T12:51:42.619Z</time></trkpt><trkpt lat="45.7695932" lon="10.5373693"><ele>1122.2857142857142</ele><time>2026-03-22T12:51:45.617Z</time></trkpt><trkpt lat="45.7696356" lon="10.5372713"><ele>1119.142857142857</ele><time>2026-03-22T12:51:48.577Z</time></trkpt><trkpt lat="45.7696442" lon="10.5371522"><ele>1116.0</ele><time>2026-03-22T12:51:51.649Z</time></trkpt><trkpt lat="45.7696319" lon="10.5370387"><ele>1112.0</ele><time>2026-03-22T12:51:54.571Z</time></trkpt><trkpt lat="45.7696053" lon="10.5369436"><ele>1108.0</ele><time>2026-03-22T12:51:56.578Z</time></trkpt><trkpt lat="45.7696026" lon="10.5368499"><ele>1104.0</ele><time>2026-03-22T12:51:58.58Z</time></trkpt><trkpt lat="45.7696656" lon="10.5367311"><ele>1100.0</ele><time>2026-03-22T12:52:01.58Z</time></trkpt><trkpt lat="45.769738" lon="10.5366891"><ele>1096.0</ele><time>2026-03-22T12:52:03.582Z</time></trkpt><trkpt lat="45.7697962" lon="10.5365658"><ele>1092.0</ele><time>2026-03-22T12:52:05.58Z</time></trkpt><trkpt lat="45.76984" lon="10.5364903"><ele>1092.0</ele><time>2026-03-22T12:52:07.576Z</time></trkpt><trkpt lat="45.7698805" lon="10.5363771"><ele>1092.0</ele><time>2026-03-22T12:52:10.584Z</time></trkpt><trkpt lat="45.7698865" lon="10.5362678"><ele>1092.0</ele><time>2026-03-22T12:52:12.582Z</time></trkpt><trkpt lat="45.769878" lon="10.5361453"><ele>1092.0</ele><time>2026-03-22T12:52:15.578Z</time></trkpt><trkpt lat="45.7699353" lon="10.5360675"><ele>1092.0</ele><time>2026-03-22T12:52:18.583Z</time></trkpt><trkpt lat="45.7699724" lon="10.5359807"><ele>1092.0</ele><time>2026-03-22T12:52:20.579Z</time></trkpt><trkpt lat="45.770009" lon="10.535889"><ele>1088.0</ele><time>2026-03-22T12:52:22.581Z</time></trkpt><trkpt lat="45.7700545" lon="10.5358099"><ele>1084.0</ele><time>2026-03-22T12:52:25.582Z</time></trkpt><trkpt lat="45.7700829" lon="10.5357151"><ele>1080.0</ele><time>2026-03-22T12:52:28.586Z</time></trkpt><trkpt lat="45.7700679" lon="10.5355957"><ele>1076.0</ele><time>2026-03-22T12:52:31.586Z</time></trkpt><trkpt lat="45.770074" lon="10.5354958"><ele>1072.0</ele><time>2026-03-22T12:52:35.577Z</time></trkpt><trkpt lat="45.7700844" lon="10.5353989"><ele>1068.0</ele><time>2026-03-22T12:52:37.595Z</time></trkpt><trkpt lat="45.7700773" lon="10.5352743"><ele>1068.0</ele><time>2026-03-22T12:52:40.576Z</time></trkpt><trkpt lat="45.7700608" lon="10.5351828"><ele>1068.0</ele><time>2026-03-22T12:52:43.578Z</time></trkpt><trkpt lat="45.7700596" lon="10.5350818"><ele>1068.0</ele><time>2026-03-22T12:52:46.58Z</time></trkpt><trkpt lat="45.7699842" lon="10.5351249"><ele>1068.0</ele><time>2026-03-22T12:53:38.634Z</time></trkpt><trkpt lat="45.7699712" lon="10.5352549"><ele>1068.0</ele><time>2026-03-22T13:07:24.038Z</time></trkpt><trkpt lat="45.7699507" lon="10.5354942"><ele>1068.0000000000002</ele><time>2026-03-22T13:07:27.626Z</time></trkpt><trkpt lat="45.7700053" lon="10.5354441"><ele>1068.0</ele><time>2026-03-22T13:07:29.639Z</time></trkpt><trkpt lat="45.7699611" lon="10.5353655"><ele>1068.0</ele><time>2026-03-22T13:07:35.58Z</time></trkpt><trkpt lat="45.7699704" lon="10.5352751"><ele>1068.0</ele><time>2026-03-22T13:08:13.622Z</time></trkpt><trkpt lat="45.770022" lon="10.5352186"><ele>1068.0</ele><time>2026-03-22T13:08:20.624Z</time></trkpt><trkpt lat="45.7699951" lon="10.5351231"><ele>1068.0000000000002</ele><time>2026-03-22T13:08:57.58Z</time></trkpt><trkpt lat="45.769942" lon="10.5350677"><ele>1068.0</ele><time>2026-03-22T13:09:03.642Z</time></trkpt><trkpt lat="45.7698705" lon="10.535032"><ele>1060.0</ele><time>2026-03-22T13:09:09.587Z</time></trkpt><trkpt lat="45.7698646" lon="10.5348676"><ele>1052.0</ele><time>2026-03-22T13:09:12.583Z</time></trkpt><trkpt lat="45.7699677" lon="10.5346296"><ele>1044.0</ele><time>2026-03-22T13:09:13.587Z</time></trkpt><trkpt lat="45.7700313" lon="10.5344509"><ele>1041.5</ele><time>2026-03-22T13:09:15.666Z</time></trkpt><trkpt lat="45.7700437" lon="10.534303"><ele>1039.0</ele><time>2026-03-22T13:09:17.577Z</time></trkpt><trkpt lat="45.7700743" lon="10.5342152"><ele>1036.5</ele><time>2026-03-22T13:09:20.649Z</time></trkpt><trkpt lat="45.7700746" lon="10.5341171"><ele>1034.0</ele><time>2026-03-22T13:09:28.611Z</time></trkpt><trkpt lat="45.7700853" lon="10.533988"><ele>1031.5</ele><time>2026-03-22T13:09:37.583Z</time></trkpt><trkpt lat="45.7701507" lon="10.5340079"><ele>1029.0</ele><time>2026-03-22T13:10:19.621Z</time></trkpt><trkpt lat="45.7702079" lon="10.5339702"><ele>1029.0</ele><time>2026-03-22T13:10:22.642Z</time></trkpt><trkpt lat="45.7702682" lon="10.5339193"><ele>1029.0</ele><time>2026-03-22T13:10:25.657Z</time></trkpt><trkpt lat="45.7703364" lon="10.5338967"><ele>1029.0</ele><time>2026-03-22T13:10:28.573Z</time></trkpt><trkpt lat="45.7702742" lon="10.5339124"><ele>1029.0</ele><time>2026-03-22T13:10:35.61Z</time></trkpt><trkpt lat="45.7702071" lon="10.5338319"><ele>1029.0</ele><time>2026-03-22T13:10:39.582Z</time></trkpt><trkpt lat="45.7701719" lon="10.5337422"><ele>1029.0</ele><time>2026-03-22T13:10:42.617Z</time></trkpt><trkpt lat="45.7702278" lon="10.5338267"><ele>1029.0</ele><time>2026-03-22T13:10:45.612Z</time></trkpt><trkpt lat="45.7703011" lon="10.5338119"><ele>1029.0</ele><time>2026-03-22T13:10:48.631Z</time></trkpt><trkpt lat="45.7703905" lon="10.5337834"><ele>1029.0</ele><time>2026-03-22T13:10:53.665Z</time></trkpt><trkpt lat="45.7704546" lon="10.5337206"><ele>1029.0</ele><time>2026-03-22T13:10:56.655Z</time></trkpt><trkpt lat="45.770523" lon="10.5337137"><ele>1029.0</ele><time>2026-03-22T13:10:59.639Z</time></trkpt><trkpt lat="45.7706143" lon="10.5337032"><ele>1029.0</ele><time>2026-03-22T13:11:02.673Z</time></trkpt><trkpt lat="45.7706762" lon="10.5336258"><ele>1029.0</ele><time>2026-03-22T13:11:04.66Z</time></trkpt><trkpt lat="45.7707179" lon="10.5335532"><ele>1024.5</ele><time>2026-03-22T13:11:06.64Z</time></trkpt><trkpt lat="45.7707623" lon="10.5334755"><ele>1020.0</ele><time>2026-03-22T13:11:09.641Z</time></trkpt><trkpt lat="45.7707007" lon="10.5334225"><ele>1015.5</ele><time>2026-03-22T13:11:33.581Z</time></trkpt><trkpt lat="45.7707574" lon="10.5333615"><ele>1011.0</ele><time>2026-03-22T13:11:45.639Z</time></trkpt><trkpt lat="45.7707974" lon="10.5332879"><ele>1006.5</ele><time>2026-03-22T13:11:51.628Z</time></trkpt><trkpt lat="45.770753" lon="10.5331994"><ele>1002.0</ele><time>2026-03-22T13:11:55.584Z</time></trkpt><trkpt lat="45.7706527" lon="10.5331974"><ele>1002.0</ele><time>2026-03-22T13:12:22.572Z</time></trkpt><trkpt lat="45.7707086" lon="10.5331196"><ele>1002.0</ele><time>2026-03-22T13:12:25.635Z</time></trkpt><trkpt lat="45.7707298" lon="10.5329923"><ele>1002.0</ele><time>2026-03-22T13:12:29.615Z</time></trkpt><trkpt lat="45.7707606" lon="10.5329093"><ele>1002.0</ele><time>2026-03-22T13:12:32.645Z</time></trkpt><trkpt lat="45.7707887" lon="10.5328203"><ele>1002.0</ele><time>2026-03-22T13:12:35.639Z</time></trkpt><trkpt lat="45.7708102" lon="10.5327072"><ele>1002.0</ele><time>2026-03-22T13:12:38.586Z</time></trkpt><trkpt lat="45.7708416" lon="10.5326181"><ele>994.8333333333334</ele><time>2026-03-22T13:12:41.628Z</time></trkpt><trkpt lat="45.7709518" lon="10.5325984"><ele>987.6666666666667</ele><time>2026-03-22T13:12:45.647Z</time></trkpt><trkpt lat="45.7708697" lon="10.5325655"><ele>980.5</ele><time>2026-03-22T13:12:59.652Z</time></trkpt><trkpt lat="45.7709375" lon="10.5325063"><ele>973.3333333333334</ele><time>2026-03-22T13:13:08.578Z</time></trkpt><trkpt lat="45.7709974" lon="10.5324344"><ele>966.1666666666667</ele><time>2026-03-22T13:13:11.583Z</time></trkpt><trkpt lat="45.7710569" lon="10.5323915"><ele>959.0</ele><time>2026-03-22T13:13:14.665Z</time></trkpt><trkpt lat="45.7711577" lon="10.5323898"><ele>957.8333333333334</ele><time>2026-03-22T13:13:19.634Z</time></trkpt><trkpt lat="45.7712511" lon="10.5323872"><ele>956.6666666666667</ele><time>2026-03-22T13:13:23.653Z</time></trkpt><trkpt lat="45.77135" lon="10.5323942"><ele>955.5</ele><time>2026-03-22T13:13:27.645Z</time></trkpt><trkpt lat="45.7714573" lon="10.532431"><ele>954.3333333333333</ele><time>2026-03-22T13:13:30.584Z</time></trkpt><trkpt lat="45.7713818" lon="10.5324189"><ele>953.1666666666666</ele><time>2026-03-22T13:13:42.628Z</time></trkpt><trkpt lat="45.77136" lon="10.5323271"><ele>952.0</ele><time>2026-03-22T13:13:46.641Z</time></trkpt><trkpt lat="45.771432" lon="10.5322986"><ele>951.9999999999999</ele><time>2026-03-22T13:14:10.62Z</time></trkpt><trkpt lat="45.7714022" lon="10.5322175"><ele>952.0</ele><time>2026-03-22T13:14:32.573Z</time></trkpt><trkpt lat="45.7714483" lon="10.5321079"><ele>952.0</ele><time>2026-03-22T13:14:49.578Z</time></trkpt><trkpt lat="45.7714322" lon="10.5320173"><ele>952.0</ele><time>2026-03-22T13:15:04.578Z</time></trkpt><trkpt lat="45.771515" lon="10.5319678"><ele>951.9999999999999</ele><time>2026-03-22T13:15:22.574Z</time></trkpt><trkpt lat="45.7714689" lon="10.5318781"><ele>952.0</ele><time>2026-03-22T13:15:25.576Z</time></trkpt><trkpt lat="45.7714109" lon="10.5317922"><ele>944.9999999999999</ele><time>2026-03-22T13:15:30.629Z</time></trkpt><trkpt lat="45.7713793" lon="10.5317126"><ele>938.0</ele><time>2026-03-22T13:15:33.633Z</time></trkpt><trkpt lat="45.7714477" lon="10.5317495"><ele>931.0</ele><time>2026-03-22T13:16:08.635Z</time></trkpt><trkpt lat="45.7715038" lon="10.5316497"><ele>924.0</ele><time>2026-03-22T13:16:23.58Z</time></trkpt><trkpt lat="45.7715901" lon="10.531617"><ele>916.9999999999999</ele><time>2026-03-22T13:16:26.626Z</time></trkpt><trkpt lat="45.7715808" lon="10.5315126"><ele>910.0</ele><time>2026-03-22T13:16:33.579Z</time></trkpt><trkpt lat="45.7715528" lon="10.5313755"><ele>909.9999999999999</ele><time>2026-03-22T13:21:36.641Z</time></trkpt><trkpt lat="45.7715294" lon="10.5312754"><ele>910.0</ele><time>2026-03-22T13:23:14.591Z</time></trkpt><trkpt lat="45.7716437" lon="10.5312004"><ele>910.0</ele><time>2026-03-22T13:23:38.584Z</time></trkpt><trkpt lat="45.771575" lon="10.5311887"><ele>910.0</ele><time>2026-03-22T13:23:48.59Z</time></trkpt><trkpt lat="45.7715075" lon="10.5311814"><ele>909.9999999999999</ele><time>2026-03-22T13:23:53.647Z</time></trkpt><trkpt lat="45.7714696" lon="10.5311037"><ele>910.0</ele><time>2026-03-22T13:23:58.668Z</time></trkpt><trkpt lat="45.7713872" lon="10.531058"><ele>902.3333333333333</ele><time>2026-03-22T13:24:01.652Z</time></trkpt><trkpt lat="45.7713281" lon="10.5309925"><ele>894.6666666666666</ele><time>2026-03-22T13:24:04.587Z</time></trkpt><trkpt lat="45.7713918" lon="10.5309925"><ele>887.0</ele><time>2026-03-22T13:24:20.587Z</time></trkpt><trkpt lat="45.7713802" lon="10.5308999"><ele>879.3333333333333</ele><time>2026-03-22T13:24:39.59Z</time></trkpt><trkpt lat="45.771448" lon="10.5308723"><ele>871.6666666666666</ele><time>2026-03-22T13:24:44.593Z</time></trkpt><trkpt lat="45.7715339" lon="10.5308128"><ele>864.0</ele><time>2026-03-22T13:24:49.637Z</time></trkpt><trkpt lat="45.7715696" lon="10.5307094"><ele>864.0</ele><time>2026-03-22T13:24:57.638Z</time></trkpt><trkpt lat="45.7715412" lon="10.5306107"><ele>864.0</ele><time>2026-03-22T13:25:04.656Z</time></trkpt><trkpt lat="45.7715521" lon="10.530709"><ele>864.0</ele><time>2026-03-22T13:25:15.619Z</time></trkpt><trkpt lat="45.7715244" lon="10.5307909"><ele>864.0</ele><time>2026-03-22T13:25:23.633Z</time></trkpt><trkpt lat="45.771452" lon="10.5307157"><ele>864.0</ele><time>2026-03-22T13:25:29.642Z</time></trkpt><trkpt lat="45.7715123" lon="10.5306679"><ele>864.0</ele><time>2026-03-22T13:25:42.674Z</time></trkpt><trkpt lat="45.7715891" lon="10.5306517"><ele>864.0</ele><time>2026-03-22T13:25:47.584Z</time></trkpt><trkpt lat="45.7716294" lon="10.5305552"><ele>864.0</ele><time>2026-03-22T13:25:52.645Z</time></trkpt><trkpt lat="45.7716403" lon="10.5304542"><ele>864.0</ele><time>2026-03-22T13:25:57.636Z</time></trkpt><trkpt lat="45.7715748" lon="10.5304174"><ele>864.0</ele><time>2026-03-22T13:26:05.66Z</time></trkpt><trkpt lat="45.7715126" lon="10.5304374"><ele>864.0</ele><time>2026-03-22T13:26:10.676Z</time></trkpt><trkpt lat="45.7714468" lon="10.5304417"><ele>864.0</ele><time>2026-03-22T13:26:16.594Z</time></trkpt><trkpt lat="45.7713859" lon="10.5304044"><ele>864.0</ele><time>2026-03-22T13:26:20.589Z</time></trkpt><trkpt lat="45.771365" lon="10.5303008"><ele>864.0</ele><time>2026-03-22T13:26:24.584Z</time></trkpt><trkpt lat="45.7715103" lon="10.5303393"><ele>856.7142857142857</ele><time>2026-03-22T13:26:47.622Z</time></trkpt><trkpt lat="45.7714559" lon="10.5302871"><ele>849.4285714285713</ele><time>2026-03-22T13:27:18.641Z</time></trkpt><trkpt lat="45.7714582" lon="10.5301966"><ele>842.1428571428571</ele><time>2026-03-22T13:27:23.596Z</time></trkpt><trkpt lat="45.7715115" lon="10.5301269"><ele>834.8571428571429</ele><time>2026-03-22T13:27:28.641Z</time></trkpt><trkpt lat="45.7715493" lon="10.5300514"><ele>827.5714285714286</ele><time>2026-03-22T13:27:31.635Z</time></trkpt><trkpt lat="45.7715459" lon="10.5299474"><ele>820.2857142857143</ele><time>2026-03-22T13:27:35.657Z</time></trkpt><trkpt lat="45.7715025" lon="10.5298734"><ele>813.0</ele><time>2026-03-22T13:27:45.649Z</time></trkpt><trkpt lat="45.771527" lon="10.5299654"><ele>813.0</ele><time>2026-03-22T13:28:19.585Z</time></trkpt><trkpt lat="45.7715105" lon="10.5300539"><ele>813.0</ele><time>2026-03-22T13:28:23.664Z</time></trkpt><trkpt lat="45.7714495" lon="10.5300787"><ele>813.0</ele><time>2026-03-22T13:28:27.669Z</time></trkpt><trkpt lat="45.7714376" lon="10.5299772"><ele>813.0</ele><time>2026-03-22T13:28:34.591Z</time></trkpt><trkpt lat="45.7714555" lon="10.5298893"><ele>813.0</ele><time>2026-03-22T13:28:40.641Z</time></trkpt><trkpt lat="45.7713811" lon="10.5298978"><ele>813.0</ele><time>2026-03-22T13:28:46.658Z</time></trkpt><trkpt lat="45.771313" lon="10.5298684"><ele>813.0</ele><time>2026-03-22T13:28:50.674Z</time></trkpt><trkpt lat="45.7713309" lon="10.5297662"><ele>813.0</ele><time>2026-03-22T13:28:59.595Z</time></trkpt><trkpt lat="45.7712722" lon="10.5297183"><ele>813.0</ele><time>2026-03-22T13:29:34.591Z</time></trkpt><trkpt lat="45.7713263" lon="10.5296594"><ele>813.0</ele><time>2026-03-22T13:29:43.638Z</time></trkpt><trkpt lat="45.7713654" lon="10.5295849"><ele>813.0</ele><time>2026-03-22T13:29:47.59Z</time></trkpt><trkpt lat="45.7713889" lon="10.5294893"><ele>813.0</ele><time>2026-03-22T13:29:51.601Z</time></trkpt><trkpt lat="45.7713345" lon="10.529431"><ele>813.0</ele><time>2026-03-22T13:29:55.588Z</time></trkpt><trkpt lat="45.7712792" lon="10.5294799"><ele>813.0</ele><time>2026-03-22T13:29:58.625Z</time></trkpt><trkpt lat="45.7712295" lon="10.5295612"><ele>807.3333333333334</ele><time>2026-03-22T13:30:02.586Z</time></trkpt><trkpt lat="45.7711577" lon="10.5295276"><ele>801.6666666666667</ele><time>2026-03-22T13:30:05.62Z</time></trkpt><trkpt lat="45.7710822" lon="10.5294846"><ele>796.0</ele><time>2026-03-22T13:30:09.636Z</time></trkpt><trkpt lat="45.7711522" lon="10.5294818"><ele>790.3333333333334</ele><time>2026-03-22T13:30:13.592Z</time></trkpt><trkpt lat="45.7711991" lon="10.5294088"><ele>784.6666666666667</ele><time>2026-03-22T13:30:17.596Z</time></trkpt><trkpt lat="45.7712622" lon="10.5293399"><ele>779.0</ele><time>2026-03-22T13:30:21.636Z</time></trkpt><trkpt lat="45.7711945" lon="10.529286"><ele>779.0000000000001</ele><time>2026-03-22T13:30:42.599Z</time></trkpt><trkpt lat="45.7711137" lon="10.5292828"><ele>779.0</ele><time>2026-03-22T13:30:46.645Z</time></trkpt><trkpt lat="45.7710418" lon="10.5292249"><ele>779.0</ele><time>2026-03-22T13:30:49.628Z</time></trkpt><trkpt lat="45.7709841" lon="10.529138"><ele>779.0</ele><time>2026-03-22T13:30:52.618Z</time></trkpt><trkpt lat="45.7709443" lon="10.529068"><ele>779.0000000000001</ele><time>2026-03-22T13:30:54.665Z</time></trkpt><trkpt lat="45.7710119" lon="10.5290682"><ele>779.0</ele><time>2026-03-22T13:31:03.653Z</time></trkpt><trkpt lat="45.7710852" lon="10.529065"><ele>779.0000000000001</ele><time>2026-03-22T13:31:07.651Z</time></trkpt><trkpt lat="45.7711557" lon="10.5289586"><ele>779.0</ele><time>2026-03-22T13:31:17.648Z</time></trkpt><trkpt lat="45.7710812" lon="10.5289146"><ele>779.0</ele><time>2026-03-22T13:31:20.63Z</time></trkpt><trkpt lat="45.7710097" lon="10.528878"><ele>779.0</ele><time>2026-03-22T13:31:23.654Z</time></trkpt><trkpt lat="45.7709452" lon="10.5287982"><ele>779.0000000000001</ele><time>2026-03-22T13:31:26.649Z</time></trkpt><trkpt lat="45.7708959" lon="10.528728"><ele>779.0</ele><time>2026-03-22T13:31:31.588Z</time></trkpt><trkpt lat="45.7708469" lon="10.5286655"><ele>773.4000000000001</ele><time>2026-03-22T13:31:35.654Z</time></trkpt><trkpt lat="45.7709102" lon="10.5285741"><ele>767.8</ele><time>2026-03-22T13:32:09.64Z</time></trkpt><trkpt lat="45.7710933" lon="10.5285612"><ele>762.2</ele><time>2026-03-22T13:32:19.598Z</time></trkpt><trkpt lat="45.7710389" lon="10.5285143"><ele>756.5999999999999</ele><time>2026-03-22T13:32:22.629Z</time></trkpt><trkpt lat="45.7709872" lon="10.5284465"><ele>751.0</ele><time>2026-03-22T13:32:26.655Z</time></trkpt><trkpt lat="45.7709673" lon="10.528355"><ele>751.0</ele><time>2026-03-22T13:32:28.639Z</time></trkpt><trkpt lat="45.770913" lon="10.5282789"><ele>751.0</ele><time>2026-03-22T13:32:31.667Z</time></trkpt><trkpt lat="45.7709902" lon="10.5282603"><ele>751.0</ele><time>2026-03-22T13:32:45.662Z</time></trkpt><trkpt lat="45.7710303" lon="10.5281791"><ele>751.0</ele><time>2026-03-22T13:32:53.645Z</time></trkpt><trkpt lat="45.7710238" lon="10.5280742"><ele>751.0</ele><time>2026-03-22T13:32:56.639Z</time></trkpt><trkpt lat="45.7709612" lon="10.5280324"><ele>751.0</ele><time>2026-03-22T13:33:01.646Z</time></trkpt><trkpt lat="45.7708916" lon="10.5279339"><ele>748.1666666666667</ele><time>2026-03-22T13:33:04.682Z</time></trkpt><trkpt lat="45.7709594" lon="10.5279063"><ele>745.3333333333334</ele><time>2026-03-22T13:33:22.593Z</time></trkpt><trkpt lat="45.770978" lon="10.5278089"><ele>742.5</ele><time>2026-03-22T13:33:39.638Z</time></trkpt><trkpt lat="45.7710359" lon="10.5277172"><ele>739.6666666666666</ele><time>2026-03-22T13:34:00.604Z</time></trkpt><trkpt lat="45.7711312" lon="10.5276479"><ele>736.8333333333333</ele><time>2026-03-22T13:34:04.638Z</time></trkpt><trkpt lat="45.7711735" lon="10.527547"><ele>734.0</ele><time>2026-03-22T13:34:08.599Z</time></trkpt><trkpt lat="45.7711896" lon="10.5274497"><ele>728.3333333333333</ele><time>2026-03-22T13:34:11.649Z</time></trkpt><trkpt lat="45.7711624" lon="10.5272892"><ele>722.6666666666666</ele><time>2026-03-22T13:34:15.654Z</time></trkpt><trkpt lat="45.7711774" lon="10.5271987"><ele>717.0</ele><time>2026-03-22T13:34:18.642Z</time></trkpt><trkpt lat="45.7711375" lon="10.5271257"><ele>711.3333333333334</ele><time>2026-03-22T13:35:32.588Z</time></trkpt><trkpt lat="45.7712182" lon="10.5271747"><ele>705.6666666666667</ele><time>2026-03-22T13:35:41.589Z</time></trkpt><trkpt lat="45.7712947" lon="10.5271989"><ele>700.0</ele><time>2026-03-22T13:35:46.631Z</time></trkpt><trkpt lat="45.7713671" lon="10.5271871"><ele>700.0</ele><time>2026-03-22T13:35:49.623Z</time></trkpt><trkpt lat="45.7714296" lon="10.5271686"><ele>700.0</ele><time>2026-03-22T13:35:52.611Z</time></trkpt><trkpt lat="45.7714997" lon="10.5271964"><ele>700.0</ele><time>2026-03-22T13:35:56.642Z</time></trkpt><trkpt lat="45.7715644" lon="10.5271527"><ele>700.0</ele><time>2026-03-22T13:36:00.649Z</time></trkpt><trkpt lat="45.7715259" lon="10.5270681"><ele>700.0</ele><time>2026-03-22T13:36:08.597Z</time></trkpt><trkpt lat="45.7714725" lon="10.5270053"><ele>700.0</ele><time>2026-03-22T13:36:12.645Z</time></trkpt><trkpt lat="45.7714086" lon="10.5269797"><ele>700.0</ele><time>2026-03-22T13:36:16.643Z</time></trkpt><trkpt lat="45.7714656" lon="10.5268793"><ele>691.3333333333334</ele><time>2026-03-22T13:37:41.592Z</time></trkpt><trkpt lat="45.771431" lon="10.5267786"><ele>682.6666666666667</ele><time>2026-03-22T13:38:13.673Z</time></trkpt><trkpt lat="45.7713603" lon="10.5267412"><ele>674.0</ele><time>2026-03-22T13:38:17.667Z</time></trkpt><trkpt lat="45.7714578" lon="10.5266754"><ele>665.3333333333334</ele><time>2026-03-22T13:38:34.644Z</time></trkpt><trkpt lat="45.771518" lon="10.5266251"><ele>656.6666666666666</ele><time>2026-03-22T13:38:37.657Z</time></trkpt><trkpt lat="45.7714769" lon="10.5265476"><ele>648.0</ele><time>2026-03-22T13:38:43.649Z</time></trkpt><trkpt lat="45.7714145" lon="10.5265175"><ele>648.0</ele><time>2026-03-22T13:38:47.623Z</time></trkpt><trkpt lat="45.7713508" lon="10.5265324"><ele>648.0</ele><time>2026-03-22T13:38:50.591Z</time></trkpt><trkpt lat="45.7714058" lon="10.5264735"><ele>648.0</ele><time>2026-03-22T13:39:03.642Z</time></trkpt><trkpt lat="45.7714793" lon="10.5264374"><ele>648.0</ele><time>2026-03-22T13:39:07.645Z</time></trkpt><trkpt lat="45.7714573" lon="10.5263483"><ele>648.0</ele><time>2026-03-22T13:39:18.65Z</time></trkpt><trkpt lat="45.7713926" lon="10.5263395"><ele>648.0</ele><time>2026-03-22T13:39:21.647Z</time></trkpt><trkpt lat="45.7713267" lon="10.5262944"><ele>648.0</ele><time>2026-03-22T13:39:24.633Z</time></trkpt><trkpt lat="45.7713915" lon="10.5262633"><ele>639.8333333333334</ele><time>2026-03-22T13:40:24.659Z</time></trkpt><trkpt lat="45.7714683" lon="10.5262142"><ele>631.6666666666666</ele><time>2026-03-22T13:40:28.593Z</time></trkpt><trkpt lat="45.7714043" lon="10.5261376"><ele>623.5</ele><time>2026-03-22T13:40:33.656Z</time></trkpt><trkpt lat="45.7713544" lon="10.5260716"><ele>615.3333333333333</ele><time>2026-03-22T13:40:37.654Z</time></trkpt><trkpt lat="45.7713927" lon="10.5259918"><ele>607.1666666666666</ele><time>2026-03-22T13:40:47.626Z</time></trkpt><trkpt lat="45.7713737" lon="10.5258897"><ele>599.0</ele><time>2026-03-22T13:40:56.642Z</time></trkpt><trkpt lat="45.771437" lon="10.5257928"><ele>599.0</ele><time>2026-03-22T13:41:08.64Z</time></trkpt><trkpt lat="45.7714971" lon="10.5257626"><ele>599.0</ele><time>2026-03-22T13:41:10.639Z</time></trkpt><trkpt lat="45.7716669" lon="10.5257218"><ele>599.0</ele><time>2026-03-22T13:41:18.589Z</time></trkpt><trkpt lat="45.771736" lon="10.5256376"><ele>599.0</ele><time>2026-03-22T13:41:21.658Z</time></trkpt><trkpt lat="45.7718119" lon="10.5255338"><ele>599.0</ele><time>2026-03-22T13:41:24.642Z</time></trkpt><trkpt lat="45.7718723" lon="10.5254582"><ele>592.8571428571429</ele><time>2026-03-22T13:41:26.635Z</time></trkpt><trkpt lat="45.7719019" lon="10.5253624"><ele>586.7142857142857</ele><time>2026-03-22T13:41:29.649Z</time></trkpt><trkpt lat="45.7718856" lon="10.525275"><ele>580.5714285714286</ele><time>2026-03-22T13:41:39.588Z</time></trkpt><trkpt lat="45.7718118" lon="10.5252966"><ele>574.4285714285714</ele><time>2026-03-22T13:41:44.631Z</time></trkpt><trkpt lat="45.7717422" lon="10.5253191"><ele>568.2857142857143</ele><time>2026-03-22T13:41:48.662Z</time></trkpt><trkpt lat="45.7716674" lon="10.5253458"><ele>562.1428571428571</ele><time>2026-03-22T13:41:51.657Z</time></trkpt><trkpt lat="45.7715942" lon="10.5253362"><ele>556.0</ele><time>2026-03-22T13:41:54.644Z</time></trkpt><trkpt lat="45.7715318" lon="10.5253567"><ele>556.0</ele><time>2026-03-22T13:41:56.667Z</time></trkpt><trkpt lat="45.7715669" lon="10.5252537"><ele>556.0</ele><time>2026-03-22T13:42:08.64Z</time></trkpt><trkpt lat="45.77163" lon="10.5251891"><ele>556.0</ele><time>2026-03-22T13:42:11.639Z</time></trkpt><trkpt lat="45.7716681" lon="10.5250975"><ele>556.0</ele><time>2026-03-22T13:42:20.65Z</time></trkpt><trkpt lat="45.771688" lon="10.5249968"><ele>556.0</ele><time>2026-03-22T13:42:23.705Z</time></trkpt><trkpt lat="45.771724" lon="10.5248916"><ele>556.0</ele><time>2026-03-22T13:42:27.651Z</time></trkpt><trkpt lat="45.7716551" lon="10.5248842"><ele>556.0</ele><time>2026-03-22T13:42:35.654Z</time></trkpt><trkpt lat="45.7715874" lon="10.5248868"><ele>556.0</ele><time>2026-03-22T13:42:38.664Z</time></trkpt><trkpt lat="45.7715185" lon="10.5249054"><ele>556.0</ele><time>2026-03-22T13:42:40.643Z</time></trkpt><trkpt lat="45.7714447" lon="10.5249025"><ele>556.0</ele><time>2026-03-22T13:42:43.625Z</time></trkpt><trkpt lat="45.7713642" lon="10.5248849"><ele>556.0</ele><time>2026-03-22T13:42:46.649Z</time></trkpt><trkpt lat="45.7713047" lon="10.5248447"><ele>556.0</ele><time>2026-03-22T13:42:50.723Z</time></trkpt><trkpt lat="45.7712299" lon="10.5248376"><ele>556.0</ele><time>2026-03-22T13:42:53.595Z</time></trkpt><trkpt lat="45.7711555" lon="10.5247956"><ele>556.0</ele><time>2026-03-22T13:42:56.644Z</time></trkpt><trkpt lat="45.771112" lon="10.5246905"><ele>556.0</ele><time>2026-03-22T13:43:00.698Z</time></trkpt><trkpt lat="45.7711805" lon="10.5246593"><ele>556.0</ele><time>2026-03-22T13:43:12.594Z</time></trkpt><trkpt lat="45.7712787" lon="10.5246258"><ele>556.0</ele><time>2026-03-22T13:43:15.661Z</time></trkpt><trkpt lat="45.7713614" lon="10.5246078"><ele>556.0</ele><time>2026-03-22T13:43:18.657Z</time></trkpt><trkpt lat="45.7714397" lon="10.5245507"><ele>556.0</ele><time>2026-03-22T13:43:21.65Z</time></trkpt><trkpt lat="45.7714902" lon="10.5244546"><ele>548.0</ele><time>2026-03-22T13:43:24.603Z</time></trkpt><trkpt lat="45.7715471" lon="10.5243789"><ele>540.0</ele><time>2026-03-22T13:43:28.629Z</time></trkpt><trkpt lat="45.771526" lon="10.524475"><ele>532.0</ele><time>2026-03-22T13:43:36.623Z</time></trkpt><trkpt lat="45.7714019" lon="10.5244868"><ele>524.0</ele><time>2026-03-22T13:43:55.643Z</time></trkpt><trkpt lat="45.7713451" lon="10.5244475"><ele>516.0</ele><time>2026-03-22T13:43:58.641Z</time></trkpt><trkpt lat="45.7712817" lon="10.524422"><ele>508.0</ele><time>2026-03-22T13:44:00.664Z</time></trkpt><trkpt lat="45.7712172" lon="10.524358"><ele>508.0</ele><time>2026-03-22T13:44:03.64Z</time></trkpt><trkpt lat="45.7713074" lon="10.5243169"><ele>508.0</ele><time>2026-03-22T13:44:17.619Z</time></trkpt><trkpt lat="45.7713679" lon="10.5242588"><ele>508.0</ele><time>2026-03-22T13:44:20.662Z</time></trkpt><trkpt lat="45.7714184" lon="10.5241773"><ele>508.0</ele><time>2026-03-22T13:44:23.671Z</time></trkpt><trkpt lat="45.7714346" lon="10.5240897"><ele>508.0</ele><time>2026-03-22T13:44:26.599Z</time></trkpt><trkpt lat="45.7713706" lon="10.5241041"><ele>508.0</ele><time>2026-03-22T13:45:21.591Z</time></trkpt><trkpt lat="45.7713031" lon="10.5240579"><ele>508.0</ele><time>2026-03-22T13:45:24.634Z</time></trkpt><trkpt lat="45.7712273" lon="10.5240284"><ele>508.0</ele><time>2026-03-22T13:45:27.643Z</time></trkpt><trkpt lat="45.7711643" lon="10.5239853"><ele>508.0</ele><time>2026-03-22T13:45:29.671Z</time></trkpt><trkpt lat="45.7710972" lon="10.5239758"><ele>508.0</ele><time>2026-03-22T13:45:32.629Z</time></trkpt><trkpt lat="45.7710319" lon="10.5239345"><ele>508.0</ele><time>2026-03-22T13:45:34.664Z</time></trkpt><trkpt lat="45.7709825" lon="10.5238758"><ele>508.0</ele><time>2026-03-22T13:45:36.64Z</time></trkpt><trkpt lat="45.7709089" lon="10.5238698"><ele>508.0</ele><time>2026-03-22T13:45:40.625Z</time></trkpt><trkpt lat="45.7710062" lon="10.5238484"><ele>508.0</ele><time>2026-03-22T13:45:51.66Z</time></trkpt><trkpt lat="45.7710688" lon="10.5238203"><ele>508.0</ele><time>2026-03-22T13:45:54.636Z</time></trkpt><trkpt lat="45.7710389" lon="10.5237372"><ele>508.0</ele><time>2026-03-22T13:46:02.712Z</time></trkpt><trkpt lat="45.7709787" lon="10.5236895"><ele>508.0</ele><time>2026-03-22T13:46:04.657Z</time></trkpt><trkpt lat="45.7709162" lon="10.5236329"><ele>508.0</ele><time>2026-03-22T13:46:07.658Z</time></trkpt><trkpt lat="45.7708338" lon="10.5236238"><ele>508.0</ele><time>2026-03-22T13:46:10.657Z</time></trkpt><trkpt lat="45.7707672" lon="10.5236387"><ele>508.0</ele><time>2026-03-22T13:46:13.632Z</time></trkpt><trkpt lat="45.7706904" lon="10.5235971"><ele>508.0</ele><time>2026-03-22T13:46:17.63Z</time></trkpt><trkpt lat="45.7706279" lon="10.5235566"><ele>500.50000000000006</ele><time>2026-03-22T13:46:21.612Z</time></trkpt><trkpt lat="45.7705563" lon="10.5234909"><ele>493.0</ele><time>2026-03-22T13:46:24.638Z</time></trkpt><trkpt lat="45.7704838" lon="10.5234367"><ele>485.5</ele><time>2026-03-22T13:46:27.684Z</time></trkpt><trkpt lat="45.7703904" lon="10.5234226"><ele>478.0</ele><time>2026-03-22T13:46:31.659Z</time></trkpt><trkpt lat="45.7703019" lon="10.5234012"><ele>470.50000000000006</ele><time>2026-03-22T13:46:34.639Z</time></trkpt><trkpt lat="45.7702359" lon="10.5233733"><ele>463.0</ele><time>2026-03-22T13:46:36.637Z</time></trkpt><trkpt lat="45.7702241" lon="10.5232652"><ele>463.00000000000006</ele><time>2026-03-22T13:46:39.661Z</time></trkpt><trkpt lat="45.7702191" lon="10.5231645"><ele>463.0</ele><time>2026-03-22T13:46:42.625Z</time></trkpt><trkpt lat="45.7701663" lon="10.523092"><ele>463.0</ele><time>2026-03-22T13:46:44.65Z</time></trkpt><trkpt lat="45.7701035" lon="10.5230086"><ele>463.0</ele><time>2026-03-22T13:46:46.655Z</time></trkpt><trkpt lat="45.7700399" lon="10.522921"><ele>463.00000000000006</ele><time>2026-03-22T13:46:48.655Z</time></trkpt><trkpt lat="45.7699608" lon="10.5228526"><ele>463.0</ele><time>2026-03-22T13:46:50.641Z</time></trkpt><trkpt lat="45.7699005" lon="10.5227938"><ele>460.0</ele><time>2026-03-22T13:46:52.658Z</time></trkpt><trkpt lat="45.7698133" lon="10.5227076"><ele>456.99999999999994</ele><time>2026-03-22T13:46:54.585Z</time></trkpt><trkpt lat="45.7698097" lon="10.5226037"><ele>453.99999999999994</ele><time>2026-03-22T13:46:56.639Z</time></trkpt><trkpt lat="45.769812" lon="10.5224741"><ele>451.0</ele><time>2026-03-22T13:46:58.657Z</time></trkpt><trkpt lat="45.7698309" lon="10.5223236"><ele>448.0</ele><time>2026-03-22T13:47:00.65Z</time></trkpt><trkpt lat="45.7698275" lon="10.5222096"><ele>448.00000000000006</ele><time>2026-03-22T13:47:02.591Z</time></trkpt><trkpt lat="45.7697544" lon="10.5221096"><ele>448.0</ele><time>2026-03-22T13:47:05.644Z</time></trkpt><trkpt lat="45.769811" lon="10.5221515"><ele>448.0</ele><time>2026-03-22T13:47:26.596Z</time></trkpt><trkpt lat="45.769839" lon="10.5222452"><ele>448.0</ele><time>2026-03-22T13:47:30.627Z</time></trkpt><trkpt lat="45.7699162" lon="10.5222825"><ele>448.00000000000006</ele><time>2026-03-22T13:47:34.612Z</time></trkpt><trkpt lat="45.7699982" lon="10.5223021"><ele>448.0</ele><time>2026-03-22T13:47:37.608Z</time></trkpt><trkpt lat="45.7700689" lon="10.5222676"><ele>448.00000000000006</ele><time>2026-03-22T13:47:39.643Z</time></trkpt><trkpt lat="45.7701523" lon="10.5222088"><ele>448.0</ele><time>2026-03-22T13:47:43.657Z</time></trkpt><trkpt lat="45.7702027" lon="10.5221497"><ele>448.0</ele><time>2026-03-22T13:47:45.64Z</time></trkpt><trkpt lat="45.7702878" lon="10.522104"><ele>448.0</ele><time>2026-03-22T13:47:48.657Z</time></trkpt><trkpt lat="45.7703632" lon="10.5220725"><ele>448.00000000000006</ele><time>2026-03-22T13:47:50.644Z</time></trkpt><trkpt lat="45.7704419" lon="10.5220391"><ele>448.0</ele><time>2026-03-22T13:47:51.646Z</time></trkpt><trkpt lat="45.7706393" lon="10.5220171"><ele>444.83333333333337</ele><time>2026-03-22T13:47:56.661Z</time></trkpt><trkpt lat="45.7707152" lon="10.5220095"><ele>441.6666666666667</ele><time>2026-03-22T13:47:58.652Z</time></trkpt><trkpt lat="45.770787" lon="10.5220851"><ele>438.5</ele><time>2026-03-22T13:48:01.65Z</time></trkpt><trkpt lat="45.7708304" lon="10.5221593"><ele>435.33333333333337</ele><time>2026-03-22T13:48:03.631Z</time></trkpt><trkpt lat="45.7709461" lon="10.5221702"><ele>432.1666666666667</ele><time>2026-03-22T13:48:06.659Z</time></trkpt><trkpt lat="45.7710079" lon="10.5222064"><ele>429.0</ele><time>2026-03-22T13:48:10.654Z</time></trkpt><trkpt lat="45.7710699" lon="10.5221794"><ele>428.3333333333333</ele><time>2026-03-22T13:48:12.657Z</time></trkpt><trkpt lat="45.7711376" lon="10.5221629"><ele>427.66666666666663</ele><time>2026-03-22T13:48:14.653Z</time></trkpt><trkpt lat="45.7711998" lon="10.522138"><ele>427.0</ele><time>2026-03-22T13:48:16.669Z</time></trkpt><trkpt lat="45.7712611" lon="10.5220815"><ele>426.3333333333333</ele><time>2026-03-22T13:48:18.655Z</time></trkpt><trkpt lat="45.7713262" lon="10.5220675"><ele>425.66666666666663</ele><time>2026-03-22T13:48:20.654Z</time></trkpt><trkpt lat="45.7714568" lon="10.5220795"><ele>425.0</ele><time>2026-03-22T13:48:30.685Z</time></trkpt><trkpt lat="45.7715276" lon="10.5220903"><ele>425.0</ele><time>2026-03-22T13:48:52.585Z</time></trkpt><trkpt lat="45.7716044" lon="10.5220887"><ele>425.0</ele><time>2026-03-22T13:48:56.656Z</time></trkpt><trkpt lat="45.7716671" lon="10.5220546"><ele>425.0</ele><time>2026-03-22T13:49:00.653Z</time></trkpt><trkpt lat="45.7716019" lon="10.5220901"><ele>425.0</ele><time>2026-03-22T13:49:23.645Z</time></trkpt><trkpt lat="45.7715468" lon="10.5220379"><ele>425.0</ele><time>2026-03-22T13:49:30.671Z</time></trkpt><trkpt lat="45.7714753" lon="10.5219838"><ele>425.0</ele><time>2026-03-22T13:49:35.657Z</time></trkpt><trkpt lat="45.7714121" lon="10.5219445"><ele>425.0</ele><time>2026-03-22T13:49:41.647Z</time></trkpt><trkpt lat="45.7713142" lon="10.5218912"><ele>416.75</ele><time>2026-03-22T13:49:43.651Z</time></trkpt><trkpt lat="45.7712247" lon="10.5218056"><ele>408.5</ele><time>2026-03-22T13:49:45.66Z</time></trkpt><trkpt lat="45.7711598" lon="10.5217015"><ele>400.25</ele><time>2026-03-22T13:49:47.656Z</time></trkpt><trkpt lat="45.7711312" lon="10.5216172"><ele>392.0</ele><time>2026-03-22T13:49:49.658Z</time></trkpt><trkpt lat="45.7713197" lon="10.5217355"><ele>391.99999999999994</ele><time>2026-03-22T14:13:40.646Z</time></trkpt><trkpt lat="45.7714077" lon="10.5216581"><ele>392.0</ele><time>2026-03-22T14:13:42.604Z</time></trkpt><trkpt lat="45.771485" lon="10.5216512"><ele>392.0</ele><time>2026-03-22T14:13:44.6Z</time></trkpt><trkpt lat="45.7715559" lon="10.5216514"><ele>392.0</ele><time>2026-03-22T14:13:47.647Z</time></trkpt><trkpt lat="45.7715315" lon="10.5215375"><ele>391.99999999999994</ele><time>2026-03-22T14:13:51.643Z</time></trkpt><trkpt lat="45.7714509" lon="10.5214694"><ele>392.0</ele><time>2026-03-22T14:13:54.656Z</time></trkpt><trkpt lat="45.7715174" lon="10.5214122"><ele>391.99999999999994</ele><time>2026-03-22T14:14:00.652Z</time></trkpt><trkpt lat="45.7715008" lon="10.5213243"><ele>392.0</ele><time>2026-03-22T14:14:01.64Z</time></trkpt><trkpt lat="45.7714711" lon="10.5211989"><ele>392.0</ele><time>2026-03-22T14:14:03.646Z</time></trkpt><trkpt lat="45.7714474" lon="10.5210978"><ele>392.0</ele><time>2026-03-22T14:14:05.599Z</time></trkpt><trkpt lat="45.7713994" lon="10.5210279"><ele>391.99999999999994</ele><time>2026-03-22T14:14:08.64Z</time></trkpt><trkpt lat="45.7713466" lon="10.5209505"><ele>392.0</ele><time>2026-03-22T14:14:12.603Z</time></trkpt><trkpt lat="45.7712728" lon="10.5209039"><ele>389.99999999999994</ele><time>2026-03-22T14:14:16.614Z</time></trkpt><trkpt lat="45.7711874" lon="10.5208418"><ele>388.0</ele><time>2026-03-22T14:14:20.604Z</time></trkpt><trkpt lat="45.7711226" lon="10.520812"><ele>386.0</ele><time>2026-03-22T14:14:32.602Z</time></trkpt><trkpt lat="45.771054" lon="10.5207713"><ele>384.0</ele><time>2026-03-22T14:14:36.643Z</time></trkpt><trkpt lat="45.7709928" lon="10.5207276"><ele>382.0</ele><time>2026-03-22T14:15:04.627Z</time></trkpt><trkpt lat="45.770925" lon="10.5207469"><ele>380.0</ele><time>2026-03-22T14:19:19.599Z</time></trkpt><trkpt lat="45.7708471" lon="10.5208064"><ele>380.0</ele><time>2026-03-22T14:19:22.585Z</time></trkpt><trkpt lat="45.7707422" lon="10.5205993"><ele>380.0</ele><time>2026-03-22T14:19:23.6Z</time></trkpt><trkpt lat="45.7706601" lon="10.5205182"><ele>380.0</ele><time>2026-03-22T14:19:25.659Z</time></trkpt><trkpt lat="45.7706053" lon="10.5204564"><ele>380.0</ele><time>2026-03-22T14:19:27.6Z</time></trkpt><trkpt lat="45.7705311" lon="10.5203841"><ele>380.0</ele><time>2026-03-22T14:19:30.609Z</time></trkpt><trkpt lat="45.7704672" lon="10.5203624"><ele>379.5</ele><time>2026-03-22T14:19:32.602Z</time></trkpt><trkpt lat="45.7703939" lon="10.5203241"><ele>379.0</ele><time>2026-03-22T14:19:34.604Z</time></trkpt><trkpt lat="45.7703288" lon="10.5202715"><ele>378.5</ele><time>2026-03-22T14:19:36.596Z</time></trkpt><trkpt lat="45.770266" lon="10.5201986"><ele>378.0</ele><time>2026-03-22T14:19:38.663Z</time></trkpt><trkpt lat="45.7702046" lon="10.5201146"><ele>377.5</ele><time>2026-03-22T14:19:40.599Z</time></trkpt><trkpt lat="45.7701412" lon="10.520023"><ele>377.0</ele><time>2026-03-22T14:19:42.598Z</time></trkpt><trkpt lat="45.7700801" lon="10.5199343"><ele>377.0</ele><time>2026-03-22T14:19:44.666Z</time></trkpt><trkpt lat="45.7700207" lon="10.5198306"><ele>377.0</ele><time>2026-03-22T14:19:46.595Z</time></trkpt><trkpt lat="45.7699595" lon="10.5197533"><ele>377.0</ele><time>2026-03-22T14:19:48.593Z</time></trkpt><trkpt lat="45.7698974" lon="10.5196748"><ele>377.0</ele><time>2026-03-22T14:19:50.664Z</time></trkpt><trkpt lat="45.7698278" lon="10.5195814"><ele>377.0</ele><time>2026-03-22T14:19:52.6Z</time></trkpt><trkpt lat="45.7697548" lon="10.5195004"><ele>377.0</ele><time>2026-03-22T14:19:54.597Z</time></trkpt><trkpt lat="45.7696849" lon="10.5194269"><ele>377.5</ele><time>2026-03-22T14:19:56.598Z</time></trkpt><trkpt lat="45.7696157" lon="10.5193526"><ele>378.0</ele><time>2026-03-22T14:19:58.599Z</time></trkpt><trkpt lat="45.7695488" lon="10.5193033"><ele>378.5</ele><time>2026-03-22T14:20:00.6Z</time></trkpt><trkpt lat="45.7694879" lon="10.5192361"><ele>379.0</ele><time>2026-03-22T14:20:02.683Z</time></trkpt><trkpt lat="45.7694202" lon="10.5191672"><ele>379.5</ele><time>2026-03-22T14:20:04.658Z</time></trkpt><trkpt lat="45.7693438" lon="10.5191131"><ele>380.0</ele><time>2026-03-22T14:20:06.601Z</time></trkpt><trkpt lat="45.7692664" lon="10.5190582"><ele>380.0</ele><time>2026-03-22T14:20:08.597Z</time></trkpt><trkpt lat="45.7692012" lon="10.5189834"><ele>380.0</ele><time>2026-03-22T14:20:10.597Z</time></trkpt><trkpt lat="45.7691368" lon="10.5189114"><ele>380.0</ele><time>2026-03-22T14:20:12.598Z</time></trkpt><trkpt lat="45.7690787" lon="10.5188269"><ele>380.0</ele><time>2026-03-22T14:20:14.667Z</time></trkpt><trkpt lat="45.769016" lon="10.5187456"><ele>380.0</ele><time>2026-03-22T14:20:16.627Z</time></trkpt><trkpt lat="45.768946" lon="10.5186771"><ele>380.0</ele><time>2026-03-22T14:20:18.614Z</time></trkpt><trkpt lat="45.7688818" lon="10.5186036"><ele>378.6666666666667</ele><time>2026-03-22T14:20:20.613Z</time></trkpt><trkpt lat="45.7688197" lon="10.5185292"><ele>377.33333333333337</ele><time>2026-03-22T14:20:22.598Z</time></trkpt><trkpt lat="45.768758" lon="10.518451"><ele>376.0</ele><time>2026-03-22T14:20:24.593Z</time></trkpt><trkpt lat="45.7686933" lon="10.5183852"><ele>374.6666666666667</ele><time>2026-03-22T14:20:26.638Z</time></trkpt><trkpt lat="45.7686295" lon="10.5183098"><ele>373.3333333333333</ele><time>2026-03-22T14:20:28.64Z</time></trkpt><trkpt lat="45.7685678" lon="10.5182267"><ele>372.0</ele><time>2026-03-22T14:20:30.602Z</time></trkpt><trkpt lat="45.768491" lon="10.5181702"><ele>372.0</ele><time>2026-03-22T14:20:32.599Z</time></trkpt><trkpt lat="45.7684149" lon="10.5181375"><ele>372.0</ele><time>2026-03-22T14:20:34.604Z</time></trkpt><trkpt lat="45.7683408" lon="10.5181008"><ele>372.0</ele><time>2026-03-22T14:20:36.6Z</time></trkpt><trkpt lat="45.7682635" lon="10.5180676"><ele>372.0</ele><time>2026-03-22T14:20:38.6Z</time></trkpt><trkpt lat="45.7681881" lon="10.5180447"><ele>372.0</ele><time>2026-03-22T14:20:40.614Z</time></trkpt><trkpt lat="45.7681058" lon="10.5180201"><ele>372.0</ele><time>2026-03-22T14:20:42.6Z</time></trkpt><trkpt lat="45.7680227" lon="10.5180124"><ele>372.0</ele><time>2026-03-22T14:20:44.597Z</time></trkpt><trkpt lat="45.7679608" lon="10.5179937"><ele>372.0</ele><time>2026-03-22T14:20:46.591Z</time></trkpt><trkpt lat="45.7678494" lon="10.5180093"><ele>372.0</ele><time>2026-03-22T14:20:48.601Z</time></trkpt><trkpt lat="45.7677461" lon="10.5179874"><ele>372.0</ele><time>2026-03-22T14:20:50.609Z</time></trkpt><trkpt lat="45.7676597" lon="10.5179609"><ele>372.0</ele><time>2026-03-22T14:20:52.61Z</time></trkpt><trkpt lat="45.7676006" lon="10.517928"><ele>372.0</ele><time>2026-03-22T14:20:54.593Z</time></trkpt><trkpt lat="45.7675219" lon="10.5178815"><ele>371.42857142857144</ele><time>2026-03-22T14:20:56.605Z</time></trkpt><trkpt lat="45.7674633" lon="10.5178346"><ele>370.8571428571429</ele><time>2026-03-22T14:20:58.722Z</time></trkpt><trkpt lat="45.7674141" lon="10.5177624"><ele>370.28571428571433</ele><time>2026-03-22T14:21:00.598Z</time></trkpt><trkpt lat="45.7673607" lon="10.517708"><ele>369.7142857142857</ele><time>2026-03-22T14:21:02.595Z</time></trkpt><trkpt lat="45.7672897" lon="10.5176481"><ele>369.1428571428571</ele><time>2026-03-22T14:21:05.665Z</time></trkpt><trkpt lat="45.7672337" lon="10.5175843"><ele>368.5714285714286</ele><time>2026-03-22T14:21:08.6Z</time></trkpt><trkpt lat="45.7671647" lon="10.5175124"><ele>368.0</ele><time>2026-03-22T14:21:11.599Z</time></trkpt><trkpt lat="45.7670999" lon="10.5174431"><ele>368.0</ele><time>2026-03-22T14:21:14.665Z</time></trkpt><trkpt lat="45.7670283" lon="10.5173821"><ele>368.0</ele><time>2026-03-22T14:21:17.607Z</time></trkpt><trkpt lat="45.7669748" lon="10.517325"><ele>368.0</ele><time>2026-03-22T14:21:19.663Z</time></trkpt><trkpt lat="45.7669142" lon="10.5172749"><ele>368.0</ele><time>2026-03-22T14:21:21.668Z</time></trkpt><trkpt lat="45.7668493" lon="10.5172303"><ele>368.0</ele><time>2026-03-22T14:21:23.604Z</time></trkpt><trkpt lat="45.7667932" lon="10.5171783"><ele>368.0</ele><time>2026-03-22T14:21:25.714Z</time></trkpt><trkpt lat="45.7667124" lon="10.5171035"><ele>369.0</ele><time>2026-03-22T14:21:28.603Z</time></trkpt><trkpt lat="45.7666136" lon="10.5170476"><ele>370.0</ele><time>2026-03-22T14:21:31.631Z</time></trkpt><trkpt lat="45.7665537" lon="10.5169888"><ele>371.0</ele><time>2026-03-22T14:21:34.63Z</time></trkpt><trkpt lat="45.7664947" lon="10.5169339"><ele>372.0</ele><time>2026-03-22T14:21:36.646Z</time></trkpt><trkpt lat="45.7664221" lon="10.5168789"><ele>373.0</ele><time>2026-03-22T14:21:38.606Z</time></trkpt><trkpt lat="45.7663329" lon="10.5168202"><ele>374.0</ele><time>2026-03-22T14:21:40.632Z</time></trkpt><trkpt lat="45.7662412" lon="10.5167722"><ele>374.0</ele><time>2026-03-22T14:21:42.648Z</time></trkpt><trkpt lat="45.7661634" lon="10.5167095"><ele>374.0</ele><time>2026-03-22T14:21:44.606Z</time></trkpt><trkpt lat="45.7660841" lon="10.5166554"><ele>374.0</ele><time>2026-03-22T14:21:46.593Z</time></trkpt><trkpt lat="45.7660271" lon="10.5166072"><ele>374.0</ele><time>2026-03-22T14:21:48.602Z</time></trkpt><trkpt lat="45.7659818" lon="10.516535"><ele>374.0</ele><time>2026-03-22T14:21:50.593Z</time></trkpt><trkpt lat="45.765893" lon="10.5164395"><ele>374.0</ele><time>2026-03-22T14:21:52.599Z</time></trkpt><trkpt lat="45.7658297" lon="10.5163644"><ele>374.2</ele><time>2026-03-22T14:21:54.667Z</time></trkpt><trkpt lat="45.76576" lon="10.5162908"><ele>374.4</ele><time>2026-03-22T14:21:56.613Z</time></trkpt><trkpt lat="45.7656719" lon="10.5162396"><ele>374.6</ele><time>2026-03-22T14:21:57.602Z</time></trkpt><trkpt lat="45.7656213" lon="10.5161576"><ele>374.8</ele><time>2026-03-22T14:21:59.6Z</time></trkpt><trkpt lat="45.7655854" lon="10.516027"><ele>375.0</ele><time>2026-03-22T14:22:01.603Z</time></trkpt><trkpt lat="45.7655404" lon="10.5158968"><ele>375.0</ele><time>2026-03-22T14:22:03.653Z</time></trkpt><trkpt lat="45.7655051" lon="10.5157891"><ele>375.0</ele><time>2026-03-22T14:22:05.595Z</time></trkpt><trkpt lat="45.7654561" lon="10.5156564"><ele>375.0</ele><time>2026-03-22T14:22:07.653Z</time></trkpt><trkpt lat="45.7653939" lon="10.5155167"><ele>375.0</ele><time>2026-03-22T14:22:10.649Z</time></trkpt><trkpt lat="45.7653386" lon="10.5154313"><ele>375.0</ele><time>2026-03-22T14:22:12.595Z</time></trkpt><trkpt lat="45.7652694" lon="10.5153643"><ele>375.5</ele><time>2026-03-22T14:22:14.594Z</time></trkpt><trkpt lat="45.7652132" lon="10.5152802"><ele>376.0</ele><time>2026-03-22T14:22:16.598Z</time></trkpt><trkpt lat="45.7651544" lon="10.5152089"><ele>376.5</ele><time>2026-03-22T14:22:18.595Z</time></trkpt><trkpt lat="45.7650922" lon="10.5151425"><ele>377.0</ele><time>2026-03-22T14:22:20.659Z</time></trkpt><trkpt lat="45.7650232" lon="10.5150852"><ele>377.5</ele><time>2026-03-22T14:22:22.67Z</time></trkpt><trkpt lat="45.7649588" lon="10.5150407"><ele>378.0</ele><time>2026-03-22T14:22:24.595Z</time></trkpt><trkpt lat="45.7648845" lon="10.5150036"><ele>378.0</ele><time>2026-03-22T14:22:27.601Z</time></trkpt><trkpt lat="45.7648215" lon="10.5149615"><ele>378.0</ele><time>2026-03-22T14:22:30.665Z</time></trkpt><trkpt lat="45.7647655" lon="10.5149034"><ele>378.0</ele><time>2026-03-22T14:22:33.606Z</time></trkpt><trkpt lat="45.7647055" lon="10.5148466"><ele>378.0</ele><time>2026-03-22T14:22:42.608Z</time></trkpt><trkpt lat="45.7646547" lon="10.5147713"><ele>378.0</ele><time>2026-03-22T14:22:48.609Z</time></trkpt><trkpt lat="45.7645755" lon="10.5147464"><ele>378.0</ele><time>2026-03-22T14:22:53.603Z</time></trkpt><trkpt lat="45.7645109" lon="10.5147103"><ele>378.0</ele><time>2026-03-22T14:22:56.668Z</time></trkpt><trkpt lat="45.764438" lon="10.514648"><ele>377.79999999999995</ele><time>2026-03-22T14:22:59.595Z</time></trkpt><trkpt lat="45.7643731" lon="10.5145556"><ele>377.6</ele><time>2026-03-22T14:23:02.628Z</time></trkpt><trkpt lat="45.7643167" lon="10.5145037"><ele>377.4</ele><time>2026-03-22T14:23:05.6Z</time></trkpt><trkpt lat="45.7642123" lon="10.5144729"><ele>377.20000000000005</ele><time>2026-03-22T14:23:09.625Z</time></trkpt><trkpt lat="45.7641004" lon="10.5144251"><ele>377.0</ele><time>2026-03-22T14:23:11.629Z</time></trkpt><trkpt lat="45.7640091" lon="10.5143143"><ele>377.0</ele><time>2026-03-22T14:23:13.596Z</time></trkpt><trkpt lat="45.7639616" lon="10.5142417"><ele>377.0</ele><time>2026-03-22T14:23:15.595Z</time></trkpt><trkpt lat="45.763889" lon="10.514185"><ele>377.0</ele><time>2026-03-22T14:23:17.636Z</time></trkpt><trkpt lat="45.7638138" lon="10.514113"><ele>377.0</ele><time>2026-03-22T14:23:19.591Z</time></trkpt><trkpt lat="45.7637527" lon="10.5140332"><ele>377.0</ele><time>2026-03-22T14:23:21.6Z</time></trkpt><trkpt lat="45.7636911" lon="10.5139697"><ele>377.0</ele><time>2026-03-22T14:23:23.646Z</time></trkpt><trkpt lat="45.7635863" lon="10.513884"><ele>376.75</ele><time>2026-03-22T14:23:26.62Z</time></trkpt><trkpt lat="45.7634755" lon="10.5138124"><ele>376.5</ele><time>2026-03-22T14:23:28.598Z</time></trkpt><trkpt lat="45.7634043" lon="10.5137486"><ele>376.25</ele><time>2026-03-22T14:23:31.64Z</time></trkpt><trkpt lat="45.7632714" lon="10.5136887"><ele>376.0</ele><time>2026-03-22T14:23:33.595Z</time></trkpt><trkpt lat="45.7631716" lon="10.513608"><ele>376.0</ele><time>2026-03-22T14:23:36.645Z</time></trkpt><trkpt lat="45.7630819" lon="10.5135454"><ele>376.0</ele><time>2026-03-22T14:23:38.657Z</time></trkpt><trkpt lat="45.7630233" lon="10.5134929"><ele>376.0</ele><time>2026-03-22T14:23:40.611Z</time></trkpt><trkpt lat="45.7629627" lon="10.5133823"><ele>376.0</ele><time>2026-03-22T14:23:43.599Z</time></trkpt><trkpt lat="45.7629346" lon="10.5133011"><ele>376.0</ele><time>2026-03-22T14:23:45.638Z</time></trkpt><trkpt lat="45.7628974" lon="10.5132227"><ele>376.0</ele><time>2026-03-22T14:23:47.655Z</time></trkpt><trkpt lat="45.7628347" lon="10.5131395"><ele>376.0</ele><time>2026-03-22T14:23:49.595Z</time></trkpt><trkpt lat="45.7627578" lon="10.5130385"><ele>376.0</ele><time>2026-03-22T14:23:51.611Z</time></trkpt><trkpt lat="45.7627082" lon="10.5129446"><ele>376.0</ele><time>2026-03-22T14:23:53.647Z</time></trkpt><trkpt lat="45.7626496" lon="10.5128467"><ele>376.0</ele><time>2026-03-22T14:23:55.6Z</time></trkpt><trkpt lat="45.7625719" lon="10.5127614"><ele>376.0</ele><time>2026-03-22T14:23:57.603Z</time></trkpt><trkpt lat="45.7624724" lon="10.5127039"><ele>376.4</ele><time>2026-03-22T14:23:59.653Z</time></trkpt><trkpt lat="45.7623887" lon="10.5126362"><ele>376.8</ele><time>2026-03-22T14:24:01.655Z</time></trkpt><trkpt lat="45.7623075" lon="10.5125769"><ele>377.2</ele><time>2026-03-22T14:24:03.602Z</time></trkpt><trkpt lat="45.7622659" lon="10.5124902"><ele>377.59999999999997</ele><time>2026-03-22T14:24:05.594Z</time></trkpt><trkpt lat="45.7621581" lon="10.5124528"><ele>378.0</ele><time>2026-03-22T14:24:07.593Z</time></trkpt><trkpt lat="45.762047" lon="10.5123926"><ele>378.0</ele><time>2026-03-22T14:24:09.669Z</time></trkpt><trkpt lat="45.7619876" lon="10.5123294"><ele>378.0</ele><time>2026-03-22T14:24:11.601Z</time></trkpt><trkpt lat="45.7619234" lon="10.5122678"><ele>378.0</ele><time>2026-03-22T14:24:13.596Z</time></trkpt><trkpt lat="45.7618652" lon="10.5121668"><ele>378.0</ele><time>2026-03-22T14:24:15.599Z</time></trkpt><trkpt lat="45.7618102" lon="10.5120479"><ele>378.0</ele><time>2026-03-22T14:24:17.596Z</time></trkpt><trkpt lat="45.7617303" lon="10.5119462"><ele>378.0</ele><time>2026-03-22T14:24:19.66Z</time></trkpt><trkpt lat="45.7616676" lon="10.5118314"><ele>378.0</ele><time>2026-03-22T14:24:21.597Z</time></trkpt><trkpt lat="45.761605" lon="10.5117292"><ele>378.0</ele><time>2026-03-22T14:24:23.592Z</time></trkpt><trkpt lat="45.7615778" lon="10.5116176"><ele>378.0</ele><time>2026-03-22T14:24:25.609Z</time></trkpt><trkpt lat="45.7614935" lon="10.5115332"><ele>378.0</ele><time>2026-03-22T14:24:27.629Z</time></trkpt><trkpt lat="45.7614243" lon="10.5114185"><ele>378.0</ele><time>2026-03-22T14:24:29.619Z</time></trkpt><trkpt lat="45.76136" lon="10.5113069"><ele>375.59999999999997</ele><time>2026-03-22T14:24:31.629Z</time></trkpt><trkpt lat="45.7612994" lon="10.5111882"><ele>373.2</ele><time>2026-03-22T14:24:33.65Z</time></trkpt><trkpt lat="45.7612081" lon="10.5110827"><ele>370.8</ele><time>2026-03-22T14:24:35.622Z</time></trkpt><trkpt lat="45.7611304" lon="10.5109743"><ele>368.4</ele><time>2026-03-22T14:24:37.623Z</time></trkpt><trkpt lat="45.7610625" lon="10.5108654"><ele>366.0</ele><time>2026-03-22T14:24:39.64Z</time></trkpt><trkpt lat="45.7609569" lon="10.5107669"><ele>367.6</ele><time>2026-03-22T14:24:41.657Z</time></trkpt><trkpt lat="45.7608957" lon="10.5106511"><ele>369.20000000000005</ele><time>2026-03-22T14:24:43.651Z</time></trkpt><trkpt lat="45.7608354" lon="10.5105587"><ele>370.79999999999995</ele><time>2026-03-22T14:24:45.697Z</time></trkpt><trkpt lat="45.7607679" lon="10.5104808"><ele>372.4</ele><time>2026-03-22T14:24:47.705Z</time></trkpt><trkpt lat="45.7606558" lon="10.5104215"><ele>374.0</ele><time>2026-03-22T14:24:49.595Z</time></trkpt><trkpt lat="45.7605925" lon="10.510357"><ele>374.0</ele><time>2026-03-22T14:24:51.654Z</time></trkpt><trkpt lat="45.7605152" lon="10.5102795"><ele>374.0</ele><time>2026-03-22T14:24:53.604Z</time></trkpt><trkpt lat="45.7604396" lon="10.5101849"><ele>374.0</ele><time>2026-03-22T14:24:55.593Z</time></trkpt><trkpt lat="45.7603692" lon="10.5101005"><ele>374.0</ele><time>2026-03-22T14:24:57.599Z</time></trkpt><trkpt lat="45.7602969" lon="10.5100054"><ele>374.0</ele><time>2026-03-22T14:24:59.596Z</time></trkpt><trkpt lat="45.7602194" lon="10.5099149"><ele>395.0</ele><time>2026-03-22T14:25:01.65Z</time></trkpt><trkpt lat="45.7582908" lon="10.5067415"><ele>394.99999999999994</ele><time>2026-03-22T14:26:03.611Z</time></trkpt><trkpt lat="45.7582276" lon="10.5066641"><ele>395.0</ele><time>2026-03-22T14:26:05.605Z</time></trkpt><trkpt lat="45.7581443" lon="10.5066115"><ele>395.0</ele><time>2026-03-22T14:26:07.603Z</time></trkpt><trkpt lat="45.7580961" lon="10.5065384"><ele>395.0</ele><time>2026-03-22T14:26:08.616Z</time></trkpt><trkpt lat="45.7580373" lon="10.5064539"><ele>394.99999999999994</ele><time>2026-03-22T14:26:10.615Z</time></trkpt><trkpt lat="45.7579836" lon="10.5063488"><ele>395.0</ele><time>2026-03-22T14:26:12.605Z</time></trkpt><trkpt lat="45.7579385" lon="10.5062657"><ele>395.2</ele><time>2026-03-22T14:26:14.611Z</time></trkpt><trkpt lat="45.7578725" lon="10.5060998"><ele>395.4</ele><time>2026-03-22T14:26:17.609Z</time></trkpt><trkpt lat="45.7578151" lon="10.5059893"><ele>395.6</ele><time>2026-03-22T14:26:19.656Z</time></trkpt><trkpt lat="45.7577597" lon="10.5058785"><ele>395.8</ele><time>2026-03-22T14:26:21.662Z</time></trkpt><trkpt lat="45.7577408" lon="10.5057725"><ele>396.0</ele><time>2026-03-22T14:26:23.606Z</time></trkpt><trkpt lat="45.7576848" lon="10.5056513"><ele>396.0</ele><time>2026-03-22T14:26:25.606Z</time></trkpt><trkpt lat="45.7576339" lon="10.5055848"><ele>396.0</ele><time>2026-03-22T14:26:26.614Z</time></trkpt><trkpt lat="45.7575594" lon="10.5055182"><ele>396.0</ele><time>2026-03-22T14:26:27.617Z</time></trkpt><trkpt lat="45.7575118" lon="10.505456"><ele>396.0</ele><time>2026-03-22T14:26:28.641Z</time></trkpt><trkpt lat="45.7574669" lon="10.5053778"><ele>396.0</ele><time>2026-03-22T14:26:29.597Z</time></trkpt><trkpt lat="45.7574191" lon="10.5052476"><ele>396.0</ele><time>2026-03-22T14:26:31.626Z</time></trkpt><trkpt lat="45.7573785" lon="10.5051179"><ele>392.20000000000005</ele><time>2026-03-22T14:26:33.641Z</time></trkpt><trkpt lat="45.7573249" lon="10.5049815"><ele>388.40000000000003</ele><time>2026-03-22T14:26:35.623Z</time></trkpt><trkpt lat="45.7572786" lon="10.5048583"><ele>384.6</ele><time>2026-03-22T14:26:37.646Z</time></trkpt><trkpt lat="45.7572483" lon="10.5047354"><ele>380.8</ele><time>2026-03-22T14:26:39.648Z</time></trkpt><trkpt lat="45.7572106" lon="10.5046205"><ele>377.0</ele><time>2026-03-22T14:26:41.65Z</time></trkpt><trkpt lat="45.7571849" lon="10.5044969"><ele>374.8</ele><time>2026-03-22T14:26:43.645Z</time></trkpt><trkpt lat="45.7571579" lon="10.5043648"><ele>372.6</ele><time>2026-03-22T14:26:45.606Z</time></trkpt><trkpt lat="45.7571036" lon="10.5042346"><ele>370.40000000000003</ele><time>2026-03-22T14:26:47.615Z</time></trkpt><trkpt lat="45.7570716" lon="10.5041089"><ele>368.20000000000005</ele><time>2026-03-22T14:26:49.661Z</time></trkpt><trkpt lat="45.7570384" lon="10.5039846"><ele>366.0</ele><time>2026-03-22T14:26:51.659Z</time></trkpt><trkpt lat="45.7569873" lon="10.503846"><ele>365.20000000000005</ele><time>2026-03-22T14:26:53.676Z</time></trkpt><trkpt lat="45.7569207" lon="10.5037313"><ele>364.40000000000003</ele><time>2026-03-22T14:26:55.62Z</time></trkpt><trkpt lat="45.7568697" lon="10.5036155"><ele>363.6</ele><time>2026-03-22T14:26:57.673Z</time></trkpt><trkpt lat="45.756806" lon="10.5034813"><ele>362.8</ele><time>2026-03-22T14:26:59.667Z</time></trkpt><trkpt lat="45.7567451" lon="10.5033694"><ele>362.0</ele><time>2026-03-22T14:27:01.67Z</time></trkpt><trkpt lat="45.7566834" lon="10.5032598"><ele>363.40000000000003</ele><time>2026-03-22T14:27:03.678Z</time></trkpt><trkpt lat="45.7566537" lon="10.5031644"><ele>364.8</ele><time>2026-03-22T14:27:05.679Z</time></trkpt><trkpt lat="45.75658" lon="10.5030353"><ele>366.2</ele><time>2026-03-22T14:27:07.607Z</time></trkpt><trkpt lat="45.7565133" lon="10.5029199"><ele>367.6</ele><time>2026-03-22T14:27:09.661Z</time></trkpt><trkpt lat="45.7564646" lon="10.502787"><ele>369.0</ele><time>2026-03-22T14:27:11.669Z</time></trkpt><trkpt lat="45.7564048" lon="10.5027315"><ele>369.0</ele><time>2026-03-22T14:27:12.672Z</time></trkpt><trkpt lat="45.7563527" lon="10.502665"><ele>369.0</ele><time>2026-03-22T14:27:13.665Z</time></trkpt><trkpt lat="45.7562896" lon="10.502613"><ele>369.0</ele><time>2026-03-22T14:27:14.663Z</time></trkpt><trkpt lat="45.7561824" lon="10.5025124"><ele>369.0</ele><time>2026-03-22T14:27:16.659Z</time></trkpt><trkpt lat="45.7561297" lon="10.5024057"><ele>369.0</ele><time>2026-03-22T14:27:18.663Z</time></trkpt><trkpt lat="45.7560511" lon="10.502323"><ele>369.3333333333333</ele><time>2026-03-22T14:27:20.704Z</time></trkpt><trkpt lat="45.7559884" lon="10.5022478"><ele>369.6666666666667</ele><time>2026-03-22T14:27:22.664Z</time></trkpt><trkpt lat="45.7559413" lon="10.5021643"><ele>370.0</ele><time>2026-03-22T14:27:24.6Z</time></trkpt><trkpt lat="45.7558857" lon="10.5020754"><ele>370.33333333333337</ele><time>2026-03-22T14:27:26.622Z</time></trkpt><trkpt lat="45.7558207" lon="10.501994"><ele>370.6666666666667</ele><time>2026-03-22T14:27:28.608Z</time></trkpt><trkpt lat="45.7557447" lon="10.5018823"><ele>371.0</ele><time>2026-03-22T14:27:30.61Z</time></trkpt><trkpt lat="45.7556747" lon="10.5018021"><ele>371.0</ele><time>2026-03-22T14:27:32.617Z</time></trkpt><trkpt lat="45.7556046" lon="10.5017233"><ele>371.0</ele><time>2026-03-22T14:27:34.625Z</time></trkpt><trkpt lat="45.7555353" lon="10.5016519"><ele>371.0</ele><time>2026-03-22T14:27:36.618Z</time></trkpt><trkpt lat="45.7554824" lon="10.5015305"><ele>371.0</ele><time>2026-03-22T14:27:38.604Z</time></trkpt><trkpt lat="45.7554479" lon="10.5014188"><ele>371.0</ele><time>2026-03-22T14:27:40.636Z</time></trkpt><trkpt lat="45.7554024" lon="10.5012951"><ele>369.4</ele><time>2026-03-22T14:27:42.647Z</time></trkpt><trkpt lat="45.7553626" lon="10.5011834"><ele>367.8</ele><time>2026-03-22T14:27:44.616Z</time></trkpt><trkpt lat="45.7553009" lon="10.5010781"><ele>366.2</ele><time>2026-03-22T14:27:46.602Z</time></trkpt><trkpt lat="45.7552426" lon="10.5009753"><ele>364.59999999999997</ele><time>2026-03-22T14:27:48.662Z</time></trkpt><trkpt lat="45.7551833" lon="10.5008651"><ele>363.0</ele><time>2026-03-22T14:27:50.638Z</time></trkpt><trkpt lat="45.7551003" lon="10.5008038"><ele>364.6666666666667</ele><time>2026-03-22T14:27:51.669Z</time></trkpt><trkpt lat="45.7550507" lon="10.5007111"><ele>366.3333333333333</ele><time>2026-03-22T14:27:53.616Z</time></trkpt><trkpt lat="45.7550048" lon="10.5006283"><ele>368.0</ele><time>2026-03-22T14:27:55.667Z</time></trkpt><trkpt lat="45.7549366" lon="10.5005419"><ele>369.66666666666663</ele><time>2026-03-22T14:27:57.661Z</time></trkpt><trkpt lat="45.7548759" lon="10.5004649"><ele>371.3333333333333</ele><time>2026-03-22T14:27:59.609Z</time></trkpt><trkpt lat="45.754822" lon="10.500405"><ele>373.0</ele><time>2026-03-22T14:28:01.634Z</time></trkpt><trkpt lat="45.7547644" lon="10.5003289"><ele>373.0</ele><time>2026-03-22T14:28:03.676Z</time></trkpt><trkpt lat="45.7547151" lon="10.5002405"><ele>373.0</ele><time>2026-03-22T14:28:05.615Z</time></trkpt><trkpt lat="45.7546744" lon="10.5001387"><ele>373.0</ele><time>2026-03-22T14:28:07.656Z</time></trkpt><trkpt lat="45.7546408" lon="10.500045"><ele>373.0</ele><time>2026-03-22T14:28:09.656Z</time></trkpt><trkpt lat="45.7545972" lon="10.4999384"><ele>373.0</ele><time>2026-03-22T14:28:11.603Z</time></trkpt><trkpt lat="45.7545499" lon="10.499838"><ele>373.0</ele><time>2026-03-22T14:28:13.66Z</time></trkpt><trkpt lat="45.7545024" lon="10.4997402"><ele>373.0</ele><time>2026-03-22T14:28:15.614Z</time></trkpt><trkpt lat="45.7544452" lon="10.4996484"><ele>373.0</ele><time>2026-03-22T14:28:17.609Z</time></trkpt><trkpt lat="45.7543721" lon="10.499528"><ele>373.0</ele><time>2026-03-22T14:28:19.607Z</time></trkpt><trkpt lat="45.7543048" lon="10.4994409"><ele>373.0</ele><time>2026-03-22T14:28:21.665Z</time></trkpt><trkpt lat="45.7542968" lon="10.499329"><ele>373.0</ele><time>2026-03-22T14:28:24.607Z</time></trkpt><trkpt lat="45.7542523" lon="10.4992225"><ele>374.66666666666663</ele><time>2026-03-22T14:28:26.671Z</time></trkpt><trkpt lat="45.754214" lon="10.499116"><ele>376.3333333333333</ele><time>2026-03-22T14:28:28.655Z</time></trkpt><trkpt lat="45.7541473" lon="10.4989838"><ele>378.0</ele><time>2026-03-22T14:28:30.609Z</time></trkpt><trkpt lat="45.7541331" lon="10.4988398"><ele>379.6666666666667</ele><time>2026-03-22T14:28:34.668Z</time></trkpt><trkpt lat="45.754093" lon="10.4987545"><ele>381.33333333333337</ele><time>2026-03-22T14:28:36.614Z</time></trkpt><trkpt lat="45.7540669" lon="10.4986597"><ele>383.0</ele><time>2026-03-22T14:28:38.641Z</time></trkpt><trkpt lat="45.7540304" lon="10.4985533"><ele>383.0</ele><time>2026-03-22T14:28:40.604Z</time></trkpt><trkpt lat="45.7539971" lon="10.4984425"><ele>383.0</ele><time>2026-03-22T14:28:42.631Z</time></trkpt><trkpt lat="45.7539685" lon="10.498358"><ele>383.0</ele><time>2026-03-22T14:28:44.644Z</time></trkpt><trkpt lat="45.7539194" lon="10.4982829"><ele>383.0</ele><time>2026-03-22T14:28:46.618Z</time></trkpt><trkpt lat="45.7538809" lon="10.4981673"><ele>383.0</ele><time>2026-03-22T14:28:49.644Z</time></trkpt><trkpt lat="45.7538863" lon="10.4980482"><ele>383.0</ele><time>2026-03-22T14:28:52.615Z</time></trkpt><trkpt lat="45.7538957" lon="10.497944"><ele>382.85714285714283</ele><time>2026-03-22T14:28:55.645Z</time></trkpt><trkpt lat="45.7539182" lon="10.4978435"><ele>382.71428571428567</ele><time>2026-03-22T14:28:58.622Z</time></trkpt><trkpt lat="45.7539395" lon="10.4977581"><ele>382.57142857142856</ele><time>2026-03-22T14:29:02.612Z</time></trkpt><trkpt lat="45.7538968" lon="10.4976573"><ele>382.42857142857144</ele><time>2026-03-22T14:30:42.658Z</time></trkpt><trkpt lat="45.7539077" lon="10.4975598"><ele>382.2857142857143</ele><time>2026-03-22T14:30:45.61Z</time></trkpt><trkpt lat="45.7539087" lon="10.4974585"><ele>382.14285714285717</ele><time>2026-03-22T14:30:48.607Z</time></trkpt><trkpt lat="45.7538993" lon="10.4973441"><ele>382.0</ele><time>2026-03-22T14:30:52.63Z</time></trkpt><trkpt lat="45.7538785" lon="10.4972341"><ele>382.0</ele><time>2026-03-22T14:30:56.61Z</time></trkpt><trkpt lat="45.7538548" lon="10.4971443"><ele>382.0</ele><time>2026-03-22T14:30:59.6Z</time></trkpt><trkpt lat="45.7538309" lon="10.4970592"><ele>382.0</ele><time>2026-03-22T14:31:02.65Z</time></trkpt><trkpt lat="45.7537923" lon="10.4969742"><ele>382.0</ele><time>2026-03-22T14:31:05.677Z</time></trkpt><trkpt lat="45.7537493" lon="10.4968799"><ele>382.0</ele><time>2026-03-22T14:31:09.614Z</time></trkpt><trkpt lat="45.7536968" lon="10.4967864"><ele>382.0</ele><time>2026-03-22T14:31:13.682Z</time></trkpt><trkpt lat="45.7536488" lon="10.4967239"><ele>382.0</ele><time>2026-03-22T14:31:16.613Z</time></trkpt><trkpt lat="45.7536117" lon="10.4966375"><ele>381.6</ele><time>2026-03-22T14:31:21.613Z</time></trkpt><trkpt lat="45.7535489" lon="10.4965355"><ele>381.20000000000005</ele><time>2026-03-22T14:31:31.666Z</time></trkpt><trkpt lat="45.7535073" lon="10.4964528"><ele>380.8</ele><time>2026-03-22T14:31:33.66Z</time></trkpt><trkpt lat="45.753445" lon="10.4963627"><ele>380.4</ele><time>2026-03-22T14:31:35.605Z</time></trkpt><trkpt lat="45.7533894" lon="10.4962252"><ele>380.0</ele><time>2026-03-22T14:31:37.614Z</time></trkpt><trkpt lat="45.7533418" lon="10.4960775"><ele>379.57142857142856</ele><time>2026-03-22T14:31:39.619Z</time></trkpt><trkpt lat="45.7533326" lon="10.4959848"><ele>379.14285714285717</ele><time>2026-03-22T14:31:40.636Z</time></trkpt><trkpt lat="45.7533194" lon="10.4958944"><ele>378.71428571428567</ele><time>2026-03-22T14:31:41.62Z</time></trkpt><trkpt lat="45.7533111" lon="10.4957858"><ele>378.2857142857143</ele><time>2026-03-22T14:31:42.621Z</time></trkpt><trkpt lat="45.7533029" lon="10.4956842"><ele>377.85714285714283</ele><time>2026-03-22T14:31:43.643Z</time></trkpt><trkpt lat="45.7533014" lon="10.4955776"><ele>377.4285714285714</ele><time>2026-03-22T14:31:44.643Z</time></trkpt><trkpt lat="45.7532822" lon="10.4954624"><ele>377.0</ele><time>2026-03-22T14:31:45.641Z</time></trkpt><trkpt lat="45.7532508" lon="10.4953705"><ele>377.0</ele><time>2026-03-22T14:31:46.657Z</time></trkpt><trkpt lat="45.753202" lon="10.4952737"><ele>377.0</ele><time>2026-03-22T14:31:47.647Z</time></trkpt><trkpt lat="45.7531506" lon="10.4951867"><ele>377.0</ele><time>2026-03-22T14:31:48.612Z</time></trkpt><trkpt lat="45.7530987" lon="10.4951073"><ele>377.0</ele><time>2026-03-22T14:31:49.649Z</time></trkpt><trkpt lat="45.7530511" lon="10.495039"><ele>377.0</ele><time>2026-03-22T14:31:50.645Z</time></trkpt><trkpt lat="45.7529931" lon="10.4949509"><ele>377.0</ele><time>2026-03-22T14:31:51.649Z</time></trkpt><trkpt lat="45.7529462" lon="10.4948688"><ele>377.0</ele><time>2026-03-22T14:31:52.646Z</time></trkpt><trkpt lat="45.7528868" lon="10.4947837"><ele>377.0</ele><time>2026-03-22T14:31:53.636Z</time></trkpt><trkpt lat="45.7528418" lon="10.4947114"><ele>377.0</ele><time>2026-03-22T14:31:54.646Z</time></trkpt><trkpt lat="45.7527844" lon="10.4946356"><ele>377.0</ele><time>2026-03-22T14:31:55.642Z</time></trkpt><trkpt lat="45.7527222" lon="10.4945697"><ele>370.0</ele><time>2026-03-22T14:31:56.648Z</time></trkpt><trkpt lat="45.752672" lon="10.4945021"><ele>389.0</ele><time>2026-03-22T14:31:57.656Z</time></trkpt><trkpt lat="45.7526307" lon="10.4944328"><ele>389.0</ele><time>2026-03-22T14:31:58.655Z</time></trkpt></trkseg></trk></gpx>